<?xml version="1.0" encoding="UTF-8" standalone="no" ?>
<gpx xmlns="http://www.topografix.com/GPX/1/1" xmlns:xsi="http://www.w3.org/2001/XMLSchema-instance" xsi:schemaLocation="http://www.topografix.com/GPX/1/1 http://www.topografix.com/GPX/1/1/gpx.xsd" version="1.1" creator="VisuGPX - https://www.visugpx.com">
  <metadata>
    <name>Canche Merciers - Mont Aigu - Hurlevent</name>
    <desc><![CDATA[40 kms technico-ludiques]]></desc>
  </metadata>
  <trk>
    <name><![CDATA[boucle cuisinière]]></name>
    <trkseg>
      <trkpt lat="48.40978" lon="2.61739">
        <ele>124</ele>
      </trkpt>
      <trkpt lat="48.40981" lon="2.61731">
        <ele>124</ele>
      </trkpt>
      <trkpt lat="48.40983" lon="2.61726">
        <ele>125</ele>
        <time>2012-02-08T13:48:32Z</time>
      </trkpt>
      <trkpt lat="48.40988" lon="2.6172">
        <ele>125</ele>
        <time>2012-02-08T13:48:44Z</time>
      </trkpt>
      <trkpt lat="48.40985" lon="2.61712">
        <ele>125</ele>
        <time>2012-02-08T13:48:48Z</time>
      </trkpt>
      <trkpt lat="48.40983" lon="2.61707">
        <ele>125</ele>
        <time>2012-02-08T13:48:50Z</time>
      </trkpt>
      <trkpt lat="48.40981" lon="2.61684">
        <ele>126</ele>
        <time>2012-02-08T13:48:59Z</time>
      </trkpt>
      <trkpt lat="48.40984" lon="2.61677">
        <ele>126</ele>
        <time>2012-02-08T13:49:03Z</time>
      </trkpt>
      <trkpt lat="48.40989" lon="2.61665">
        <ele>127</ele>
        <time>2012-02-08T13:49:08Z</time>
      </trkpt>
      <trkpt lat="48.40992" lon="2.61659">
        <ele>127</ele>
        <time>2012-02-08T13:49:10Z</time>
      </trkpt>
      <trkpt lat="48.40989" lon="2.61623">
        <ele>125</ele>
        <time>2012-02-08T13:49:19Z</time>
      </trkpt>
      <trkpt lat="48.40986" lon="2.6161">
        <ele>124</ele>
        <time>2012-02-08T13:49:26Z</time>
      </trkpt>
      <trkpt lat="48.40984" lon="2.61593">
        <ele>125</ele>
        <time>2012-02-08T13:49:34Z</time>
      </trkpt>
      <trkpt lat="48.40992" lon="2.61578">
        <ele>125</ele>
        <time>2012-02-08T13:49:39Z</time>
      </trkpt>
      <trkpt lat="48.41004" lon="2.61547">
        <ele>122</ele>
        <time>2012-02-08T13:49:49Z</time>
      </trkpt>
      <trkpt lat="48.41007" lon="2.61538">
        <ele>121</ele>
        <time>2012-02-08T13:49:53Z</time>
      </trkpt>
      <trkpt lat="48.41003" lon="2.61515">
        <ele>122</ele>
        <time>2012-02-08T13:50:03Z</time>
      </trkpt>
      <trkpt lat="48.41004" lon="2.61515">
        <ele>122</ele>
        <time>2012-02-08T13:50:08Z</time>
      </trkpt>
      <trkpt lat="48.4101" lon="2.6151">
        <ele>122</ele>
        <time>2012-02-08T13:50:12Z</time>
      </trkpt>
      <trkpt lat="48.41016" lon="2.615">
        <ele>120</ele>
        <time>2012-02-08T13:50:16Z</time>
      </trkpt>
      <trkpt lat="48.41021" lon="2.61478">
        <ele>118</ele>
        <time>2012-02-08T13:50:24Z</time>
      </trkpt>
      <trkpt lat="48.41022" lon="2.61473">
        <ele>117</ele>
        <time>2012-02-08T13:50:26Z</time>
      </trkpt>
      <trkpt lat="48.41024" lon="2.61469">
        <ele>117</ele>
        <time>2012-02-08T13:50:28Z</time>
      </trkpt>
      <trkpt lat="48.41026" lon="2.6146">
        <ele>117</ele>
        <time>2012-02-08T13:50:40Z</time>
      </trkpt>
      <trkpt lat="48.41026" lon="2.61461">
        <ele>117</ele>
        <time>2012-02-08T13:50:41Z</time>
      </trkpt>
      <trkpt lat="48.41044" lon="2.61448">
        <ele>115</ele>
        <time>2012-02-08T13:50:50Z</time>
      </trkpt>
      <trkpt lat="48.41051" lon="2.61446">
        <ele>115</ele>
        <time>2012-02-08T13:51:02Z</time>
      </trkpt>
      <trkpt lat="48.41051" lon="2.61447">
        <ele>115</ele>
        <time>2012-02-08T13:51:26Z</time>
      </trkpt>
      <trkpt lat="48.41054" lon="2.61445">
        <ele>115</ele>
        <time>2012-02-08T13:51:39Z</time>
      </trkpt>
      <trkpt lat="48.41055" lon="2.61449">
        <ele>115</ele>
        <time>2012-02-08T13:51:43Z</time>
      </trkpt>
      <trkpt lat="48.41058" lon="2.61453">
        <ele>115</ele>
        <time>2012-02-08T13:51:52Z</time>
      </trkpt>
      <trkpt lat="48.41066" lon="2.61449">
        <ele>114</ele>
        <time>2012-02-08T13:52:02Z</time>
      </trkpt>
      <trkpt lat="48.41069" lon="2.6145">
        <ele>114</ele>
        <time>2012-02-08T13:52:19Z</time>
      </trkpt>
      <trkpt lat="48.41075" lon="2.61455">
        <ele>114</ele>
        <time>2012-02-08T13:52:28Z</time>
      </trkpt>
      <trkpt lat="48.41076" lon="2.61453">
        <ele>114</ele>
        <time>2012-02-08T13:52:33Z</time>
      </trkpt>
      <trkpt lat="48.41077" lon="2.61457">
        <ele>114</ele>
        <time>2012-02-08T13:52:36Z</time>
      </trkpt>
      <trkpt lat="48.41085" lon="2.61458">
        <ele>106</ele>
        <time>2012-02-08T13:52:40Z</time>
      </trkpt>
      <trkpt lat="48.41111" lon="2.61458">
        <ele>104</ele>
        <time>2012-02-08T13:52:49Z</time>
      </trkpt>
      <trkpt lat="48.41131" lon="2.61477">
        <ele>102</ele>
        <time>2012-02-08T13:52:58Z</time>
      </trkpt>
      <trkpt lat="48.41161" lon="2.61497">
        <ele>97</ele>
        <time>2012-02-08T13:53:09Z</time>
      </trkpt>
      <trkpt lat="48.41153" lon="2.61546">
        <ele>103</ele>
        <time>2012-02-08T13:53:20Z</time>
      </trkpt>
      <trkpt lat="48.41139" lon="2.61614">
        <ele>104</ele>
        <time>2012-02-08T13:53:33Z</time>
      </trkpt>
      <trkpt lat="48.41126" lon="2.61669">
        <ele>103</ele>
        <time>2012-02-08T13:53:45Z</time>
      </trkpt>
      <trkpt lat="48.41105" lon="2.61784">
        <ele>104</ele>
        <time>2012-02-08T13:54:08Z</time>
      </trkpt>
      <trkpt lat="48.41082" lon="2.61814">
        <ele>110</ele>
        <time>2012-02-08T13:54:20Z</time>
      </trkpt>
      <trkpt lat="48.4106" lon="2.61832">
        <ele>112</ele>
        <time>2012-02-08T13:54:34Z</time>
      </trkpt>
      <trkpt lat="48.41056" lon="2.61835">
        <ele>113</ele>
        <time>2012-02-08T13:54:37Z</time>
      </trkpt>
      <trkpt lat="48.41038" lon="2.61853">
        <ele>116</ele>
        <time>2012-02-08T13:54:52Z</time>
      </trkpt>
      <trkpt lat="48.41038" lon="2.61854">
        <ele>116</ele>
        <time>2012-02-08T13:54:53Z</time>
      </trkpt>
      <trkpt lat="48.41036" lon="2.61857">
        <ele>117</ele>
        <time>2012-02-08T13:54:56Z</time>
      </trkpt>
      <trkpt lat="48.41033" lon="2.61859">
        <ele>117</ele>
        <time>2012-02-08T13:54:58Z</time>
      </trkpt>
      <trkpt lat="48.41027" lon="2.6186">
        <ele>118</ele>
        <time>2012-02-08T13:55:10Z</time>
      </trkpt>
      <trkpt lat="48.41024" lon="2.61858">
        <ele>118</ele>
        <time>2012-02-08T13:55:26Z</time>
      </trkpt>
      <trkpt lat="48.4102" lon="2.61853">
        <ele>119</ele>
        <time>2012-02-08T13:55:37Z</time>
      </trkpt>
      <trkpt lat="48.41017" lon="2.61845">
        <ele>120</ele>
        <time>2012-02-08T13:55:53Z</time>
      </trkpt>
      <trkpt lat="48.41017" lon="2.61845">
        <ele>120</ele>
        <time>2012-02-08T13:55:54Z</time>
      </trkpt>
      <trkpt lat="48.41015" lon="2.61842">
        <ele>120</ele>
        <time>2012-02-08T13:55:57Z</time>
      </trkpt>
      <trkpt lat="48.41017" lon="2.61834">
        <ele>120</ele>
        <time>2012-02-08T13:56:04Z</time>
      </trkpt>
      <trkpt lat="48.41018" lon="2.61829">
        <ele>119</ele>
        <time>2012-02-08T13:56:20Z</time>
      </trkpt>
      <trkpt lat="48.41019" lon="2.61828">
        <ele>119</ele>
        <time>2012-02-08T13:56:22Z</time>
      </trkpt>
      <trkpt lat="48.41015" lon="2.61808">
        <ele>118</ele>
        <time>2012-02-08T13:56:36Z</time>
      </trkpt>
      <trkpt lat="48.41009" lon="2.61798">
        <ele>118</ele>
        <time>2012-02-08T13:56:49Z</time>
      </trkpt>
      <trkpt lat="48.40999" lon="2.6178">
        <ele>123</ele>
        <time>2012-02-08T13:57:05Z</time>
      </trkpt>
      <trkpt lat="48.40992" lon="2.61767">
        <ele>124</ele>
        <time>2012-02-08T13:57:19Z</time>
      </trkpt>
      <trkpt lat="48.40991" lon="2.61754">
        <ele>125</ele>
        <time>2012-02-08T13:57:32Z</time>
      </trkpt>
      <trkpt lat="48.40991" lon="2.61747">
        <ele>125</ele>
        <time>2012-02-08T13:57:46Z</time>
      </trkpt>
      <trkpt lat="48.40991" lon="2.61749">
        <ele>125</ele>
        <time>2012-02-08T13:57:48Z</time>
      </trkpt>
      <trkpt lat="48.40986" lon="2.61746">
        <ele>125</ele>
        <time>2012-02-08T13:57:55Z</time>
      </trkpt>
      <trkpt lat="48.40981" lon="2.61747">
        <ele>125</ele>
      </trkpt>
    </trkseg>
  </trk>
  <trk>
    <name><![CDATA[boucle rocher sablon]]></name>
    <trkseg>
      <trkpt lat="48.40641" lon="2.59328">
        <ele>123</ele>
        <time>2012-02-08T14:16:08Z</time>
      </trkpt>
      <trkpt lat="48.40664" lon="2.59342">
        <ele>124</ele>
        <time>2012-02-08T14:16:16Z</time>
      </trkpt>
      <trkpt lat="48.40674" lon="2.5934">
        <ele>123</ele>
        <time>2012-02-08T14:16:20Z</time>
      </trkpt>
      <trkpt lat="48.40675" lon="2.59353">
        <ele>121</ele>
        <time>2012-02-08T14:16:27Z</time>
      </trkpt>
      <trkpt lat="48.40678" lon="2.59361">
        <ele>120</ele>
        <time>2012-02-08T14:16:29Z</time>
      </trkpt>
      <trkpt lat="48.40687" lon="2.59378">
        <ele>119</ele>
        <time>2012-02-08T14:16:32Z</time>
      </trkpt>
      <trkpt lat="48.40706" lon="2.59376">
        <ele>118</ele>
        <time>2012-02-08T14:16:37Z</time>
      </trkpt>
      <trkpt lat="48.40743" lon="2.5937">
        <ele>116</ele>
        <time>2012-02-08T14:16:44Z</time>
      </trkpt>
      <trkpt lat="48.40752" lon="2.59376">
        <ele>109</ele>
        <time>2012-02-08T14:16:48Z</time>
      </trkpt>
      <trkpt lat="48.40754" lon="2.59383">
        <ele>109</ele>
        <time>2012-02-08T14:16:52Z</time>
      </trkpt>
      <trkpt lat="48.40759" lon="2.59392">
        <ele>110</ele>
        <time>2012-02-08T14:17:02Z</time>
      </trkpt>
      <trkpt lat="48.40759" lon="2.59393">
        <ele>110</ele>
        <time>2012-02-08T14:17:03Z</time>
      </trkpt>
      <trkpt lat="48.40765" lon="2.59415">
        <ele>110</ele>
        <time>2012-02-08T14:17:18Z</time>
      </trkpt>
      <trkpt lat="48.40766" lon="2.59421">
        <ele>111</ele>
        <time>2012-02-08T14:17:21Z</time>
      </trkpt>
      <trkpt lat="48.40766" lon="2.5943">
        <ele>111</ele>
        <time>2012-02-08T14:17:25Z</time>
      </trkpt>
      <trkpt lat="48.40768" lon="2.59436">
        <ele>111</ele>
        <time>2012-02-08T14:17:27Z</time>
      </trkpt>
      <trkpt lat="48.40786" lon="2.59441">
        <ele>110</ele>
        <time>2012-02-08T14:17:35Z</time>
      </trkpt>
      <trkpt lat="48.40798" lon="2.59444">
        <ele>109</ele>
        <time>2012-02-08T14:17:40Z</time>
      </trkpt>
      <trkpt lat="48.40823" lon="2.59448">
        <ele>107</ele>
        <time>2012-02-08T14:17:48Z</time>
      </trkpt>
      <trkpt lat="48.40823" lon="2.59448">
        <ele>107</ele>
        <time>2012-02-08T14:17:50Z</time>
      </trkpt>
      <trkpt lat="48.40827" lon="2.59441">
        <ele>107</ele>
        <time>2012-02-08T14:17:55Z</time>
      </trkpt>
      <trkpt lat="48.4083" lon="2.59392">
        <ele>106</ele>
        <time>2012-02-08T14:18:12Z</time>
      </trkpt>
      <trkpt lat="48.40834" lon="2.59379">
        <ele>99</ele>
        <time>2012-02-08T14:18:17Z</time>
      </trkpt>
      <trkpt lat="48.40834" lon="2.59346">
        <ele>100</ele>
        <time>2012-02-08T14:18:25Z</time>
      </trkpt>
      <trkpt lat="48.4084" lon="2.59324">
        <ele>100</ele>
        <time>2012-02-08T14:18:30Z</time>
      </trkpt>
      <trkpt lat="48.4085" lon="2.59295">
        <ele>98</ele>
        <time>2012-02-08T14:18:35Z</time>
      </trkpt>
      <trkpt lat="48.40858" lon="2.59271">
        <ele>98</ele>
        <time>2012-02-08T14:18:40Z</time>
      </trkpt>
      <trkpt lat="48.40879" lon="2.59252">
        <ele>96</ele>
        <time>2012-02-08T14:18:48Z</time>
      </trkpt>
      <trkpt lat="48.40895" lon="2.59238">
        <ele>96</ele>
        <time>2012-02-08T14:18:53Z</time>
      </trkpt>
      <trkpt lat="48.40913" lon="2.59231">
        <ele>95</ele>
        <time>2012-02-08T14:18:57Z</time>
      </trkpt>
      <trkpt lat="48.40922" lon="2.5923">
        <ele>90</ele>
        <time>2012-02-08T14:18:59Z</time>
      </trkpt>
      <trkpt lat="48.4094" lon="2.59222">
        <ele>89</ele>
        <time>2012-02-08T14:19:03Z</time>
      </trkpt>
      <trkpt lat="48.40955" lon="2.59211">
        <ele>88</ele>
        <time>2012-02-08T14:19:08Z</time>
      </trkpt>
      <trkpt lat="48.40978" lon="2.592">
        <ele>88</ele>
        <time>2012-02-08T14:19:15Z</time>
      </trkpt>
      <trkpt lat="48.40982" lon="2.59185">
        <ele>87</ele>
        <time>2012-02-08T14:19:19Z</time>
      </trkpt>
      <trkpt lat="48.40975" lon="2.59171">
        <ele>88</ele>
        <time>2012-02-08T14:19:25Z</time>
      </trkpt>
      <trkpt lat="48.40953" lon="2.59131">
        <ele>89</ele>
        <time>2012-02-08T14:19:39Z</time>
      </trkpt>
      <trkpt lat="48.40939" lon="2.59115">
        <ele>89</ele>
        <time>2012-02-08T14:19:45Z</time>
      </trkpt>
      <trkpt lat="48.40933" lon="2.59111">
        <ele>90</ele>
        <time>2012-02-08T14:19:47Z</time>
      </trkpt>
      <trkpt lat="48.40926" lon="2.59101">
        <ele>90</ele>
        <time>2012-02-08T14:19:51Z</time>
      </trkpt>
      <trkpt lat="48.40904" lon="2.59083">
        <ele>96</ele>
        <time>2012-02-08T14:20:03Z</time>
      </trkpt>
      <trkpt lat="48.40903" lon="2.59082">
        <ele>96</ele>
        <time>2012-02-08T14:20:04Z</time>
      </trkpt>
      <trkpt lat="48.40901" lon="2.5907">
        <ele>98</ele>
        <time>2012-02-08T14:20:10Z</time>
      </trkpt>
      <trkpt lat="48.40894" lon="2.5906">
        <ele>100</ele>
        <time>2012-02-08T14:20:16Z</time>
      </trkpt>
      <trkpt lat="48.40891" lon="2.5906">
        <ele>100</ele>
        <time>2012-02-08T14:20:18Z</time>
      </trkpt>
      <trkpt lat="48.40882" lon="2.59041">
        <ele>102</ele>
        <time>2012-02-08T14:20:28Z</time>
      </trkpt>
      <trkpt lat="48.40873" lon="2.59037">
        <ele>103</ele>
        <time>2012-02-08T14:20:34Z</time>
      </trkpt>
      <trkpt lat="48.40867" lon="2.5903">
        <ele>103</ele>
        <time>2012-02-08T14:20:40Z</time>
      </trkpt>
      <trkpt lat="48.40857" lon="2.59028">
        <ele>105</ele>
        <time>2012-02-08T14:20:49Z</time>
      </trkpt>
      <trkpt lat="48.40854" lon="2.5903">
        <ele>105</ele>
        <time>2012-02-08T14:20:51Z</time>
      </trkpt>
      <trkpt lat="48.40852" lon="2.59033">
        <ele>105</ele>
        <time>2012-02-08T14:20:53Z</time>
      </trkpt>
      <trkpt lat="48.40849" lon="2.59042">
        <ele>105</ele>
        <time>2012-02-08T14:21:01Z</time>
      </trkpt>
      <trkpt lat="48.40847" lon="2.59045">
        <ele>105</ele>
        <time>2012-02-08T14:21:15Z</time>
      </trkpt>
      <trkpt lat="48.40843" lon="2.59038">
        <ele>105</ele>
        <time>2012-02-08T14:21:30Z</time>
      </trkpt>
      <trkpt lat="48.40841" lon="2.59034">
        <ele>106</ele>
        <time>2012-02-08T14:21:42Z</time>
      </trkpt>
      <trkpt lat="48.40834" lon="2.59036">
        <ele>106</ele>
        <time>2012-02-08T14:21:55Z</time>
      </trkpt>
      <trkpt lat="48.40832" lon="2.59033">
        <ele>115</ele>
        <time>2012-02-08T14:22:08Z</time>
      </trkpt>
      <trkpt lat="48.40833" lon="2.59032">
        <ele>115</ele>
        <time>2012-02-08T14:22:13Z</time>
      </trkpt>
      <trkpt lat="48.40838" lon="2.59011">
        <ele>110</ele>
        <time>2012-02-08T14:22:24Z</time>
      </trkpt>
      <trkpt lat="48.40842" lon="2.59003">
        <ele>110</ele>
        <time>2012-02-08T14:22:28Z</time>
      </trkpt>
      <trkpt lat="48.40852" lon="2.58975">
        <ele>108</ele>
        <time>2012-02-08T14:22:39Z</time>
      </trkpt>
      <trkpt lat="48.40854" lon="2.58944">
        <ele>108</ele>
        <time>2012-02-08T14:22:51Z</time>
      </trkpt>
      <trkpt lat="48.40854" lon="2.58941">
        <ele>108</ele>
        <time>2012-02-08T14:22:52Z</time>
      </trkpt>
      <trkpt lat="48.40854" lon="2.58933">
        <ele>109</ele>
        <time>2012-02-08T14:22:55Z</time>
      </trkpt>
      <trkpt lat="48.40868" lon="2.58908">
        <ele>108</ele>
        <time>2012-02-08T14:23:06Z</time>
      </trkpt>
      <trkpt lat="48.40879" lon="2.58877">
        <ele>106</ele>
        <time>2012-02-08T14:23:16Z</time>
      </trkpt>
      <trkpt lat="48.40879" lon="2.5887">
        <ele>106</ele>
        <time>2012-02-08T14:23:27Z</time>
      </trkpt>
      <trkpt lat="48.40881" lon="2.58861">
        <ele>106</ele>
        <time>2012-02-08T14:23:39Z</time>
      </trkpt>
      <trkpt lat="48.40874" lon="2.58832">
        <ele>107</ele>
        <time>2012-02-08T14:23:51Z</time>
      </trkpt>
      <trkpt lat="48.40868" lon="2.58818">
        <ele>108</ele>
        <time>2012-02-08T14:23:57Z</time>
      </trkpt>
      <trkpt lat="48.40876" lon="2.58787">
        <ele>107</ele>
        <time>2012-02-08T14:24:06Z</time>
      </trkpt>
      <trkpt lat="48.40886" lon="2.58769">
        <ele>106</ele>
        <time>2012-02-08T14:24:14Z</time>
      </trkpt>
      <trkpt lat="48.40898" lon="2.58738">
        <ele>104</ele>
        <time>2012-02-08T14:24:25Z</time>
      </trkpt>
      <trkpt lat="48.40902" lon="2.58725">
        <ele>104</ele>
        <time>2012-02-08T14:24:31Z</time>
      </trkpt>
      <trkpt lat="48.40905" lon="2.58717">
        <ele>104</ele>
        <time>2012-02-08T14:24:35Z</time>
      </trkpt>
      <trkpt lat="48.40905" lon="2.58709">
        <ele>104</ele>
        <time>2012-02-08T14:24:51Z</time>
      </trkpt>
      <trkpt lat="48.40906" lon="2.58709">
        <ele>104</ele>
        <time>2012-02-08T14:25:03Z</time>
      </trkpt>
      <trkpt lat="48.40913" lon="2.58708">
        <ele>103</ele>
        <time>2012-02-08T14:25:07Z</time>
      </trkpt>
      <trkpt lat="48.40919" lon="2.58702">
        <ele>98</ele>
        <time>2012-02-08T14:25:11Z</time>
      </trkpt>
      <trkpt lat="48.40926" lon="2.58694">
        <ele>98</ele>
        <time>2012-02-08T14:25:17Z</time>
      </trkpt>
      <trkpt lat="48.40933" lon="2.58689">
        <ele>97</ele>
        <time>2012-02-08T14:25:26Z</time>
      </trkpt>
      <trkpt lat="48.40942" lon="2.58687">
        <ele>97</ele>
        <time>2012-02-08T14:25:30Z</time>
      </trkpt>
      <trkpt lat="48.40962" lon="2.58686">
        <ele>95</ele>
        <time>2012-02-08T14:25:42Z</time>
      </trkpt>
      <trkpt lat="48.40964" lon="2.58679">
        <ele>95</ele>
        <time>2012-02-08T14:25:53Z</time>
      </trkpt>
      <trkpt lat="48.40962" lon="2.58672">
        <ele>95</ele>
        <time>2012-02-08T14:25:58Z</time>
      </trkpt>
      <trkpt lat="48.40963" lon="2.58669">
        <ele>95</ele>
        <time>2012-02-08T14:26:03Z</time>
      </trkpt>
      <trkpt lat="48.4096" lon="2.58653">
        <ele>94</ele>
        <time>2012-02-08T14:26:21Z</time>
      </trkpt>
      <trkpt lat="48.40959" lon="2.58652">
        <ele>95</ele>
        <time>2012-02-08T14:26:23Z</time>
      </trkpt>
      <trkpt lat="48.40955" lon="2.58647">
        <ele>95</ele>
        <time>2012-02-08T14:26:36Z</time>
      </trkpt>
      <trkpt lat="48.40951" lon="2.58638">
        <ele>95</ele>
        <time>2012-02-08T14:26:54Z</time>
      </trkpt>
      <trkpt lat="48.40951" lon="2.58636">
        <ele>95</ele>
        <time>2012-02-08T14:26:57Z</time>
      </trkpt>
      <trkpt lat="48.40949" lon="2.58628">
        <ele>95</ele>
        <time>2012-02-08T14:27:08Z</time>
      </trkpt>
      <trkpt lat="48.40944" lon="2.58622">
        <ele>95</ele>
        <time>2012-02-08T14:27:12Z</time>
      </trkpt>
      <trkpt lat="48.40943" lon="2.58617">
        <ele>95</ele>
        <time>2012-02-08T14:27:15Z</time>
      </trkpt>
      <trkpt lat="48.40944" lon="2.58613">
        <ele>95</ele>
        <time>2012-02-08T14:27:18Z</time>
      </trkpt>
      <trkpt lat="48.40944" lon="2.58604">
        <ele>95</ele>
        <time>2012-02-08T14:27:22Z</time>
      </trkpt>
      <trkpt lat="48.40947" lon="2.58582">
        <ele>93</ele>
        <time>2012-02-08T14:27:29Z</time>
      </trkpt>
      <trkpt lat="48.40948" lon="2.58568">
        <ele>93</ele>
        <time>2012-02-08T14:27:36Z</time>
      </trkpt>
      <trkpt lat="48.40945" lon="2.58561">
        <ele>93</ele>
        <time>2012-02-08T14:27:52Z</time>
      </trkpt>
      <trkpt lat="48.40944" lon="2.58558">
        <ele>93</ele>
        <time>2012-02-08T14:28:02Z</time>
      </trkpt>
      <trkpt lat="48.40943" lon="2.58551">
        <ele>93</ele>
        <time>2012-02-08T14:28:14Z</time>
      </trkpt>
      <trkpt lat="48.40941" lon="2.58552">
        <ele>93</ele>
        <time>2012-02-08T14:28:21Z</time>
      </trkpt>
      <trkpt lat="48.40939" lon="2.58551">
        <ele>93</ele>
        <time>2012-02-08T14:28:30Z</time>
      </trkpt>
      <trkpt lat="48.40931" lon="2.58553">
        <ele>93</ele>
        <time>2012-02-08T14:28:46Z</time>
      </trkpt>
      <trkpt lat="48.40933" lon="2.58547">
        <ele>93</ele>
        <time>2012-02-08T14:28:52Z</time>
      </trkpt>
      <trkpt lat="48.40932" lon="2.58536">
        <ele>93</ele>
        <time>2012-02-08T14:29:00Z</time>
      </trkpt>
      <trkpt lat="48.4093" lon="2.5853">
        <ele>93</ele>
        <time>2012-02-08T14:29:12Z</time>
      </trkpt>
      <trkpt lat="48.4093" lon="2.58523">
        <ele>94</ele>
        <time>2012-02-08T14:29:23Z</time>
      </trkpt>
      <trkpt lat="48.40927" lon="2.58516">
        <ele>94</ele>
        <time>2012-02-08T14:29:34Z</time>
      </trkpt>
      <trkpt lat="48.40917" lon="2.58514">
        <ele>95</ele>
        <time>2012-02-08T14:29:47Z</time>
      </trkpt>
      <trkpt lat="48.40908" lon="2.58515">
        <ele>97</ele>
        <time>2012-02-08T14:29:53Z</time>
      </trkpt>
      <trkpt lat="48.40904" lon="2.58519">
        <ele>97</ele>
        <time>2012-02-08T14:29:56Z</time>
      </trkpt>
      <trkpt lat="48.40902" lon="2.5853">
        <ele>97</ele>
        <time>2012-02-08T14:30:00Z</time>
      </trkpt>
      <trkpt lat="48.40899" lon="2.58534">
        <ele>97</ele>
        <time>2012-02-08T14:30:09Z</time>
      </trkpt>
      <trkpt lat="48.40872" lon="2.58539">
        <ele>97</ele>
        <time>2012-02-08T14:30:24Z</time>
      </trkpt>
      <trkpt lat="48.40853" lon="2.58557">
        <ele>97</ele>
        <time>2012-02-08T14:30:37Z</time>
      </trkpt>
      <trkpt lat="48.40838" lon="2.58594">
        <ele>98</ele>
        <time>2012-02-08T14:30:49Z</time>
      </trkpt>
      <trkpt lat="48.40814" lon="2.58617">
        <ele>99</ele>
        <time>2012-02-08T14:31:00Z</time>
      </trkpt>
      <trkpt lat="48.40803" lon="2.58638">
        <ele>100</ele>
        <time>2012-02-08T14:31:06Z</time>
      </trkpt>
      <trkpt lat="48.40769" lon="2.58665">
        <ele>100</ele>
        <time>2012-02-08T14:31:20Z</time>
      </trkpt>
      <trkpt lat="48.40763" lon="2.58673">
        <ele>103</ele>
        <time>2012-02-08T14:31:23Z</time>
      </trkpt>
      <trkpt lat="48.40758" lon="2.58694">
        <ele>105</ele>
        <time>2012-02-08T14:31:28Z</time>
      </trkpt>
      <trkpt lat="48.40751" lon="2.58702">
        <ele>105</ele>
        <time>2012-02-08T14:31:32Z</time>
      </trkpt>
      <trkpt lat="48.40737" lon="2.58717">
        <ele>101</ele>
        <time>2012-02-08T14:31:39Z</time>
      </trkpt>
      <trkpt lat="48.4073" lon="2.5877">
        <ele>108</ele>
        <time>2012-02-08T14:31:50Z</time>
      </trkpt>
      <trkpt lat="48.40734" lon="2.58782">
        <ele>109</ele>
        <time>2012-02-08T14:31:54Z</time>
      </trkpt>
      <trkpt lat="48.40754" lon="2.58792">
        <ele>112</ele>
        <time>2012-02-08T14:32:05Z</time>
      </trkpt>
      <trkpt lat="48.40756" lon="2.58803">
        <ele>113</ele>
        <time>2012-02-08T14:32:15Z</time>
      </trkpt>
      <trkpt lat="48.40738" lon="2.58818">
        <ele>113</ele>
        <time>2012-02-08T14:32:28Z</time>
      </trkpt>
      <trkpt lat="48.40713" lon="2.58831">
        <ele>111</ele>
        <time>2012-02-08T14:32:42Z</time>
      </trkpt>
      <trkpt lat="48.40707" lon="2.58839">
        <ele>117</ele>
        <time>2012-02-08T14:32:46Z</time>
      </trkpt>
      <trkpt lat="48.40706" lon="2.5885">
        <ele>117</ele>
        <time>2012-02-08T14:32:50Z</time>
      </trkpt>
      <trkpt lat="48.40707" lon="2.58867">
        <ele>118</ele>
        <time>2012-02-08T14:32:55Z</time>
      </trkpt>
      <trkpt lat="48.40709" lon="2.5888">
        <ele>118</ele>
        <time>2012-02-08T14:33:00Z</time>
      </trkpt>
      <trkpt lat="48.4071" lon="2.58921">
        <ele>122</ele>
        <time>2012-02-08T14:33:17Z</time>
      </trkpt>
      <trkpt lat="48.40714" lon="2.5893">
        <ele>122</ele>
        <time>2012-02-08T14:33:21Z</time>
      </trkpt>
      <trkpt lat="48.40724" lon="2.58967">
        <ele>122</ele>
        <time>2012-02-08T14:33:36Z</time>
      </trkpt>
      <trkpt lat="48.40728" lon="2.58973">
        <ele>122</ele>
        <time>2012-02-08T14:33:39Z</time>
      </trkpt>
      <trkpt lat="48.40738" lon="2.59006">
        <ele>122</ele>
        <time>2012-02-08T14:33:46Z</time>
      </trkpt>
      <trkpt lat="48.40738" lon="2.59017">
        <ele>122</ele>
        <time>2012-02-08T14:33:48Z</time>
      </trkpt>
      <trkpt lat="48.40747" lon="2.5904">
        <ele>121</ele>
        <time>2012-02-08T14:33:53Z</time>
      </trkpt>
      <trkpt lat="48.40756" lon="2.59078">
        <ele>119</ele>
        <time>2012-02-08T14:33:59Z</time>
      </trkpt>
      <trkpt lat="48.40756" lon="2.59097">
        <ele>118</ele>
        <time>2012-02-08T14:34:02Z</time>
      </trkpt>
      <trkpt lat="48.40749" lon="2.59117">
        <ele>120</ele>
        <time>2012-02-08T14:34:13Z</time>
      </trkpt>
      <trkpt lat="48.40742" lon="2.59115">
        <ele>120</ele>
        <time>2012-02-08T14:34:18Z</time>
      </trkpt>
      <trkpt lat="48.40737" lon="2.59117">
        <ele>120</ele>
        <time>2012-02-08T14:34:23Z</time>
      </trkpt>
      <trkpt lat="48.40732" lon="2.5913">
        <ele>120</ele>
        <time>2012-02-08T14:34:30Z</time>
      </trkpt>
      <trkpt lat="48.40731" lon="2.59137">
        <ele>120</ele>
        <time>2012-02-08T14:34:34Z</time>
      </trkpt>
      <trkpt lat="48.40729" lon="2.5914">
        <ele>120</ele>
        <time>2012-02-08T14:34:36Z</time>
      </trkpt>
      <trkpt lat="48.40721" lon="2.59143">
        <ele>120</ele>
        <time>2012-02-08T14:34:49Z</time>
      </trkpt>
      <trkpt lat="48.40715" lon="2.59149">
        <ele>120</ele>
        <time>2012-02-08T14:35:01Z</time>
      </trkpt>
      <trkpt lat="48.40711" lon="2.59155">
        <ele>120</ele>
        <time>2012-02-08T14:35:08Z</time>
      </trkpt>
      <trkpt lat="48.40708" lon="2.59157">
        <ele>121</ele>
        <time>2012-02-08T14:35:12Z</time>
      </trkpt>
      <trkpt lat="48.40703" lon="2.59166">
        <ele>121</ele>
        <time>2012-02-08T14:35:16Z</time>
      </trkpt>
      <trkpt lat="48.40691" lon="2.59178">
        <ele>120</ele>
        <time>2012-02-08T14:35:22Z</time>
      </trkpt>
      <trkpt lat="48.40667" lon="2.59191">
        <ele>120</ele>
        <time>2012-02-08T14:35:34Z</time>
      </trkpt>
      <trkpt lat="48.40661" lon="2.59203">
        <ele>120</ele>
        <time>2012-02-08T14:35:39Z</time>
      </trkpt>
      <trkpt lat="48.40652" lon="2.59202">
        <ele>120</ele>
        <time>2012-02-08T14:35:44Z</time>
      </trkpt>
      <trkpt lat="48.40646" lon="2.59211">
        <ele>120</ele>
        <time>2012-02-08T14:35:50Z</time>
      </trkpt>
      <trkpt lat="48.4064" lon="2.59219">
        <ele>120</ele>
        <time>2012-02-08T14:36:03Z</time>
      </trkpt>
      <trkpt lat="48.40641" lon="2.5922">
        <ele>120</ele>
        <time>2012-02-08T14:36:07Z</time>
      </trkpt>
      <trkpt lat="48.4064" lon="2.59227">
        <ele>120</ele>
        <time>2012-02-08T14:36:11Z</time>
      </trkpt>
      <trkpt lat="48.40642" lon="2.59235">
        <ele>120</ele>
        <time>2012-02-08T14:36:15Z</time>
      </trkpt>
      <trkpt lat="48.40643" lon="2.5927">
        <ele>122</ele>
        <time>2012-02-08T14:36:29Z</time>
      </trkpt>
      <trkpt lat="48.40639" lon="2.59303">
        <ele>122</ele>
        <time>2012-02-08T14:36:41Z</time>
      </trkpt>
    </trkseg>
  </trk>
  <trk>
    <name><![CDATA[canche - mont aigu - hurlevent]]></name>
    <trkseg>
      <trkpt lat="48.39009" lon="2.5533">
        <ele>77</ele>
        <time>2012-02-19T07:50:57Z</time>
      </trkpt>
      <trkpt lat="48.39009" lon="2.55328">
        <ele>77</ele>
        <time>2012-02-19T07:51:36Z</time>
      </trkpt>
      <trkpt lat="48.39009" lon="2.55328">
        <ele>77</ele>
        <time>2012-02-19T07:51:37Z</time>
      </trkpt>
      <trkpt lat="48.39015" lon="2.55314">
        <ele>77</ele>
        <time>2012-02-19T07:51:44Z</time>
      </trkpt>
      <trkpt lat="48.39037" lon="2.55306">
        <ele>77</ele>
        <time>2012-02-19T07:51:52Z</time>
      </trkpt>
      <trkpt lat="48.39048" lon="2.55282">
        <ele>78</ele>
        <time>2012-02-19T07:51:58Z</time>
      </trkpt>
      <trkpt lat="48.39071" lon="2.55239">
        <ele>78</ele>
        <time>2012-02-19T07:52:09Z</time>
      </trkpt>
      <trkpt lat="48.39106" lon="2.55179">
        <ele>79</ele>
        <time>2012-02-19T07:52:23Z</time>
      </trkpt>
      <trkpt lat="48.39114" lon="2.55166">
        <ele>80</ele>
        <time>2012-02-19T07:52:26Z</time>
      </trkpt>
      <trkpt lat="48.39131" lon="2.55144">
        <ele>80</ele>
        <time>2012-02-19T07:52:32Z</time>
      </trkpt>
      <trkpt lat="48.39138" lon="2.55131">
        <ele>80</ele>
        <time>2012-02-19T07:52:36Z</time>
      </trkpt>
      <trkpt lat="48.39156" lon="2.5512">
        <ele>80</ele>
        <time>2012-02-19T07:52:44Z</time>
      </trkpt>
      <trkpt lat="48.39161" lon="2.55117">
        <ele>81</ele>
        <time>2012-02-19T07:52:46Z</time>
      </trkpt>
      <trkpt lat="48.39174" lon="2.55103">
        <ele>81</ele>
        <time>2012-02-19T07:52:52Z</time>
      </trkpt>
      <trkpt lat="48.39177" lon="2.55097">
        <ele>81</ele>
        <time>2012-02-19T07:52:54Z</time>
      </trkpt>
      <trkpt lat="48.39172" lon="2.55074">
        <ele>81</ele>
        <time>2012-02-19T07:53:03Z</time>
      </trkpt>
      <trkpt lat="48.39155" lon="2.55041">
        <ele>80</ele>
        <time>2012-02-19T07:53:11Z</time>
      </trkpt>
      <trkpt lat="48.39161" lon="2.54978">
        <ele>80</ele>
        <time>2012-02-19T07:53:22Z</time>
      </trkpt>
      <trkpt lat="48.39162" lon="2.54943">
        <ele>79</ele>
        <time>2012-02-19T07:53:30Z</time>
      </trkpt>
      <trkpt lat="48.39157" lon="2.54882">
        <ele>80</ele>
        <time>2012-02-19T07:53:41Z</time>
      </trkpt>
      <trkpt lat="48.39161" lon="2.54805">
        <ele>81</ele>
        <time>2012-02-19T07:53:56Z</time>
      </trkpt>
      <trkpt lat="48.39158" lon="2.54781">
        <ele>81</ele>
        <time>2012-02-19T07:54:01Z</time>
      </trkpt>
      <trkpt lat="48.39159" lon="2.54766">
        <ele>81</ele>
        <time>2012-02-19T07:54:04Z</time>
      </trkpt>
      <trkpt lat="48.39156" lon="2.54739">
        <ele>81</ele>
        <time>2012-02-19T07:54:11Z</time>
      </trkpt>
      <trkpt lat="48.39167" lon="2.54681">
        <ele>82</ele>
        <time>2012-02-19T07:54:23Z</time>
      </trkpt>
      <trkpt lat="48.39171" lon="2.54633">
        <ele>85</ele>
        <time>2012-02-19T07:54:34Z</time>
      </trkpt>
      <trkpt lat="48.39173" lon="2.54588">
        <ele>87</ele>
        <time>2012-02-19T07:54:46Z</time>
      </trkpt>
      <trkpt lat="48.39169" lon="2.54578">
        <ele>88</ele>
        <time>2012-02-19T07:54:50Z</time>
      </trkpt>
      <trkpt lat="48.39161" lon="2.54572">
        <ele>87</ele>
        <time>2012-02-19T07:54:53Z</time>
      </trkpt>
      <trkpt lat="48.3916" lon="2.54543">
        <ele>88</ele>
        <time>2012-02-19T07:55:01Z</time>
      </trkpt>
      <trkpt lat="48.39156" lon="2.54534">
        <ele>89</ele>
        <time>2012-02-19T07:55:04Z</time>
      </trkpt>
      <trkpt lat="48.39166" lon="2.54489">
        <ele>93</ele>
        <time>2012-02-19T07:55:17Z</time>
      </trkpt>
      <trkpt lat="48.39175" lon="2.54437">
        <ele>100</ele>
        <time>2012-02-19T07:55:32Z</time>
      </trkpt>
      <trkpt lat="48.39177" lon="2.5442">
        <ele>99</ele>
        <time>2012-02-19T07:55:38Z</time>
      </trkpt>
      <trkpt lat="48.39179" lon="2.54413">
        <ele>101</ele>
        <time>2012-02-19T07:55:42Z</time>
      </trkpt>
      <trkpt lat="48.39183" lon="2.54405">
        <ele>103</ele>
        <time>2012-02-19T07:55:46Z</time>
      </trkpt>
      <trkpt lat="48.39191" lon="2.54386">
        <ele>105</ele>
        <time>2012-02-19T07:55:52Z</time>
      </trkpt>
      <trkpt lat="48.39201" lon="2.54381">
        <ele>106</ele>
        <time>2012-02-19T07:55:58Z</time>
      </trkpt>
      <trkpt lat="48.39206" lon="2.54369">
        <ele>107</ele>
        <time>2012-02-19T07:56:03Z</time>
      </trkpt>
      <trkpt lat="48.39209" lon="2.54365">
        <ele>107</ele>
        <time>2012-02-19T07:56:05Z</time>
      </trkpt>
      <trkpt lat="48.39209" lon="2.54358">
        <ele>107</ele>
        <time>2012-02-19T07:56:07Z</time>
      </trkpt>
      <trkpt lat="48.39215" lon="2.54351">
        <ele>108</ele>
        <time>2012-02-19T07:56:11Z</time>
      </trkpt>
      <trkpt lat="48.39212" lon="2.54344">
        <ele>108</ele>
        <time>2012-02-19T07:56:15Z</time>
      </trkpt>
      <trkpt lat="48.39206" lon="2.54319">
        <ele>109</ele>
        <time>2012-02-19T07:56:25Z</time>
      </trkpt>
      <trkpt lat="48.39207" lon="2.54316">
        <ele>109</ele>
        <time>2012-02-19T07:56:26Z</time>
      </trkpt>
      <trkpt lat="48.39209" lon="2.54309">
        <ele>109</ele>
        <time>2012-02-19T07:56:28Z</time>
      </trkpt>
      <trkpt lat="48.39212" lon="2.54254">
        <ele>109</ele>
        <time>2012-02-19T07:56:44Z</time>
      </trkpt>
      <trkpt lat="48.39208" lon="2.54229">
        <ele>109</ele>
        <time>2012-02-19T07:56:50Z</time>
      </trkpt>
      <trkpt lat="48.3921" lon="2.54205">
        <ele>109</ele>
        <time>2012-02-19T07:56:55Z</time>
      </trkpt>
      <trkpt lat="48.39213" lon="2.54197">
        <ele>109</ele>
        <time>2012-02-19T07:56:57Z</time>
      </trkpt>
      <trkpt lat="48.39216" lon="2.54187">
        <ele>109</ele>
        <time>2012-02-19T07:57:00Z</time>
      </trkpt>
      <trkpt lat="48.39232" lon="2.54161">
        <ele>111</ele>
        <time>2012-02-19T07:57:12Z</time>
      </trkpt>
      <trkpt lat="48.39234" lon="2.5416">
        <ele>111</ele>
        <time>2012-02-19T07:57:13Z</time>
      </trkpt>
      <trkpt lat="48.39242" lon="2.54146">
        <ele>111</ele>
        <time>2012-02-19T07:57:20Z</time>
      </trkpt>
      <trkpt lat="48.39246" lon="2.54143">
        <ele>111</ele>
        <time>2012-02-19T07:57:22Z</time>
      </trkpt>
      <trkpt lat="48.39256" lon="2.5413">
        <ele>118</ele>
        <time>2012-02-19T07:57:30Z</time>
      </trkpt>
      <trkpt lat="48.39256" lon="2.54131">
        <ele>118</ele>
        <time>2012-02-19T07:59:30Z</time>
      </trkpt>
      <trkpt lat="48.39257" lon="2.54122">
        <ele>118</ele>
        <time>2012-02-19T07:59:33Z</time>
      </trkpt>
      <trkpt lat="48.39247" lon="2.54103">
        <ele>111</ele>
        <time>2012-02-19T07:59:38Z</time>
      </trkpt>
      <trkpt lat="48.39248" lon="2.54066">
        <ele>111</ele>
        <time>2012-02-19T07:59:49Z</time>
      </trkpt>
      <trkpt lat="48.39249" lon="2.54063">
        <ele>111</ele>
        <time>2012-02-19T07:59:50Z</time>
      </trkpt>
      <trkpt lat="48.39247" lon="2.54048">
        <ele>110</ele>
        <time>2012-02-19T07:59:55Z</time>
      </trkpt>
      <trkpt lat="48.39247" lon="2.54037">
        <ele>110</ele>
        <time>2012-02-19T07:59:57Z</time>
      </trkpt>
      <trkpt lat="48.39238" lon="2.54005">
        <ele>112</ele>
        <time>2012-02-19T08:00:03Z</time>
      </trkpt>
      <trkpt lat="48.39235" lon="2.53985">
        <ele>111</ele>
        <time>2012-02-19T08:00:07Z</time>
      </trkpt>
      <trkpt lat="48.39235" lon="2.53959">
        <ele>110</ele>
        <time>2012-02-19T08:00:12Z</time>
      </trkpt>
      <trkpt lat="48.39237" lon="2.53944">
        <ele>110</ele>
        <time>2012-02-19T08:00:15Z</time>
      </trkpt>
      <trkpt lat="48.39239" lon="2.53933">
        <ele>110</ele>
        <time>2012-02-19T08:00:19Z</time>
      </trkpt>
      <trkpt lat="48.39242" lon="2.53928">
        <ele>111</ele>
        <time>2012-02-19T08:00:22Z</time>
      </trkpt>
      <trkpt lat="48.39252" lon="2.53919">
        <ele>114</ele>
        <time>2012-02-19T08:00:27Z</time>
      </trkpt>
      <trkpt lat="48.39262" lon="2.53904">
        <ele>116</ele>
        <time>2012-02-19T08:00:31Z</time>
      </trkpt>
      <trkpt lat="48.39263" lon="2.53889">
        <ele>116</ele>
        <time>2012-02-19T08:00:34Z</time>
      </trkpt>
      <trkpt lat="48.39274" lon="2.53867">
        <ele>117</ele>
        <time>2012-02-19T08:00:39Z</time>
      </trkpt>
      <trkpt lat="48.39277" lon="2.5385">
        <ele>117</ele>
        <time>2012-02-19T08:00:42Z</time>
      </trkpt>
      <trkpt lat="48.39284" lon="2.53841">
        <ele>117</ele>
        <time>2012-02-19T08:00:46Z</time>
      </trkpt>
      <trkpt lat="48.39304" lon="2.53836">
        <ele>119</ele>
        <time>2012-02-19T08:00:54Z</time>
      </trkpt>
      <trkpt lat="48.39308" lon="2.53836">
        <ele>120</ele>
        <time>2012-02-19T08:00:56Z</time>
      </trkpt>
      <trkpt lat="48.39336" lon="2.53822">
        <ele>123</ele>
        <time>2012-02-19T08:01:03Z</time>
      </trkpt>
      <trkpt lat="48.39344" lon="2.53808">
        <ele>122</ele>
        <time>2012-02-19T08:01:06Z</time>
      </trkpt>
      <trkpt lat="48.39366" lon="2.53779">
        <ele>122</ele>
        <time>2012-02-19T08:01:14Z</time>
      </trkpt>
      <trkpt lat="48.39373" lon="2.53776">
        <ele>122</ele>
        <time>2012-02-19T08:01:16Z</time>
      </trkpt>
      <trkpt lat="48.39423" lon="2.53777">
        <ele>120</ele>
        <time>2012-02-19T08:01:29Z</time>
      </trkpt>
      <trkpt lat="48.39433" lon="2.53769">
        <ele>120</ele>
        <time>2012-02-19T08:01:32Z</time>
      </trkpt>
      <trkpt lat="48.39448" lon="2.53774">
        <ele>120</ele>
        <time>2012-02-19T08:01:36Z</time>
      </trkpt>
      <trkpt lat="48.39455" lon="2.53786">
        <ele>120</ele>
        <time>2012-02-19T08:01:39Z</time>
      </trkpt>
      <trkpt lat="48.39462" lon="2.53792">
        <ele>120</ele>
        <time>2012-02-19T08:01:41Z</time>
      </trkpt>
      <trkpt lat="48.39468" lon="2.538">
        <ele>120</ele>
        <time>2012-02-19T08:01:43Z</time>
      </trkpt>
      <trkpt lat="48.39479" lon="2.53805">
        <ele>120</ele>
        <time>2012-02-19T08:01:46Z</time>
      </trkpt>
      <trkpt lat="48.39499" lon="2.53803">
        <ele>120</ele>
        <time>2012-02-19T08:01:51Z</time>
      </trkpt>
      <trkpt lat="48.39503" lon="2.53802">
        <ele>120</ele>
        <time>2012-02-19T08:01:53Z</time>
      </trkpt>
      <trkpt lat="48.3954" lon="2.53805">
        <ele>120</ele>
        <time>2012-02-19T08:02:03Z</time>
      </trkpt>
      <trkpt lat="48.39565" lon="2.53801">
        <ele>120</ele>
        <time>2012-02-19T08:02:10Z</time>
      </trkpt>
      <trkpt lat="48.39587" lon="2.53813">
        <ele>118</ele>
        <time>2012-02-19T08:02:18Z</time>
      </trkpt>
      <trkpt lat="48.39597" lon="2.53801">
        <ele>117</ele>
        <time>2012-02-19T08:02:24Z</time>
      </trkpt>
      <trkpt lat="48.39614" lon="2.53799">
        <ele>116</ele>
        <time>2012-02-19T08:02:30Z</time>
      </trkpt>
      <trkpt lat="48.39621" lon="2.53805">
        <ele>116</ele>
        <time>2012-02-19T08:02:34Z</time>
      </trkpt>
      <trkpt lat="48.39637" lon="2.53801">
        <ele>115</ele>
        <time>2012-02-19T08:02:41Z</time>
      </trkpt>
      <trkpt lat="48.39651" lon="2.53796">
        <ele>115</ele>
        <time>2012-02-19T08:02:47Z</time>
      </trkpt>
      <trkpt lat="48.39654" lon="2.53786">
        <ele>115</ele>
        <time>2012-02-19T08:02:51Z</time>
      </trkpt>
      <trkpt lat="48.39654" lon="2.53781">
        <ele>115</ele>
        <time>2012-02-19T08:02:53Z</time>
      </trkpt>
      <trkpt lat="48.39652" lon="2.53772">
        <ele>115</ele>
        <time>2012-02-19T08:02:56Z</time>
      </trkpt>
      <trkpt lat="48.39652" lon="2.53767">
        <ele>115</ele>
        <time>2012-02-19T08:02:58Z</time>
      </trkpt>
      <trkpt lat="48.39646" lon="2.53759">
        <ele>116</ele>
        <time>2012-02-19T08:03:02Z</time>
      </trkpt>
      <trkpt lat="48.39642" lon="2.53709">
        <ele>118</ele>
        <time>2012-02-19T08:03:15Z</time>
      </trkpt>
      <trkpt lat="48.39642" lon="2.53704">
        <ele>118</ele>
        <time>2012-02-19T08:03:16Z</time>
      </trkpt>
      <trkpt lat="48.3964" lon="2.5369">
        <ele>118</ele>
        <time>2012-02-19T08:03:19Z</time>
      </trkpt>
      <trkpt lat="48.39648" lon="2.53669">
        <ele>118</ele>
        <time>2012-02-19T08:03:25Z</time>
      </trkpt>
      <trkpt lat="48.39649" lon="2.53665">
        <ele>118</ele>
        <time>2012-02-19T08:03:34Z</time>
      </trkpt>
      <trkpt lat="48.39651" lon="2.53653">
        <ele>118</ele>
        <time>2012-02-19T08:03:41Z</time>
      </trkpt>
      <trkpt lat="48.39658" lon="2.53647">
        <ele>118</ele>
        <time>2012-02-19T08:03:44Z</time>
      </trkpt>
      <trkpt lat="48.39667" lon="2.53628">
        <ele>113</ele>
        <time>2012-02-19T08:03:50Z</time>
      </trkpt>
      <trkpt lat="48.39667" lon="2.5362">
        <ele>113</ele>
        <time>2012-02-19T08:03:53Z</time>
      </trkpt>
      <trkpt lat="48.39663" lon="2.53614">
        <ele>119</ele>
        <time>2012-02-19T08:04:05Z</time>
      </trkpt>
      <trkpt lat="48.39664" lon="2.53615">
        <ele>119</ele>
        <time>2012-02-19T08:04:07Z</time>
      </trkpt>
      <trkpt lat="48.39666" lon="2.5362">
        <ele>119</ele>
        <time>2012-02-19T08:04:12Z</time>
      </trkpt>
      <trkpt lat="48.39665" lon="2.53629">
        <ele>119</ele>
        <time>2012-02-19T08:04:20Z</time>
      </trkpt>
      <trkpt lat="48.39665" lon="2.53635">
        <ele>119</ele>
        <time>2012-02-19T08:04:23Z</time>
      </trkpt>
      <trkpt lat="48.39677" lon="2.53634">
        <ele>113</ele>
        <time>2012-02-19T08:04:33Z</time>
      </trkpt>
      <trkpt lat="48.39688" lon="2.53611">
        <ele>112</ele>
        <time>2012-02-19T08:04:42Z</time>
      </trkpt>
      <trkpt lat="48.39688" lon="2.53604">
        <ele>113</ele>
        <time>2012-02-19T08:04:44Z</time>
      </trkpt>
      <trkpt lat="48.39692" lon="2.53585">
        <ele>113</ele>
        <time>2012-02-19T08:04:50Z</time>
      </trkpt>
      <trkpt lat="48.39684" lon="2.53573">
        <ele>115</ele>
        <time>2012-02-19T08:04:56Z</time>
      </trkpt>
      <trkpt lat="48.39681" lon="2.53559">
        <ele>115</ele>
        <time>2012-02-19T08:05:01Z</time>
      </trkpt>
      <trkpt lat="48.39685" lon="2.53541">
        <ele>115</ele>
        <time>2012-02-19T08:05:07Z</time>
      </trkpt>
      <trkpt lat="48.39685" lon="2.53528">
        <ele>115</ele>
        <time>2012-02-19T08:05:11Z</time>
      </trkpt>
      <trkpt lat="48.39699" lon="2.53466">
        <ele>116</ele>
        <time>2012-02-19T08:05:24Z</time>
      </trkpt>
      <trkpt lat="48.39703" lon="2.53448">
        <ele>116</ele>
        <time>2012-02-19T08:05:27Z</time>
      </trkpt>
      <trkpt lat="48.39718" lon="2.53408">
        <ele>117</ele>
        <time>2012-02-19T08:05:34Z</time>
      </trkpt>
      <trkpt lat="48.39733" lon="2.53363">
        <ele>117</ele>
        <time>2012-02-19T08:05:42Z</time>
      </trkpt>
      <trkpt lat="48.39737" lon="2.53346">
        <ele>117</ele>
        <time>2012-02-19T08:05:45Z</time>
      </trkpt>
      <trkpt lat="48.39746" lon="2.53311">
        <ele>118</ele>
        <time>2012-02-19T08:05:52Z</time>
      </trkpt>
      <trkpt lat="48.39752" lon="2.53305">
        <ele>112</ele>
        <time>2012-02-19T08:05:56Z</time>
      </trkpt>
      <trkpt lat="48.39752" lon="2.53271">
        <ele>113</ele>
        <time>2012-02-19T08:06:06Z</time>
      </trkpt>
      <trkpt lat="48.39746" lon="2.53212">
        <ele>120</ele>
        <time>2012-02-19T08:06:20Z</time>
      </trkpt>
      <trkpt lat="48.39739" lon="2.5319">
        <ele>121</ele>
        <time>2012-02-19T08:06:28Z</time>
      </trkpt>
      <trkpt lat="48.39737" lon="2.53188">
        <ele>121</ele>
        <time>2012-02-19T08:06:29Z</time>
      </trkpt>
      <trkpt lat="48.39725" lon="2.53178">
        <ele>121</ele>
        <time>2012-02-19T08:06:35Z</time>
      </trkpt>
      <trkpt lat="48.39719" lon="2.53169">
        <ele>121</ele>
        <time>2012-02-19T08:06:38Z</time>
      </trkpt>
      <trkpt lat="48.39717" lon="2.53159">
        <ele>122</ele>
        <time>2012-02-19T08:06:41Z</time>
      </trkpt>
      <trkpt lat="48.39694" lon="2.5315">
        <ele>121</ele>
        <time>2012-02-19T08:06:50Z</time>
      </trkpt>
      <trkpt lat="48.39688" lon="2.53118">
        <ele>121</ele>
        <time>2012-02-19T08:06:58Z</time>
      </trkpt>
      <trkpt lat="48.39684" lon="2.5311">
        <ele>121</ele>
        <time>2012-02-19T08:07:00Z</time>
      </trkpt>
      <trkpt lat="48.39683" lon="2.53097">
        <ele>121</ele>
        <time>2012-02-19T08:07:03Z</time>
      </trkpt>
      <trkpt lat="48.39673" lon="2.53079">
        <ele>121</ele>
        <time>2012-02-19T08:07:08Z</time>
      </trkpt>
      <trkpt lat="48.39666" lon="2.53067">
        <ele>120</ele>
        <time>2012-02-19T08:07:13Z</time>
      </trkpt>
      <trkpt lat="48.39662" lon="2.53059">
        <ele>120</ele>
        <time>2012-02-19T08:07:15Z</time>
      </trkpt>
      <trkpt lat="48.3966" lon="2.53037">
        <ele>119</ele>
        <time>2012-02-19T08:07:19Z</time>
      </trkpt>
      <trkpt lat="48.39664" lon="2.53016">
        <ele>119</ele>
        <time>2012-02-19T08:07:23Z</time>
      </trkpt>
      <trkpt lat="48.39673" lon="2.52982">
        <ele>119</ele>
        <time>2012-02-19T08:07:32Z</time>
      </trkpt>
      <trkpt lat="48.39662" lon="2.52976">
        <ele>118</ele>
        <time>2012-02-19T08:07:38Z</time>
      </trkpt>
      <trkpt lat="48.39658" lon="2.52979">
        <ele>118</ele>
        <time>2012-02-19T08:07:48Z</time>
      </trkpt>
      <trkpt lat="48.39652" lon="2.52976">
        <ele>118</ele>
        <time>2012-02-19T08:08:08Z</time>
      </trkpt>
      <trkpt lat="48.3965" lon="2.52976">
        <ele>118</ele>
        <time>2012-02-19T08:08:20Z</time>
      </trkpt>
      <trkpt lat="48.39647" lon="2.52972">
        <ele>118</ele>
        <time>2012-02-19T08:08:31Z</time>
      </trkpt>
      <trkpt lat="48.39642" lon="2.52971">
        <ele>118</ele>
        <time>2012-02-19T08:08:45Z</time>
      </trkpt>
      <trkpt lat="48.39639" lon="2.52969">
        <ele>118</ele>
        <time>2012-02-19T08:08:59Z</time>
      </trkpt>
      <trkpt lat="48.39635" lon="2.52972">
        <ele>118</ele>
        <time>2012-02-19T08:09:15Z</time>
      </trkpt>
      <trkpt lat="48.3963" lon="2.5297">
        <ele>118</ele>
        <time>2012-02-19T08:09:21Z</time>
      </trkpt>
      <trkpt lat="48.39622" lon="2.52967">
        <ele>119</ele>
        <time>2012-02-19T08:09:31Z</time>
      </trkpt>
      <trkpt lat="48.39619" lon="2.52963">
        <ele>119</ele>
        <time>2012-02-19T08:09:45Z</time>
      </trkpt>
      <trkpt lat="48.39619" lon="2.52964">
        <ele>119</ele>
        <time>2012-02-19T08:12:46Z</time>
      </trkpt>
      <trkpt lat="48.3962" lon="2.52945">
        <ele>119</ele>
        <time>2012-02-19T08:12:51Z</time>
      </trkpt>
      <trkpt lat="48.39619" lon="2.52918">
        <ele>119</ele>
        <time>2012-02-19T08:12:55Z</time>
      </trkpt>
      <trkpt lat="48.39623" lon="2.52902">
        <ele>118</ele>
        <time>2012-02-19T08:12:57Z</time>
      </trkpt>
      <trkpt lat="48.39632" lon="2.52832">
        <ele>117</ele>
        <time>2012-02-19T08:13:07Z</time>
      </trkpt>
      <trkpt lat="48.39636" lon="2.52812">
        <ele>117</ele>
        <time>2012-02-19T08:13:10Z</time>
      </trkpt>
      <trkpt lat="48.39651" lon="2.52736">
        <ele>114</ele>
        <time>2012-02-19T08:13:21Z</time>
      </trkpt>
      <trkpt lat="48.39656" lon="2.5272">
        <ele>115</ele>
        <time>2012-02-19T08:13:24Z</time>
      </trkpt>
      <trkpt lat="48.39666" lon="2.52667">
        <ele>111</ele>
        <time>2012-02-19T08:13:33Z</time>
      </trkpt>
      <trkpt lat="48.39668" lon="2.52624">
        <ele>112</ele>
        <time>2012-02-19T08:13:44Z</time>
      </trkpt>
      <trkpt lat="48.39668" lon="2.52614">
        <ele>112</ele>
        <time>2012-02-19T08:14:41Z</time>
      </trkpt>
      <trkpt lat="48.39674" lon="2.5258">
        <ele>109</ele>
        <time>2012-02-19T08:14:54Z</time>
      </trkpt>
      <trkpt lat="48.39684" lon="2.52499">
        <ele>107</ele>
        <time>2012-02-19T08:15:07Z</time>
      </trkpt>
      <trkpt lat="48.3969" lon="2.52465">
        <ele>108</ele>
        <time>2012-02-19T08:15:12Z</time>
      </trkpt>
      <trkpt lat="48.39695" lon="2.52447">
        <ele>108</ele>
        <time>2012-02-19T08:15:15Z</time>
      </trkpt>
      <trkpt lat="48.39699" lon="2.52427">
        <ele>108</ele>
        <time>2012-02-19T08:15:18Z</time>
      </trkpt>
      <trkpt lat="48.39701" lon="2.5238">
        <ele>106</ele>
        <time>2012-02-19T08:15:25Z</time>
      </trkpt>
      <trkpt lat="48.39705" lon="2.52358">
        <ele>106</ele>
        <time>2012-02-19T08:15:30Z</time>
      </trkpt>
      <trkpt lat="48.39709" lon="2.52348">
        <ele>106</ele>
        <time>2012-02-19T08:15:32Z</time>
      </trkpt>
      <trkpt lat="48.3971" lon="2.52327">
        <ele>104</ele>
        <time>2012-02-19T08:15:36Z</time>
      </trkpt>
      <trkpt lat="48.39717" lon="2.52302">
        <ele>104</ele>
        <time>2012-02-19T08:15:41Z</time>
      </trkpt>
      <trkpt lat="48.39735" lon="2.52262">
        <ele>103</ele>
        <time>2012-02-19T08:15:51Z</time>
      </trkpt>
      <trkpt lat="48.39743" lon="2.52239">
        <ele>102</ele>
        <time>2012-02-19T08:15:58Z</time>
      </trkpt>
      <trkpt lat="48.3974" lon="2.52225">
        <ele>103</ele>
        <time>2012-02-19T08:16:02Z</time>
      </trkpt>
      <trkpt lat="48.39731" lon="2.52226">
        <ele>103</ele>
        <time>2012-02-19T08:16:06Z</time>
      </trkpt>
      <trkpt lat="48.3972" lon="2.52211">
        <ele>103</ele>
        <time>2012-02-19T08:16:11Z</time>
      </trkpt>
      <trkpt lat="48.39738" lon="2.52116">
        <ele>100</ele>
        <time>2012-02-19T08:16:27Z</time>
      </trkpt>
      <trkpt lat="48.39757" lon="2.52016">
        <ele>96</ele>
        <time>2012-02-19T08:16:44Z</time>
      </trkpt>
      <trkpt lat="48.39766" lon="2.51973">
        <ele>96</ele>
        <time>2012-02-19T08:16:52Z</time>
      </trkpt>
      <trkpt lat="48.39766" lon="2.51927">
        <ele>99</ele>
        <time>2012-02-19T08:17:01Z</time>
      </trkpt>
      <trkpt lat="48.39771" lon="2.51877">
        <ele>98</ele>
        <time>2012-02-19T08:17:11Z</time>
      </trkpt>
      <trkpt lat="48.3977" lon="2.51872">
        <ele>98</ele>
        <time>2012-02-19T08:17:12Z</time>
      </trkpt>
      <trkpt lat="48.39772" lon="2.51863">
        <ele>98</ele>
        <time>2012-02-19T08:17:15Z</time>
      </trkpt>
      <trkpt lat="48.39769" lon="2.51828">
        <ele>98</ele>
        <time>2012-02-19T08:17:24Z</time>
      </trkpt>
      <trkpt lat="48.39761" lon="2.51821">
        <ele>99</ele>
        <time>2012-02-19T08:17:37Z</time>
      </trkpt>
      <trkpt lat="48.39761" lon="2.51823">
        <ele>99</ele>
        <time>2012-02-19T08:17:41Z</time>
      </trkpt>
      <trkpt lat="48.39755" lon="2.51831">
        <ele>102</ele>
        <time>2012-02-19T08:17:48Z</time>
      </trkpt>
      <trkpt lat="48.39754" lon="2.51832">
        <ele>102</ele>
        <time>2012-02-19T08:17:50Z</time>
      </trkpt>
      <trkpt lat="48.39751" lon="2.51827">
        <ele>102</ele>
        <time>2012-02-19T08:17:54Z</time>
      </trkpt>
      <trkpt lat="48.39744" lon="2.51819">
        <ele>106</ele>
        <time>2012-02-19T08:18:08Z</time>
      </trkpt>
      <trkpt lat="48.3974" lon="2.51815">
        <ele>107</ele>
        <time>2012-02-19T08:18:17Z</time>
      </trkpt>
      <trkpt lat="48.39733" lon="2.5181">
        <ele>107</ele>
        <time>2012-02-19T08:18:29Z</time>
      </trkpt>
      <trkpt lat="48.39729" lon="2.51803">
        <ele>108</ele>
        <time>2012-02-19T08:18:42Z</time>
      </trkpt>
      <trkpt lat="48.39728" lon="2.51798">
        <ele>108</ele>
        <time>2012-02-19T08:18:48Z</time>
      </trkpt>
      <trkpt lat="48.3972" lon="2.51782">
        <ele>108</ele>
        <time>2012-02-19T08:18:55Z</time>
      </trkpt>
      <trkpt lat="48.39716" lon="2.5178">
        <ele>108</ele>
        <time>2012-02-19T08:18:57Z</time>
      </trkpt>
      <trkpt lat="48.39712" lon="2.51766">
        <ele>108</ele>
        <time>2012-02-19T08:19:03Z</time>
      </trkpt>
      <trkpt lat="48.39709" lon="2.51743">
        <ele>103</ele>
        <time>2012-02-19T08:19:10Z</time>
      </trkpt>
      <trkpt lat="48.39705" lon="2.51736">
        <ele>104</ele>
        <time>2012-02-19T08:19:13Z</time>
      </trkpt>
      <trkpt lat="48.39702" lon="2.51729">
        <ele>104</ele>
        <time>2012-02-19T08:19:17Z</time>
      </trkpt>
      <trkpt lat="48.39701" lon="2.51723">
        <ele>103</ele>
        <time>2012-02-19T08:19:22Z</time>
      </trkpt>
      <trkpt lat="48.39698" lon="2.51719">
        <ele>104</ele>
        <time>2012-02-19T08:19:27Z</time>
      </trkpt>
      <trkpt lat="48.39696" lon="2.51712">
        <ele>103</ele>
        <time>2012-02-19T08:19:30Z</time>
      </trkpt>
      <trkpt lat="48.39693" lon="2.51706">
        <ele>103</ele>
        <time>2012-02-19T08:19:33Z</time>
      </trkpt>
      <trkpt lat="48.39686" lon="2.51698">
        <ele>103</ele>
        <time>2012-02-19T08:19:45Z</time>
      </trkpt>
      <trkpt lat="48.39686" lon="2.51698">
        <ele>103</ele>
        <time>2012-02-19T08:19:50Z</time>
      </trkpt>
      <trkpt lat="48.39687" lon="2.51696">
        <ele>103</ele>
        <time>2012-02-19T08:19:52Z</time>
      </trkpt>
      <trkpt lat="48.39684" lon="2.51693">
        <ele>103</ele>
        <time>2012-02-19T08:20:01Z</time>
      </trkpt>
      <trkpt lat="48.39679" lon="2.51693">
        <ele>104</ele>
        <time>2012-02-19T08:20:12Z</time>
      </trkpt>
      <trkpt lat="48.39677" lon="2.51693">
        <ele>104</ele>
        <time>2012-02-19T08:20:15Z</time>
      </trkpt>
      <trkpt lat="48.39669" lon="2.5169">
        <ele>104</ele>
        <time>2012-02-19T08:20:25Z</time>
      </trkpt>
      <trkpt lat="48.39666" lon="2.51684">
        <ele>106</ele>
        <time>2012-02-19T08:20:29Z</time>
      </trkpt>
      <trkpt lat="48.39651" lon="2.51677">
        <ele>106</ele>
        <time>2012-02-19T08:20:36Z</time>
      </trkpt>
      <trkpt lat="48.39641" lon="2.51683">
        <ele>106</ele>
        <time>2012-02-19T08:20:40Z</time>
      </trkpt>
      <trkpt lat="48.39623" lon="2.51687">
        <ele>106</ele>
        <time>2012-02-19T08:20:49Z</time>
      </trkpt>
      <trkpt lat="48.39615" lon="2.51681">
        <ele>105</ele>
        <time>2012-02-19T08:20:53Z</time>
      </trkpt>
      <trkpt lat="48.39611" lon="2.51689">
        <ele>105</ele>
        <time>2012-02-19T08:21:00Z</time>
      </trkpt>
      <trkpt lat="48.39611" lon="2.51694">
        <ele>105</ele>
        <time>2012-02-19T08:21:03Z</time>
      </trkpt>
      <trkpt lat="48.3961" lon="2.517">
        <ele>106</ele>
        <time>2012-02-19T08:21:05Z</time>
      </trkpt>
      <trkpt lat="48.39608" lon="2.51705">
        <ele>106</ele>
        <time>2012-02-19T08:21:10Z</time>
      </trkpt>
      <trkpt lat="48.39606" lon="2.51744">
        <ele>107</ele>
        <time>2012-02-19T08:21:23Z</time>
      </trkpt>
      <trkpt lat="48.39605" lon="2.51753">
        <ele>111</ele>
        <time>2012-02-19T08:21:26Z</time>
      </trkpt>
      <trkpt lat="48.39605" lon="2.51785">
        <ele>113</ele>
        <time>2012-02-19T08:21:37Z</time>
      </trkpt>
      <trkpt lat="48.3961" lon="2.51802">
        <ele>114</ele>
        <time>2012-02-19T08:21:47Z</time>
      </trkpt>
      <trkpt lat="48.3961" lon="2.51802">
        <ele>114</ele>
        <time>2012-02-19T08:21:54Z</time>
      </trkpt>
      <trkpt lat="48.39606" lon="2.5181">
        <ele>114</ele>
        <time>2012-02-19T08:22:04Z</time>
      </trkpt>
      <trkpt lat="48.39604" lon="2.5182">
        <ele>114</ele>
        <time>2012-02-19T08:22:15Z</time>
      </trkpt>
      <trkpt lat="48.39589" lon="2.5184">
        <ele>115</ele>
        <time>2012-02-19T08:22:27Z</time>
      </trkpt>
      <trkpt lat="48.39588" lon="2.51841">
        <ele>115</ele>
        <time>2012-02-19T08:22:28Z</time>
      </trkpt>
      <trkpt lat="48.39585" lon="2.51851">
        <ele>116</ele>
        <time>2012-02-19T08:22:34Z</time>
      </trkpt>
      <trkpt lat="48.39587" lon="2.5186">
        <ele>117</ele>
        <time>2012-02-19T08:22:45Z</time>
      </trkpt>
      <trkpt lat="48.39585" lon="2.51851">
        <ele>116</ele>
        <time>2012-02-19T08:22:53Z</time>
      </trkpt>
      <trkpt lat="48.39582" lon="2.51844">
        <ele>113</ele>
        <time>2012-02-19T08:23:01Z</time>
      </trkpt>
      <trkpt lat="48.39577" lon="2.51853">
        <ele>112</ele>
        <time>2012-02-19T08:23:08Z</time>
      </trkpt>
      <trkpt lat="48.39575" lon="2.51859">
        <ele>112</ele>
        <time>2012-02-19T08:23:14Z</time>
      </trkpt>
      <trkpt lat="48.39577" lon="2.51864">
        <ele>112</ele>
        <time>2012-02-19T08:23:17Z</time>
      </trkpt>
      <trkpt lat="48.39576" lon="2.51894">
        <ele>114</ele>
        <time>2012-02-19T08:23:30Z</time>
      </trkpt>
      <trkpt lat="48.39576" lon="2.51904">
        <ele>115</ele>
        <time>2012-02-19T08:23:34Z</time>
      </trkpt>
      <trkpt lat="48.39577" lon="2.51912">
        <ele>116</ele>
        <time>2012-02-19T08:23:37Z</time>
      </trkpt>
      <trkpt lat="48.39578" lon="2.51926">
        <ele>117</ele>
        <time>2012-02-19T08:23:43Z</time>
      </trkpt>
      <trkpt lat="48.39575" lon="2.51958">
        <ele>116</ele>
        <time>2012-02-19T08:23:55Z</time>
      </trkpt>
      <trkpt lat="48.39571" lon="2.51989">
        <ele>117</ele>
        <time>2012-02-19T08:24:05Z</time>
      </trkpt>
      <trkpt lat="48.3957" lon="2.51995">
        <ele>118</ele>
        <time>2012-02-19T08:24:07Z</time>
      </trkpt>
      <trkpt lat="48.39561" lon="2.52013">
        <ele>119</ele>
        <time>2012-02-19T08:24:15Z</time>
      </trkpt>
      <trkpt lat="48.39553" lon="2.52025">
        <ele>118</ele>
        <time>2012-02-19T08:24:21Z</time>
      </trkpt>
      <trkpt lat="48.39548" lon="2.52036">
        <ele>118</ele>
        <time>2012-02-19T08:24:26Z</time>
      </trkpt>
      <trkpt lat="48.39541" lon="2.52038">
        <ele>118</ele>
        <time>2012-02-19T08:24:31Z</time>
      </trkpt>
      <trkpt lat="48.39535" lon="2.52042">
        <ele>118</ele>
        <time>2012-02-19T08:24:35Z</time>
      </trkpt>
      <trkpt lat="48.39533" lon="2.52045">
        <ele>118</ele>
        <time>2012-02-19T08:24:37Z</time>
      </trkpt>
      <trkpt lat="48.39525" lon="2.52046">
        <ele>118</ele>
        <time>2012-02-19T08:24:42Z</time>
      </trkpt>
      <trkpt lat="48.39516" lon="2.52066">
        <ele>118</ele>
        <time>2012-02-19T08:24:51Z</time>
      </trkpt>
      <trkpt lat="48.39506" lon="2.52081">
        <ele>119</ele>
        <time>2012-02-19T08:24:59Z</time>
      </trkpt>
      <trkpt lat="48.39505" lon="2.52092">
        <ele>120</ele>
        <time>2012-02-19T08:25:03Z</time>
      </trkpt>
      <trkpt lat="48.39502" lon="2.52105">
        <ele>120</ele>
        <time>2012-02-19T08:25:07Z</time>
      </trkpt>
      <trkpt lat="48.39498" lon="2.52124">
        <ele>118</ele>
        <time>2012-02-19T08:25:13Z</time>
      </trkpt>
      <trkpt lat="48.39492" lon="2.52131">
        <ele>118</ele>
        <time>2012-02-19T08:25:17Z</time>
      </trkpt>
      <trkpt lat="48.39483" lon="2.52129">
        <ele>118</ele>
        <time>2012-02-19T08:25:21Z</time>
      </trkpt>
      <trkpt lat="48.39468" lon="2.52159">
        <ele>118</ele>
        <time>2012-02-19T08:25:33Z</time>
      </trkpt>
      <trkpt lat="48.39464" lon="2.52173">
        <ele>118</ele>
        <time>2012-02-19T08:25:36Z</time>
      </trkpt>
      <trkpt lat="48.39448" lon="2.52205">
        <ele>117</ele>
        <time>2012-02-19T08:25:47Z</time>
      </trkpt>
      <trkpt lat="48.3944" lon="2.52219">
        <ele>117</ele>
        <time>2012-02-19T08:25:52Z</time>
      </trkpt>
      <trkpt lat="48.39431" lon="2.52225">
        <ele>117</ele>
        <time>2012-02-19T08:25:57Z</time>
      </trkpt>
      <trkpt lat="48.39426" lon="2.52229">
        <ele>116</ele>
        <time>2012-02-19T08:25:59Z</time>
      </trkpt>
      <trkpt lat="48.39413" lon="2.52228">
        <ele>111</ele>
        <time>2012-02-19T08:26:06Z</time>
      </trkpt>
      <trkpt lat="48.39408" lon="2.52228">
        <ele>111</ele>
        <time>2012-02-19T08:26:16Z</time>
      </trkpt>
      <trkpt lat="48.39401" lon="2.52226">
        <ele>110</ele>
        <time>2012-02-19T08:26:30Z</time>
      </trkpt>
      <trkpt lat="48.39398" lon="2.52228">
        <ele>110</ele>
        <time>2012-02-19T08:26:46Z</time>
      </trkpt>
      <trkpt lat="48.39383" lon="2.52234">
        <ele>109</ele>
        <time>2012-02-19T08:27:23Z</time>
      </trkpt>
      <trkpt lat="48.3938" lon="2.52236">
        <ele>109</ele>
        <time>2012-02-19T08:27:35Z</time>
      </trkpt>
      <trkpt lat="48.39379" lon="2.52249">
        <ele>109</ele>
        <time>2012-02-19T08:27:49Z</time>
      </trkpt>
      <trkpt lat="48.39379" lon="2.52249">
        <ele>109</ele>
        <time>2012-02-19T08:28:58Z</time>
      </trkpt>
      <trkpt lat="48.39374" lon="2.5226">
        <ele>108</ele>
        <time>2012-02-19T08:29:03Z</time>
      </trkpt>
      <trkpt lat="48.39373" lon="2.52271">
        <ele>108</ele>
        <time>2012-02-19T08:29:07Z</time>
      </trkpt>
      <trkpt lat="48.39374" lon="2.52278">
        <ele>108</ele>
        <time>2012-02-19T08:29:09Z</time>
      </trkpt>
      <trkpt lat="48.3937" lon="2.52287">
        <ele>108</ele>
        <time>2012-02-19T08:29:12Z</time>
      </trkpt>
      <trkpt lat="48.3937" lon="2.52298">
        <ele>108</ele>
        <time>2012-02-19T08:29:16Z</time>
      </trkpt>
      <trkpt lat="48.39364" lon="2.52319">
        <ele>107</ele>
        <time>2012-02-19T08:29:22Z</time>
      </trkpt>
      <trkpt lat="48.39364" lon="2.52337">
        <ele>107</ele>
        <time>2012-02-19T08:29:27Z</time>
      </trkpt>
      <trkpt lat="48.39365" lon="2.52347">
        <ele>107</ele>
        <time>2012-02-19T08:29:30Z</time>
      </trkpt>
      <trkpt lat="48.39366" lon="2.52368">
        <ele>108</ele>
        <time>2012-02-19T08:29:36Z</time>
      </trkpt>
      <trkpt lat="48.39357" lon="2.52393">
        <ele>107</ele>
        <time>2012-02-19T08:29:42Z</time>
      </trkpt>
      <trkpt lat="48.39362" lon="2.5241">
        <ele>107</ele>
        <time>2012-02-19T08:29:47Z</time>
      </trkpt>
      <trkpt lat="48.39367" lon="2.52431">
        <ele>108</ele>
        <time>2012-02-19T08:29:52Z</time>
      </trkpt>
      <trkpt lat="48.39375" lon="2.52443">
        <ele>109</ele>
        <time>2012-02-19T08:29:55Z</time>
      </trkpt>
      <trkpt lat="48.39385" lon="2.52461">
        <ele>110</ele>
        <time>2012-02-19T08:30:01Z</time>
      </trkpt>
      <trkpt lat="48.39389" lon="2.5246">
        <ele>110</ele>
        <time>2012-02-19T08:30:12Z</time>
      </trkpt>
      <trkpt lat="48.3939" lon="2.5246">
        <ele>110</ele>
        <time>2012-02-19T08:30:13Z</time>
      </trkpt>
      <trkpt lat="48.39392" lon="2.52467">
        <ele>110</ele>
        <time>2012-02-19T08:30:20Z</time>
      </trkpt>
      <trkpt lat="48.39393" lon="2.52471">
        <ele>110</ele>
        <time>2012-02-19T08:30:22Z</time>
      </trkpt>
      <trkpt lat="48.39395" lon="2.52475">
        <ele>111</ele>
        <time>2012-02-19T08:30:34Z</time>
      </trkpt>
      <trkpt lat="48.39399" lon="2.5248">
        <ele>112</ele>
        <time>2012-02-19T08:30:46Z</time>
      </trkpt>
      <trkpt lat="48.39399" lon="2.52486">
        <ele>112</ele>
        <time>2012-02-19T08:30:51Z</time>
      </trkpt>
      <trkpt lat="48.39398" lon="2.52501">
        <ele>113</ele>
        <time>2012-02-19T08:31:01Z</time>
      </trkpt>
      <trkpt lat="48.39404" lon="2.52515">
        <ele>113</ele>
        <time>2012-02-19T08:31:09Z</time>
      </trkpt>
      <trkpt lat="48.39403" lon="2.52539">
        <ele>113</ele>
        <time>2012-02-19T08:31:17Z</time>
      </trkpt>
      <trkpt lat="48.39397" lon="2.52565">
        <ele>113</ele>
        <time>2012-02-19T08:31:22Z</time>
      </trkpt>
      <trkpt lat="48.39398" lon="2.52599">
        <ele>115</ele>
        <time>2012-02-19T08:31:30Z</time>
      </trkpt>
      <trkpt lat="48.39396" lon="2.52623">
        <ele>115</ele>
        <time>2012-02-19T08:31:34Z</time>
      </trkpt>
      <trkpt lat="48.39383" lon="2.52657">
        <ele>115</ele>
        <time>2012-02-19T08:31:41Z</time>
      </trkpt>
      <trkpt lat="48.39382" lon="2.52681">
        <ele>118</ele>
        <time>2012-02-19T08:31:45Z</time>
      </trkpt>
      <trkpt lat="48.39376" lon="2.52697">
        <ele>118</ele>
        <time>2012-02-19T08:31:55Z</time>
      </trkpt>
      <trkpt lat="48.39377" lon="2.52699">
        <ele>118</ele>
        <time>2012-02-19T08:32:22Z</time>
      </trkpt>
      <trkpt lat="48.39376" lon="2.52706">
        <ele>118</ele>
        <time>2012-02-19T08:32:26Z</time>
      </trkpt>
      <trkpt lat="48.39357" lon="2.52699">
        <ele>117</ele>
        <time>2012-02-19T08:32:34Z</time>
      </trkpt>
      <trkpt lat="48.39342" lon="2.52725">
        <ele>117</ele>
        <time>2012-02-19T08:32:43Z</time>
      </trkpt>
      <trkpt lat="48.39341" lon="2.52734">
        <ele>117</ele>
        <time>2012-02-19T08:32:47Z</time>
      </trkpt>
      <trkpt lat="48.39339" lon="2.5274">
        <ele>117</ele>
        <time>2012-02-19T08:32:50Z</time>
      </trkpt>
      <trkpt lat="48.39345" lon="2.5275">
        <ele>117</ele>
        <time>2012-02-19T08:33:02Z</time>
      </trkpt>
      <trkpt lat="48.39344" lon="2.52759">
        <ele>118</ele>
        <time>2012-02-19T08:33:06Z</time>
      </trkpt>
      <trkpt lat="48.39333" lon="2.52775">
        <ele>117</ele>
        <time>2012-02-19T08:33:14Z</time>
      </trkpt>
      <trkpt lat="48.39321" lon="2.52776">
        <ele>118</ele>
        <time>2012-02-19T08:33:21Z</time>
      </trkpt>
      <trkpt lat="48.39308" lon="2.5279">
        <ele>118</ele>
        <time>2012-02-19T08:33:31Z</time>
      </trkpt>
      <trkpt lat="48.393" lon="2.52795">
        <ele>118</ele>
        <time>2012-02-19T08:33:44Z</time>
      </trkpt>
      <trkpt lat="48.39299" lon="2.52795">
        <ele>118</ele>
        <time>2012-02-19T08:33:52Z</time>
      </trkpt>
      <trkpt lat="48.39298" lon="2.52801">
        <ele>118</ele>
        <time>2012-02-19T08:33:56Z</time>
      </trkpt>
      <trkpt lat="48.39296" lon="2.52801">
        <ele>118</ele>
        <time>2012-02-19T08:34:01Z</time>
      </trkpt>
      <trkpt lat="48.3929" lon="2.52792">
        <ele>118</ele>
        <time>2012-02-19T08:34:13Z</time>
      </trkpt>
      <trkpt lat="48.39286" lon="2.52794">
        <ele>118</ele>
        <time>2012-02-19T08:34:23Z</time>
      </trkpt>
      <trkpt lat="48.39271" lon="2.52787">
        <ele>118</ele>
        <time>2012-02-19T08:34:34Z</time>
      </trkpt>
      <trkpt lat="48.39264" lon="2.52779">
        <ele>118</ele>
        <time>2012-02-19T08:34:38Z</time>
      </trkpt>
      <trkpt lat="48.39257" lon="2.52768">
        <ele>117</ele>
        <time>2012-02-19T08:34:42Z</time>
      </trkpt>
      <trkpt lat="48.3925" lon="2.52765">
        <ele>117</ele>
        <time>2012-02-19T08:34:46Z</time>
      </trkpt>
      <trkpt lat="48.39246" lon="2.52764">
        <ele>116</ele>
        <time>2012-02-19T08:34:50Z</time>
      </trkpt>
      <trkpt lat="48.3924" lon="2.52758">
        <ele>116</ele>
        <time>2012-02-19T08:34:53Z</time>
      </trkpt>
      <trkpt lat="48.39234" lon="2.52757">
        <ele>116</ele>
        <time>2012-02-19T08:34:55Z</time>
      </trkpt>
      <trkpt lat="48.39211" lon="2.52748">
        <ele>114</ele>
        <time>2012-02-19T08:35:05Z</time>
      </trkpt>
      <trkpt lat="48.39202" lon="2.52748">
        <ele>113</ele>
        <time>2012-02-19T08:35:15Z</time>
      </trkpt>
      <trkpt lat="48.3919" lon="2.52747">
        <ele>112</ele>
        <time>2012-02-19T08:35:26Z</time>
      </trkpt>
      <trkpt lat="48.39187" lon="2.52749">
        <ele>112</ele>
        <time>2012-02-19T08:35:40Z</time>
      </trkpt>
      <trkpt lat="48.39183" lon="2.52748">
        <ele>112</ele>
        <time>2012-02-19T08:35:52Z</time>
      </trkpt>
      <trkpt lat="48.39182" lon="2.52748">
        <ele>112</ele>
        <time>2012-02-19T08:35:53Z</time>
      </trkpt>
      <trkpt lat="48.39173" lon="2.52746">
        <ele>112</ele>
        <time>2012-02-19T08:36:05Z</time>
      </trkpt>
      <trkpt lat="48.39173" lon="2.52747">
        <ele>112</ele>
        <time>2012-02-19T08:36:22Z</time>
      </trkpt>
      <trkpt lat="48.3917" lon="2.52755">
        <ele>112</ele>
        <time>2012-02-19T08:36:38Z</time>
      </trkpt>
      <trkpt lat="48.3917" lon="2.52757">
        <ele>112</ele>
        <time>2012-02-19T08:36:39Z</time>
      </trkpt>
      <trkpt lat="48.39168" lon="2.52761">
        <ele>112</ele>
        <time>2012-02-19T08:36:41Z</time>
      </trkpt>
      <trkpt lat="48.39166" lon="2.52773">
        <ele>113</ele>
        <time>2012-02-19T08:36:46Z</time>
      </trkpt>
      <trkpt lat="48.39164" lon="2.52778">
        <ele>114</ele>
        <time>2012-02-19T08:36:48Z</time>
      </trkpt>
      <trkpt lat="48.39156" lon="2.52818">
        <ele>114</ele>
        <time>2012-02-19T08:37:02Z</time>
      </trkpt>
      <trkpt lat="48.39148" lon="2.52853">
        <ele>114</ele>
        <time>2012-02-19T08:37:14Z</time>
      </trkpt>
      <trkpt lat="48.39143" lon="2.52892">
        <ele>114</ele>
        <time>2012-02-19T08:37:26Z</time>
      </trkpt>
      <trkpt lat="48.39143" lon="2.52902">
        <ele>114</ele>
        <time>2012-02-19T08:37:29Z</time>
      </trkpt>
      <trkpt lat="48.39141" lon="2.52936">
        <ele>114</ele>
        <time>2012-02-19T08:37:40Z</time>
      </trkpt>
      <trkpt lat="48.39133" lon="2.52959">
        <ele>114</ele>
        <time>2012-02-19T08:37:48Z</time>
      </trkpt>
      <trkpt lat="48.39132" lon="2.52968">
        <ele>114</ele>
        <time>2012-02-19T08:37:50Z</time>
      </trkpt>
      <trkpt lat="48.39122" lon="2.53005">
        <ele>115</ele>
        <time>2012-02-19T08:38:02Z</time>
      </trkpt>
      <trkpt lat="48.39119" lon="2.53059">
        <ele>115</ele>
        <time>2012-02-19T08:38:15Z</time>
      </trkpt>
      <trkpt lat="48.39118" lon="2.53135">
        <ele>116</ele>
        <time>2012-02-19T08:38:30Z</time>
      </trkpt>
      <trkpt lat="48.39119" lon="2.5314">
        <ele>116</ele>
        <time>2012-02-19T08:38:31Z</time>
      </trkpt>
      <trkpt lat="48.39131" lon="2.53168">
        <ele>117</ele>
        <time>2012-02-19T08:38:38Z</time>
      </trkpt>
      <trkpt lat="48.39141" lon="2.53192">
        <ele>117</ele>
        <time>2012-02-19T08:38:44Z</time>
      </trkpt>
      <trkpt lat="48.39175" lon="2.53268">
        <ele>120</ele>
        <time>2012-02-19T08:39:02Z</time>
      </trkpt>
      <trkpt lat="48.39202" lon="2.53329">
        <ele>122</ele>
        <time>2012-02-19T08:39:17Z</time>
      </trkpt>
      <trkpt lat="48.39206" lon="2.53376">
        <ele>122</ele>
        <time>2012-02-19T08:39:29Z</time>
      </trkpt>
      <trkpt lat="48.39203" lon="2.53399">
        <ele>122</ele>
        <time>2012-02-19T08:39:33Z</time>
      </trkpt>
      <trkpt lat="48.39207" lon="2.53469">
        <ele>122</ele>
        <time>2012-02-19T08:39:45Z</time>
      </trkpt>
      <trkpt lat="48.3921" lon="2.53488">
        <ele>122</ele>
        <time>2012-02-19T08:39:48Z</time>
      </trkpt>
      <trkpt lat="48.3921" lon="2.53508">
        <ele>120</ele>
        <time>2012-02-19T08:39:51Z</time>
      </trkpt>
      <trkpt lat="48.39215" lon="2.53537">
        <ele>120</ele>
        <time>2012-02-19T08:39:56Z</time>
      </trkpt>
      <trkpt lat="48.39209" lon="2.5356">
        <ele>120</ele>
        <time>2012-02-19T08:40:00Z</time>
      </trkpt>
      <trkpt lat="48.39211" lon="2.53587">
        <ele>118</ele>
        <time>2012-02-19T08:40:04Z</time>
      </trkpt>
      <trkpt lat="48.39206" lon="2.53623">
        <ele>117</ele>
        <time>2012-02-19T08:40:08Z</time>
      </trkpt>
      <trkpt lat="48.39195" lon="2.53699">
        <ele>115</ele>
        <time>2012-02-19T08:40:17Z</time>
      </trkpt>
      <trkpt lat="48.39197" lon="2.5371">
        <ele>115</ele>
        <time>2012-02-19T08:40:18Z</time>
      </trkpt>
      <trkpt lat="48.39191" lon="2.53725">
        <ele>114</ele>
        <time>2012-02-19T08:40:20Z</time>
      </trkpt>
      <trkpt lat="48.39186" lon="2.53765">
        <ele>112</ele>
        <time>2012-02-19T08:40:25Z</time>
      </trkpt>
      <trkpt lat="48.3917" lon="2.53815">
        <ele>110</ele>
        <time>2012-02-19T08:40:31Z</time>
      </trkpt>
      <trkpt lat="48.3916" lon="2.53854">
        <ele>105</ele>
        <time>2012-02-19T08:40:35Z</time>
      </trkpt>
      <trkpt lat="48.39159" lon="2.53884">
        <ele>104</ele>
        <time>2012-02-19T08:40:38Z</time>
      </trkpt>
      <trkpt lat="48.39152" lon="2.5391">
        <ele>103</ele>
        <time>2012-02-19T08:40:41Z</time>
      </trkpt>
      <trkpt lat="48.39145" lon="2.53964">
        <ele>101</ele>
        <time>2012-02-19T08:40:47Z</time>
      </trkpt>
      <trkpt lat="48.39136" lon="2.54018">
        <ele>98</ele>
        <time>2012-02-19T08:40:53Z</time>
      </trkpt>
      <trkpt lat="48.39135" lon="2.54042">
        <ele>98</ele>
        <time>2012-02-19T08:40:56Z</time>
      </trkpt>
      <trkpt lat="48.39129" lon="2.54067">
        <ele>97</ele>
        <time>2012-02-19T08:40:59Z</time>
      </trkpt>
      <trkpt lat="48.39126" lon="2.54092">
        <ele>96</ele>
        <time>2012-02-19T08:41:02Z</time>
      </trkpt>
      <trkpt lat="48.39119" lon="2.54134">
        <ele>96</ele>
        <time>2012-02-19T08:41:07Z</time>
      </trkpt>
      <trkpt lat="48.39111" lon="2.54188">
        <ele>96</ele>
        <time>2012-02-19T08:41:15Z</time>
      </trkpt>
      <trkpt lat="48.39111" lon="2.54194">
        <ele>96</ele>
        <time>2012-02-19T08:41:16Z</time>
      </trkpt>
      <trkpt lat="48.39104" lon="2.54222">
        <ele>96</ele>
        <time>2012-02-19T08:41:21Z</time>
      </trkpt>
      <trkpt lat="48.39105" lon="2.54239">
        <ele>95</ele>
        <time>2012-02-19T08:41:24Z</time>
      </trkpt>
      <trkpt lat="48.39098" lon="2.54265">
        <ele>95</ele>
        <time>2012-02-19T08:41:29Z</time>
      </trkpt>
      <trkpt lat="48.39094" lon="2.54306">
        <ele>95</ele>
        <time>2012-02-19T08:41:35Z</time>
      </trkpt>
      <trkpt lat="48.39087" lon="2.54335">
        <ele>93</ele>
        <time>2012-02-19T08:41:40Z</time>
      </trkpt>
      <trkpt lat="48.39086" lon="2.54365">
        <ele>94</ele>
        <time>2012-02-19T08:41:44Z</time>
      </trkpt>
      <trkpt lat="48.39075" lon="2.54407">
        <ele>90</ele>
        <time>2012-02-19T08:41:50Z</time>
      </trkpt>
      <trkpt lat="48.39076" lon="2.54435">
        <ele>88</ele>
        <time>2012-02-19T08:41:54Z</time>
      </trkpt>
      <trkpt lat="48.39072" lon="2.54457">
        <ele>88</ele>
        <time>2012-02-19T08:41:57Z</time>
      </trkpt>
      <trkpt lat="48.39062" lon="2.54492">
        <ele>87</ele>
        <time>2012-02-19T08:42:02Z</time>
      </trkpt>
      <trkpt lat="48.39058" lon="2.54518">
        <ele>85</ele>
        <time>2012-02-19T08:42:06Z</time>
      </trkpt>
      <trkpt lat="48.39059" lon="2.54544">
        <ele>84</ele>
        <time>2012-02-19T08:42:10Z</time>
      </trkpt>
      <trkpt lat="48.39053" lon="2.54612">
        <ele>82</ele>
        <time>2012-02-19T08:42:18Z</time>
      </trkpt>
      <trkpt lat="48.39053" lon="2.54682">
        <ele>82</ele>
        <time>2012-02-19T08:42:26Z</time>
      </trkpt>
      <trkpt lat="48.3906" lon="2.54751">
        <ele>81</ele>
        <time>2012-02-19T08:42:33Z</time>
      </trkpt>
      <trkpt lat="48.39088" lon="2.54832">
        <ele>80</ele>
        <time>2012-02-19T08:42:42Z</time>
      </trkpt>
      <trkpt lat="48.39092" lon="2.54849">
        <ele>80</ele>
        <time>2012-02-19T08:42:44Z</time>
      </trkpt>
      <trkpt lat="48.39097" lon="2.54873">
        <ele>79</ele>
        <time>2012-02-19T08:42:47Z</time>
      </trkpt>
      <trkpt lat="48.39091" lon="2.5493">
        <ele>78</ele>
        <time>2012-02-19T08:42:55Z</time>
      </trkpt>
      <trkpt lat="48.39085" lon="2.54942">
        <ele>78</ele>
        <time>2012-02-19T08:42:57Z</time>
      </trkpt>
      <trkpt lat="48.3906" lon="2.5504">
        <ele>79</ele>
        <time>2012-02-19T08:43:13Z</time>
      </trkpt>
      <trkpt lat="48.39058" lon="2.55081">
        <ele>79</ele>
        <time>2012-02-19T08:43:20Z</time>
      </trkpt>
      <trkpt lat="48.39051" lon="2.55159">
        <ele>79</ele>
        <time>2012-02-19T08:43:33Z</time>
      </trkpt>
      <trkpt lat="48.39045" lon="2.55226">
        <ele>79</ele>
        <time>2012-02-19T08:43:46Z</time>
      </trkpt>
      <trkpt lat="48.39042" lon="2.55244">
        <ele>79</ele>
        <time>2012-02-19T08:43:49Z</time>
      </trkpt>
      <trkpt lat="48.39036" lon="2.55339">
        <ele>76</ele>
        <time>2012-02-19T08:44:02Z</time>
      </trkpt>
      <trkpt lat="48.39035" lon="2.55362">
        <ele>76</ele>
        <time>2012-02-19T08:44:05Z</time>
      </trkpt>
      <trkpt lat="48.39032" lon="2.5538">
        <ele>76</ele>
        <time>2012-02-19T08:44:08Z</time>
      </trkpt>
      <trkpt lat="48.39028" lon="2.554">
        <ele>76</ele>
        <time>2012-02-19T08:44:11Z</time>
      </trkpt>
      <trkpt lat="48.39018" lon="2.55419">
        <ele>75</ele>
        <time>2012-02-19T08:44:15Z</time>
      </trkpt>
      <trkpt lat="48.39009" lon="2.55431">
        <ele>76</ele>
        <time>2012-02-19T08:44:18Z</time>
      </trkpt>
      <trkpt lat="48.38991" lon="2.55464">
        <ele>77</ele>
        <time>2012-02-19T08:44:24Z</time>
      </trkpt>
      <trkpt lat="48.38989" lon="2.55493">
        <ele>76</ele>
        <time>2012-02-19T08:44:28Z</time>
      </trkpt>
      <trkpt lat="48.39004" lon="2.55548">
        <ele>76</ele>
        <time>2012-02-19T08:44:35Z</time>
      </trkpt>
      <trkpt lat="48.39012" lon="2.55602">
        <ele>76</ele>
        <time>2012-02-19T08:44:41Z</time>
      </trkpt>
      <trkpt lat="48.39073" lon="2.5572">
        <ele>76</ele>
        <time>2012-02-19T08:44:58Z</time>
      </trkpt>
      <trkpt lat="48.39098" lon="2.55754">
        <ele>76</ele>
        <time>2012-02-19T08:45:08Z</time>
      </trkpt>
      <trkpt lat="48.39133" lon="2.55771">
        <ele>77</ele>
        <time>2012-02-19T08:45:20Z</time>
      </trkpt>
      <trkpt lat="48.39145" lon="2.55767">
        <ele>77</ele>
        <time>2012-02-19T08:45:27Z</time>
      </trkpt>
      <trkpt lat="48.39151" lon="2.55758">
        <ele>77</ele>
        <time>2012-02-19T08:45:32Z</time>
      </trkpt>
      <trkpt lat="48.3916" lon="2.55756">
        <ele>76</ele>
        <time>2012-02-19T08:45:36Z</time>
      </trkpt>
      <trkpt lat="48.39166" lon="2.55761">
        <ele>76</ele>
        <time>2012-02-19T08:45:44Z</time>
      </trkpt>
      <trkpt lat="48.39181" lon="2.55771">
        <ele>80</ele>
        <time>2012-02-19T08:45:52Z</time>
      </trkpt>
      <trkpt lat="48.39184" lon="2.5578">
        <ele>81</ele>
        <time>2012-02-19T08:45:56Z</time>
      </trkpt>
      <trkpt lat="48.39186" lon="2.55787">
        <ele>81</ele>
        <time>2012-02-19T08:45:59Z</time>
      </trkpt>
      <trkpt lat="48.39189" lon="2.55788">
        <ele>81</ele>
        <time>2012-02-19T08:46:01Z</time>
      </trkpt>
      <trkpt lat="48.39182" lon="2.55821">
        <ele>81</ele>
        <time>2012-02-19T08:46:10Z</time>
      </trkpt>
      <trkpt lat="48.39158" lon="2.55904">
        <ele>81</ele>
        <time>2012-02-19T08:46:26Z</time>
      </trkpt>
      <trkpt lat="48.39152" lon="2.55979">
        <ele>82</ele>
        <time>2012-02-19T08:46:40Z</time>
      </trkpt>
      <trkpt lat="48.39148" lon="2.5605">
        <ele>84</ele>
        <time>2012-02-19T08:46:54Z</time>
      </trkpt>
      <trkpt lat="48.39142" lon="2.56112">
        <ele>86</ele>
        <time>2012-02-19T08:47:06Z</time>
      </trkpt>
      <trkpt lat="48.39145" lon="2.56139">
        <ele>87</ele>
        <time>2012-02-19T08:47:12Z</time>
      </trkpt>
      <trkpt lat="48.39153" lon="2.5615">
        <ele>87</ele>
        <time>2012-02-19T08:47:17Z</time>
      </trkpt>
      <trkpt lat="48.39157" lon="2.5615">
        <ele>87</ele>
        <time>2012-02-19T08:47:19Z</time>
      </trkpt>
      <trkpt lat="48.39164" lon="2.56161">
        <ele>88</ele>
        <time>2012-02-19T08:47:24Z</time>
      </trkpt>
      <trkpt lat="48.39171" lon="2.56169">
        <ele>90</ele>
        <time>2012-02-19T08:47:29Z</time>
      </trkpt>
      <trkpt lat="48.39173" lon="2.56187">
        <ele>93</ele>
        <time>2012-02-19T08:47:38Z</time>
      </trkpt>
      <trkpt lat="48.39172" lon="2.5619">
        <ele>93</ele>
        <time>2012-02-19T08:47:53Z</time>
      </trkpt>
      <trkpt lat="48.39171" lon="2.56185">
        <ele>92</ele>
        <time>2012-02-19T08:48:11Z</time>
      </trkpt>
      <trkpt lat="48.39172" lon="2.56181">
        <ele>92</ele>
        <time>2012-02-19T08:48:23Z</time>
      </trkpt>
      <trkpt lat="48.39174" lon="2.56179">
        <ele>92</ele>
        <time>2012-02-19T08:48:32Z</time>
      </trkpt>
      <trkpt lat="48.39176" lon="2.56176">
        <ele>91</ele>
        <time>2012-02-19T08:48:46Z</time>
      </trkpt>
      <trkpt lat="48.39178" lon="2.56178">
        <ele>92</ele>
        <time>2012-02-19T08:48:56Z</time>
      </trkpt>
      <trkpt lat="48.39179" lon="2.56177">
        <ele>92</ele>
        <time>2012-02-19T08:49:00Z</time>
      </trkpt>
      <trkpt lat="48.39186" lon="2.5618">
        <ele>93</ele>
        <time>2012-02-19T08:49:12Z</time>
      </trkpt>
      <trkpt lat="48.39187" lon="2.56181">
        <ele>94</ele>
        <time>2012-02-19T08:49:14Z</time>
      </trkpt>
      <trkpt lat="48.39187" lon="2.56185">
        <ele>94</ele>
        <time>2012-02-19T08:49:27Z</time>
      </trkpt>
      <trkpt lat="48.39189" lon="2.56195">
        <ele>95</ele>
        <time>2012-02-19T08:49:39Z</time>
      </trkpt>
      <trkpt lat="48.39189" lon="2.56196">
        <ele>95</ele>
        <time>2012-02-19T08:49:40Z</time>
      </trkpt>
      <trkpt lat="48.39192" lon="2.56199">
        <ele>95</ele>
        <time>2012-02-19T08:49:50Z</time>
      </trkpt>
      <trkpt lat="48.39195" lon="2.56211">
        <ele>96</ele>
        <time>2012-02-19T08:50:01Z</time>
      </trkpt>
      <trkpt lat="48.39195" lon="2.56211">
        <ele>96</ele>
        <time>2012-02-19T08:50:02Z</time>
      </trkpt>
      <trkpt lat="48.39201" lon="2.5621">
        <ele>96</ele>
        <time>2012-02-19T08:50:09Z</time>
      </trkpt>
      <trkpt lat="48.39212" lon="2.56209">
        <ele>97</ele>
        <time>2012-02-19T08:50:22Z</time>
      </trkpt>
      <trkpt lat="48.39216" lon="2.56221">
        <ele>98</ele>
        <time>2012-02-19T08:50:35Z</time>
      </trkpt>
      <trkpt lat="48.39218" lon="2.56221">
        <ele>98</ele>
        <time>2012-02-19T08:50:37Z</time>
      </trkpt>
      <trkpt lat="48.39227" lon="2.56227">
        <ele>99</ele>
        <time>2012-02-19T08:50:49Z</time>
      </trkpt>
      <trkpt lat="48.39229" lon="2.56233">
        <ele>100</ele>
        <time>2012-02-19T08:51:00Z</time>
      </trkpt>
      <trkpt lat="48.39235" lon="2.56246">
        <ele>102</ele>
        <time>2012-02-19T08:51:17Z</time>
      </trkpt>
      <trkpt lat="48.39235" lon="2.56255">
        <ele>104</ele>
        <time>2012-02-19T08:51:29Z</time>
      </trkpt>
      <trkpt lat="48.3924" lon="2.56256">
        <ele>105</ele>
        <time>2012-02-19T08:51:39Z</time>
      </trkpt>
      <trkpt lat="48.39246" lon="2.56263">
        <ele>105</ele>
        <time>2012-02-19T08:51:52Z</time>
      </trkpt>
      <trkpt lat="48.39245" lon="2.56274">
        <ele>104</ele>
        <time>2012-02-19T08:52:04Z</time>
      </trkpt>
      <trkpt lat="48.39243" lon="2.56284">
        <ele>104</ele>
        <time>2012-02-19T08:52:17Z</time>
      </trkpt>
      <trkpt lat="48.39244" lon="2.56287">
        <ele>104</ele>
        <time>2012-02-19T08:52:19Z</time>
      </trkpt>
      <trkpt lat="48.39243" lon="2.56297">
        <ele>105</ele>
        <time>2012-02-19T08:52:28Z</time>
      </trkpt>
      <trkpt lat="48.39244" lon="2.56298">
        <ele>105</ele>
        <time>2012-02-19T08:52:29Z</time>
      </trkpt>
      <trkpt lat="48.39247" lon="2.56302">
        <ele>105</ele>
        <time>2012-02-19T08:52:33Z</time>
      </trkpt>
      <trkpt lat="48.39251" lon="2.56312">
        <ele>106</ele>
        <time>2012-02-19T08:52:50Z</time>
      </trkpt>
      <trkpt lat="48.3925" lon="2.56312">
        <ele>107</ele>
        <time>2012-02-19T08:53:53Z</time>
      </trkpt>
      <trkpt lat="48.3925" lon="2.56313">
        <ele>107</ele>
        <time>2012-02-19T08:54:35Z</time>
      </trkpt>
      <trkpt lat="48.39249" lon="2.56316">
        <ele>107</ele>
        <time>2012-02-19T08:56:40Z</time>
      </trkpt>
      <trkpt lat="48.3925" lon="2.5635">
        <ele>107</ele>
        <time>2012-02-19T08:56:52Z</time>
      </trkpt>
      <trkpt lat="48.39249" lon="2.56353">
        <ele>109</ele>
        <time>2012-02-19T08:56:53Z</time>
      </trkpt>
      <trkpt lat="48.39242" lon="2.56374">
        <ele>108</ele>
        <time>2012-02-19T08:57:05Z</time>
      </trkpt>
      <trkpt lat="48.39242" lon="2.56379">
        <ele>108</ele>
        <time>2012-02-19T08:57:07Z</time>
      </trkpt>
      <trkpt lat="48.3924" lon="2.56389">
        <ele>108</ele>
        <time>2012-02-19T08:57:10Z</time>
      </trkpt>
      <trkpt lat="48.39242" lon="2.56403">
        <ele>110</ele>
        <time>2012-02-19T08:57:15Z</time>
      </trkpt>
      <trkpt lat="48.39243" lon="2.56408">
        <ele>110</ele>
        <time>2012-02-19T08:57:17Z</time>
      </trkpt>
      <trkpt lat="48.39239" lon="2.5642">
        <ele>111</ele>
        <time>2012-02-19T08:57:21Z</time>
      </trkpt>
      <trkpt lat="48.39241" lon="2.5644">
        <ele>111</ele>
        <time>2012-02-19T08:57:27Z</time>
      </trkpt>
      <trkpt lat="48.39237" lon="2.56469">
        <ele>111</ele>
        <time>2012-02-19T08:57:37Z</time>
      </trkpt>
      <trkpt lat="48.39222" lon="2.56485">
        <ele>110</ele>
        <time>2012-02-19T08:57:48Z</time>
      </trkpt>
      <trkpt lat="48.39206" lon="2.56491">
        <ele>109</ele>
        <time>2012-02-19T08:57:54Z</time>
      </trkpt>
      <trkpt lat="48.39203" lon="2.56498">
        <ele>109</ele>
        <time>2012-02-19T08:57:57Z</time>
      </trkpt>
      <trkpt lat="48.39203" lon="2.56514">
        <ele>110</ele>
        <time>2012-02-19T08:58:02Z</time>
      </trkpt>
      <trkpt lat="48.39201" lon="2.56528">
        <ele>110</ele>
        <time>2012-02-19T08:58:05Z</time>
      </trkpt>
      <trkpt lat="48.39206" lon="2.56571">
        <ele>110</ele>
        <time>2012-02-19T08:58:14Z</time>
      </trkpt>
      <trkpt lat="48.39205" lon="2.56575">
        <ele>110</ele>
        <time>2012-02-19T08:58:15Z</time>
      </trkpt>
      <trkpt lat="48.39204" lon="2.56586">
        <ele>111</ele>
        <time>2012-02-19T08:58:18Z</time>
      </trkpt>
      <trkpt lat="48.39205" lon="2.56629">
        <ele>111</ele>
        <time>2012-02-19T08:58:29Z</time>
      </trkpt>
      <trkpt lat="48.39198" lon="2.56665">
        <ele>111</ele>
        <time>2012-02-19T08:58:41Z</time>
      </trkpt>
      <trkpt lat="48.39196" lon="2.56672">
        <ele>112</ele>
        <time>2012-02-19T08:58:52Z</time>
      </trkpt>
      <trkpt lat="48.39196" lon="2.56678">
        <ele>112</ele>
        <time>2012-02-19T08:58:58Z</time>
      </trkpt>
      <trkpt lat="48.39194" lon="2.56711">
        <ele>113</ele>
        <time>2012-02-19T08:59:08Z</time>
      </trkpt>
      <trkpt lat="48.39194" lon="2.56715">
        <ele>113</ele>
        <time>2012-02-19T08:59:09Z</time>
      </trkpt>
      <trkpt lat="48.39176" lon="2.56754">
        <ele>116</ele>
        <time>2012-02-19T08:59:20Z</time>
      </trkpt>
      <trkpt lat="48.39176" lon="2.56795">
        <ele>115</ele>
        <time>2012-02-19T08:59:28Z</time>
      </trkpt>
      <trkpt lat="48.39174" lon="2.56823">
        <ele>117</ele>
        <time>2012-02-19T08:59:35Z</time>
      </trkpt>
      <trkpt lat="48.39174" lon="2.56856">
        <ele>114</ele>
        <time>2012-02-19T08:59:42Z</time>
      </trkpt>
      <trkpt lat="48.39172" lon="2.56873">
        <ele>114</ele>
        <time>2012-02-19T08:59:46Z</time>
      </trkpt>
      <trkpt lat="48.39167" lon="2.56886">
        <ele>114</ele>
        <time>2012-02-19T08:59:50Z</time>
      </trkpt>
      <trkpt lat="48.39163" lon="2.56893">
        <ele>114</ele>
        <time>2012-02-19T08:59:52Z</time>
      </trkpt>
      <trkpt lat="48.39159" lon="2.56898">
        <ele>115</ele>
        <time>2012-02-19T08:59:54Z</time>
      </trkpt>
      <trkpt lat="48.39152" lon="2.56919">
        <ele>116</ele>
        <time>2012-02-19T08:59:59Z</time>
      </trkpt>
      <trkpt lat="48.39163" lon="2.56957">
        <ele>116</ele>
        <time>2012-02-19T09:00:08Z</time>
      </trkpt>
      <trkpt lat="48.39166" lon="2.56964">
        <ele>116</ele>
        <time>2012-02-19T09:00:10Z</time>
      </trkpt>
      <trkpt lat="48.39159" lon="2.56981">
        <ele>117</ele>
        <time>2012-02-19T09:00:14Z</time>
      </trkpt>
      <trkpt lat="48.39155" lon="2.56994">
        <ele>117</ele>
        <time>2012-02-19T09:00:18Z</time>
      </trkpt>
      <trkpt lat="48.39151" lon="2.57013">
        <ele>118</ele>
        <time>2012-02-19T09:00:23Z</time>
      </trkpt>
      <trkpt lat="48.39146" lon="2.57018">
        <ele>118</ele>
        <time>2012-02-19T09:00:25Z</time>
      </trkpt>
      <trkpt lat="48.39138" lon="2.57046">
        <ele>117</ele>
        <time>2012-02-19T09:00:31Z</time>
      </trkpt>
      <trkpt lat="48.39132" lon="2.57076">
        <ele>117</ele>
        <time>2012-02-19T09:00:38Z</time>
      </trkpt>
      <trkpt lat="48.39124" lon="2.57129">
        <ele>118</ele>
        <time>2012-02-19T09:00:49Z</time>
      </trkpt>
      <trkpt lat="48.39118" lon="2.57154">
        <ele>118</ele>
        <time>2012-02-19T09:00:56Z</time>
      </trkpt>
      <trkpt lat="48.39118" lon="2.57161">
        <ele>118</ele>
        <time>2012-02-19T09:00:58Z</time>
      </trkpt>
      <trkpt lat="48.39109" lon="2.57168">
        <ele>117</ele>
        <time>2012-02-19T09:01:05Z</time>
      </trkpt>
      <trkpt lat="48.39095" lon="2.57194">
        <ele>117</ele>
        <time>2012-02-19T09:01:14Z</time>
      </trkpt>
      <trkpt lat="48.39089" lon="2.57197">
        <ele>117</ele>
        <time>2012-02-19T09:01:16Z</time>
      </trkpt>
      <trkpt lat="48.3908" lon="2.57222">
        <ele>115</ele>
        <time>2012-02-19T09:01:23Z</time>
      </trkpt>
      <trkpt lat="48.39069" lon="2.57259">
        <ele>117</ele>
        <time>2012-02-19T09:01:32Z</time>
      </trkpt>
      <trkpt lat="48.39072" lon="2.57276">
        <ele>117</ele>
        <time>2012-02-19T09:01:36Z</time>
      </trkpt>
      <trkpt lat="48.39069" lon="2.57293">
        <ele>117</ele>
        <time>2012-02-19T09:01:41Z</time>
      </trkpt>
      <trkpt lat="48.39068" lon="2.573">
        <ele>117</ele>
        <time>2012-02-19T09:01:43Z</time>
      </trkpt>
      <trkpt lat="48.39062" lon="2.57306">
        <ele>117</ele>
        <time>2012-02-19T09:01:47Z</time>
      </trkpt>
      <trkpt lat="48.39045" lon="2.57337">
        <ele>118</ele>
        <time>2012-02-19T09:01:56Z</time>
      </trkpt>
      <trkpt lat="48.39042" lon="2.57351">
        <ele>118</ele>
        <time>2012-02-19T09:02:00Z</time>
      </trkpt>
      <trkpt lat="48.3903" lon="2.57372">
        <ele>118</ele>
        <time>2012-02-19T09:02:06Z</time>
      </trkpt>
      <trkpt lat="48.39021" lon="2.5739">
        <ele>117</ele>
        <time>2012-02-19T09:02:13Z</time>
      </trkpt>
      <trkpt lat="48.3902" lon="2.57395">
        <ele>117</ele>
        <time>2012-02-19T09:02:16Z</time>
      </trkpt>
      <trkpt lat="48.3902" lon="2.57405">
        <ele>117</ele>
        <time>2012-02-19T09:02:19Z</time>
      </trkpt>
      <trkpt lat="48.3902" lon="2.57439">
        <ele>118</ele>
        <time>2012-02-19T09:02:27Z</time>
      </trkpt>
      <trkpt lat="48.3902" lon="2.57447">
        <ele>118</ele>
        <time>2012-02-19T09:02:29Z</time>
      </trkpt>
      <trkpt lat="48.39024" lon="2.57455">
        <ele>118</ele>
        <time>2012-02-19T09:02:31Z</time>
      </trkpt>
      <trkpt lat="48.39024" lon="2.57465">
        <ele>118</ele>
        <time>2012-02-19T09:02:35Z</time>
      </trkpt>
      <trkpt lat="48.39024" lon="2.57477">
        <ele>118</ele>
        <time>2012-02-19T09:02:38Z</time>
      </trkpt>
      <trkpt lat="48.39039" lon="2.57501">
        <ele>119</ele>
        <time>2012-02-19T09:02:46Z</time>
      </trkpt>
      <trkpt lat="48.39043" lon="2.57522">
        <ele>119</ele>
        <time>2012-02-19T09:02:52Z</time>
      </trkpt>
      <trkpt lat="48.39038" lon="2.57542">
        <ele>119</ele>
        <time>2012-02-19T09:02:57Z</time>
      </trkpt>
      <trkpt lat="48.39034" lon="2.57552">
        <ele>119</ele>
        <time>2012-02-19T09:03:01Z</time>
      </trkpt>
      <trkpt lat="48.39034" lon="2.57592">
        <ele>121</ele>
        <time>2012-02-19T09:03:10Z</time>
      </trkpt>
      <trkpt lat="48.39036" lon="2.57623">
        <ele>121</ele>
        <time>2012-02-19T09:03:17Z</time>
      </trkpt>
      <trkpt lat="48.39032" lon="2.57651">
        <ele>121</ele>
        <time>2012-02-19T09:03:23Z</time>
      </trkpt>
      <trkpt lat="48.39026" lon="2.57672">
        <ele>121</ele>
        <time>2012-02-19T09:03:28Z</time>
      </trkpt>
      <trkpt lat="48.39026" lon="2.5768">
        <ele>121</ele>
        <time>2012-02-19T09:03:30Z</time>
      </trkpt>
      <trkpt lat="48.39013" lon="2.5772">
        <ele>122</ele>
        <time>2012-02-19T09:03:39Z</time>
      </trkpt>
      <trkpt lat="48.39009" lon="2.57748">
        <ele>122</ele>
        <time>2012-02-19T09:03:47Z</time>
      </trkpt>
      <trkpt lat="48.39003" lon="2.57774">
        <ele>121</ele>
        <time>2012-02-19T09:03:54Z</time>
      </trkpt>
      <trkpt lat="48.39001" lon="2.57785">
        <ele>121</ele>
        <time>2012-02-19T09:03:57Z</time>
      </trkpt>
      <trkpt lat="48.38998" lon="2.57805">
        <ele>124</ele>
        <time>2012-02-19T09:04:02Z</time>
      </trkpt>
      <trkpt lat="48.39001" lon="2.57825">
        <ele>122</ele>
        <time>2012-02-19T09:04:08Z</time>
      </trkpt>
      <trkpt lat="48.39" lon="2.57831">
        <ele>123</ele>
        <time>2012-02-19T09:04:11Z</time>
      </trkpt>
      <trkpt lat="48.39017" lon="2.57873">
        <ele>120</ele>
        <time>2012-02-19T09:04:23Z</time>
      </trkpt>
      <trkpt lat="48.39043" lon="2.57906">
        <ele>119</ele>
        <time>2012-02-19T09:04:33Z</time>
      </trkpt>
      <trkpt lat="48.39045" lon="2.57924">
        <ele>119</ele>
        <time>2012-02-19T09:04:37Z</time>
      </trkpt>
      <trkpt lat="48.39046" lon="2.57932">
        <ele>118</ele>
        <time>2012-02-19T09:04:39Z</time>
      </trkpt>
      <trkpt lat="48.39036" lon="2.57972">
        <ele>119</ele>
        <time>2012-02-19T09:04:48Z</time>
      </trkpt>
      <trkpt lat="48.3904" lon="2.58014">
        <ele>118</ele>
        <time>2012-02-19T09:04:57Z</time>
      </trkpt>
      <trkpt lat="48.39042" lon="2.58039">
        <ele>118</ele>
        <time>2012-02-19T09:05:02Z</time>
      </trkpt>
      <trkpt lat="48.39048" lon="2.58056">
        <ele>118</ele>
        <time>2012-02-19T09:05:12Z</time>
      </trkpt>
      <trkpt lat="48.39048" lon="2.58052">
        <ele>118</ele>
        <time>2012-02-19T09:05:28Z</time>
      </trkpt>
      <trkpt lat="48.39048" lon="2.58053">
        <ele>118</ele>
        <time>2012-02-19T09:06:40Z</time>
      </trkpt>
      <trkpt lat="48.39048" lon="2.58053">
        <ele>118</ele>
        <time>2012-02-19T09:06:58Z</time>
      </trkpt>
      <trkpt lat="48.39047" lon="2.58054">
        <ele>118</ele>
        <time>2012-02-19T09:07:14Z</time>
      </trkpt>
      <trkpt lat="48.39044" lon="2.58061">
        <ele>118</ele>
        <time>2012-02-19T09:07:22Z</time>
      </trkpt>
      <trkpt lat="48.39042" lon="2.58062">
        <ele>119</ele>
        <time>2012-02-19T09:07:24Z</time>
      </trkpt>
      <trkpt lat="48.3904" lon="2.58065">
        <ele>119</ele>
        <time>2012-02-19T09:07:27Z</time>
      </trkpt>
      <trkpt lat="48.39036" lon="2.58076">
        <ele>119</ele>
        <time>2012-02-19T09:07:39Z</time>
      </trkpt>
      <trkpt lat="48.39035" lon="2.58076">
        <ele>119</ele>
        <time>2012-02-19T09:08:10Z</time>
      </trkpt>
      <trkpt lat="48.39036" lon="2.58077">
        <ele>119</ele>
        <time>2012-02-19T09:13:52Z</time>
      </trkpt>
      <trkpt lat="48.39037" lon="2.58079">
        <ele>119</ele>
        <time>2012-02-19T09:14:18Z</time>
      </trkpt>
      <trkpt lat="48.3904" lon="2.58093">
        <ele>119</ele>
        <time>2012-02-19T09:14:24Z</time>
      </trkpt>
      <trkpt lat="48.39037" lon="2.58112">
        <ele>119</ele>
        <time>2012-02-19T09:14:30Z</time>
      </trkpt>
      <trkpt lat="48.39033" lon="2.58125">
        <ele>119</ele>
        <time>2012-02-19T09:14:40Z</time>
      </trkpt>
      <trkpt lat="48.39026" lon="2.58138">
        <ele>120</ele>
        <time>2012-02-19T09:14:47Z</time>
      </trkpt>
      <trkpt lat="48.39021" lon="2.58141">
        <ele>120</ele>
        <time>2012-02-19T09:14:49Z</time>
      </trkpt>
      <trkpt lat="48.39016" lon="2.58153">
        <ele>121</ele>
        <time>2012-02-19T09:14:55Z</time>
      </trkpt>
      <trkpt lat="48.39012" lon="2.58163">
        <ele>122</ele>
        <time>2012-02-19T09:15:00Z</time>
      </trkpt>
      <trkpt lat="48.39006" lon="2.58181">
        <ele>121</ele>
        <time>2012-02-19T09:15:06Z</time>
      </trkpt>
      <trkpt lat="48.39003" lon="2.58187">
        <ele>121</ele>
        <time>2012-02-19T09:15:08Z</time>
      </trkpt>
      <trkpt lat="48.38994" lon="2.5823">
        <ele>124</ele>
        <time>2012-02-19T09:15:17Z</time>
      </trkpt>
      <trkpt lat="48.38995" lon="2.58234">
        <ele>124</ele>
        <time>2012-02-19T09:15:18Z</time>
      </trkpt>
      <trkpt lat="48.38998" lon="2.58239">
        <ele>124</ele>
        <time>2012-02-19T09:15:20Z</time>
      </trkpt>
      <trkpt lat="48.39018" lon="2.58261">
        <ele>120</ele>
        <time>2012-02-19T09:15:28Z</time>
      </trkpt>
      <trkpt lat="48.39021" lon="2.58268">
        <ele>119</ele>
        <time>2012-02-19T09:15:31Z</time>
      </trkpt>
      <trkpt lat="48.3902" lon="2.58272">
        <ele>119</ele>
        <time>2012-02-19T09:15:33Z</time>
      </trkpt>
      <trkpt lat="48.39025" lon="2.58287">
        <ele>118</ele>
        <time>2012-02-19T09:15:37Z</time>
      </trkpt>
      <trkpt lat="48.39023" lon="2.58325">
        <ele>119</ele>
        <time>2012-02-19T09:15:46Z</time>
      </trkpt>
      <trkpt lat="48.39021" lon="2.5834">
        <ele>119</ele>
        <time>2012-02-19T09:15:52Z</time>
      </trkpt>
      <trkpt lat="48.39023" lon="2.58347">
        <ele>119</ele>
        <time>2012-02-19T09:15:54Z</time>
      </trkpt>
      <trkpt lat="48.39026" lon="2.5837">
        <ele>118</ele>
        <time>2012-02-19T09:16:00Z</time>
      </trkpt>
      <trkpt lat="48.39028" lon="2.58379">
        <ele>117</ele>
        <time>2012-02-19T09:16:03Z</time>
      </trkpt>
      <trkpt lat="48.39016" lon="2.58428">
        <ele>119</ele>
        <time>2012-02-19T09:16:15Z</time>
      </trkpt>
      <trkpt lat="48.39013" lon="2.58435">
        <ele>118</ele>
        <time>2012-02-19T09:16:17Z</time>
      </trkpt>
      <trkpt lat="48.39015" lon="2.5844">
        <ele>118</ele>
        <time>2012-02-19T09:16:22Z</time>
      </trkpt>
      <trkpt lat="48.3901" lon="2.58475">
        <ele>118</ele>
        <time>2012-02-19T09:16:32Z</time>
      </trkpt>
      <trkpt lat="48.39005" lon="2.58482">
        <ele>118</ele>
        <time>2012-02-19T09:16:34Z</time>
      </trkpt>
      <trkpt lat="48.39001" lon="2.58496">
        <ele>121</ele>
        <time>2012-02-19T09:16:38Z</time>
      </trkpt>
      <trkpt lat="48.38989" lon="2.5851">
        <ele>123</ele>
        <time>2012-02-19T09:16:44Z</time>
      </trkpt>
      <trkpt lat="48.38984" lon="2.58525">
        <ele>123</ele>
        <time>2012-02-19T09:16:48Z</time>
      </trkpt>
      <trkpt lat="48.38978" lon="2.58552">
        <ele>123</ele>
        <time>2012-02-19T09:16:54Z</time>
      </trkpt>
      <trkpt lat="48.38974" lon="2.5857">
        <ele>123</ele>
        <time>2012-02-19T09:17:00Z</time>
      </trkpt>
      <trkpt lat="48.38969" lon="2.58583">
        <ele>122</ele>
        <time>2012-02-19T09:17:04Z</time>
      </trkpt>
      <trkpt lat="48.38959" lon="2.5861">
        <ele>122</ele>
        <time>2012-02-19T09:17:11Z</time>
      </trkpt>
      <trkpt lat="48.38953" lon="2.58618">
        <ele>122</ele>
        <time>2012-02-19T09:17:13Z</time>
      </trkpt>
      <trkpt lat="48.38953" lon="2.58632">
        <ele>122</ele>
        <time>2012-02-19T09:17:17Z</time>
      </trkpt>
      <trkpt lat="48.38945" lon="2.58657">
        <ele>122</ele>
        <time>2012-02-19T09:17:22Z</time>
      </trkpt>
      <trkpt lat="48.38942" lon="2.58715">
        <ele>120</ele>
        <time>2012-02-19T09:17:32Z</time>
      </trkpt>
      <trkpt lat="48.3894" lon="2.58733">
        <ele>121</ele>
        <time>2012-02-19T09:17:35Z</time>
      </trkpt>
      <trkpt lat="48.3893" lon="2.58765">
        <ele>121</ele>
        <time>2012-02-19T09:17:41Z</time>
      </trkpt>
      <trkpt lat="48.38923" lon="2.58809">
        <ele>121</ele>
        <time>2012-02-19T09:17:49Z</time>
      </trkpt>
      <trkpt lat="48.38927" lon="2.58835">
        <ele>122</ele>
        <time>2012-02-19T09:17:54Z</time>
      </trkpt>
      <trkpt lat="48.3893" lon="2.5885">
        <ele>121</ele>
        <time>2012-02-19T09:17:58Z</time>
      </trkpt>
      <trkpt lat="48.38932" lon="2.58866">
        <ele>120</ele>
        <time>2012-02-19T09:18:02Z</time>
      </trkpt>
      <trkpt lat="48.38929" lon="2.58925">
        <ele>122</ele>
        <time>2012-02-19T09:18:15Z</time>
      </trkpt>
      <trkpt lat="48.38935" lon="2.58938">
        <ele>121</ele>
        <time>2012-02-19T09:18:19Z</time>
      </trkpt>
      <trkpt lat="48.38934" lon="2.58975">
        <ele>121</ele>
        <time>2012-02-19T09:18:28Z</time>
      </trkpt>
      <trkpt lat="48.38931" lon="2.58991">
        <ele>122</ele>
        <time>2012-02-19T09:18:32Z</time>
      </trkpt>
      <trkpt lat="48.38942" lon="2.59029">
        <ele>121</ele>
        <time>2012-02-19T09:18:41Z</time>
      </trkpt>
      <trkpt lat="48.38938" lon="2.59044">
        <ele>121</ele>
        <time>2012-02-19T09:18:45Z</time>
      </trkpt>
      <trkpt lat="48.38936" lon="2.59057">
        <ele>121</ele>
        <time>2012-02-19T09:18:49Z</time>
      </trkpt>
      <trkpt lat="48.38933" lon="2.59062">
        <ele>121</ele>
        <time>2012-02-19T09:18:51Z</time>
      </trkpt>
      <trkpt lat="48.38931" lon="2.59084">
        <ele>122</ele>
        <time>2012-02-19T09:18:56Z</time>
      </trkpt>
      <trkpt lat="48.38931" lon="2.59127">
        <ele>122</ele>
        <time>2012-02-19T09:19:06Z</time>
      </trkpt>
      <trkpt lat="48.38934" lon="2.59154">
        <ele>123</ele>
        <time>2012-02-19T09:19:12Z</time>
      </trkpt>
      <trkpt lat="48.38938" lon="2.59206">
        <ele>123</ele>
        <time>2012-02-19T09:19:24Z</time>
      </trkpt>
      <trkpt lat="48.38934" lon="2.59232">
        <ele>123</ele>
        <time>2012-02-19T09:19:30Z</time>
      </trkpt>
      <trkpt lat="48.3893" lon="2.59255">
        <ele>123</ele>
        <time>2012-02-19T09:19:35Z</time>
      </trkpt>
      <trkpt lat="48.38915" lon="2.59293">
        <ele>123</ele>
        <time>2012-02-19T09:19:45Z</time>
      </trkpt>
      <trkpt lat="48.38914" lon="2.59297">
        <ele>123</ele>
        <time>2012-02-19T09:19:46Z</time>
      </trkpt>
      <trkpt lat="48.38912" lon="2.59313">
        <ele>123</ele>
        <time>2012-02-19T09:19:55Z</time>
      </trkpt>
      <trkpt lat="48.38912" lon="2.59312">
        <ele>123</ele>
        <time>2012-02-19T09:20:16Z</time>
      </trkpt>
      <trkpt lat="48.38912" lon="2.59312">
        <ele>123</ele>
        <time>2012-02-19T09:20:17Z</time>
      </trkpt>
      <trkpt lat="48.38909" lon="2.5931">
        <ele>123</ele>
        <time>2012-02-19T09:20:23Z</time>
      </trkpt>
      <trkpt lat="48.38907" lon="2.59308">
        <ele>123</ele>
        <time>2012-02-19T09:20:25Z</time>
      </trkpt>
      <trkpt lat="48.38892" lon="2.59309">
        <ele>123</ele>
        <time>2012-02-19T09:20:35Z</time>
      </trkpt>
      <trkpt lat="48.38892" lon="2.59309">
        <ele>123</ele>
        <time>2012-02-19T09:20:36Z</time>
      </trkpt>
      <trkpt lat="48.38887" lon="2.59303">
        <ele>123</ele>
        <time>2012-02-19T09:20:41Z</time>
      </trkpt>
      <trkpt lat="48.38873" lon="2.59299">
        <ele>124</ele>
        <time>2012-02-19T09:20:48Z</time>
      </trkpt>
      <trkpt lat="48.38844" lon="2.59304">
        <ele>124</ele>
        <time>2012-02-19T09:20:58Z</time>
      </trkpt>
      <trkpt lat="48.38835" lon="2.59301">
        <ele>124</ele>
        <time>2012-02-19T09:21:01Z</time>
      </trkpt>
      <trkpt lat="48.38829" lon="2.59297">
        <ele>123</ele>
        <time>2012-02-19T09:21:03Z</time>
      </trkpt>
      <trkpt lat="48.38813" lon="2.59295">
        <ele>123</ele>
        <time>2012-02-19T09:21:08Z</time>
      </trkpt>
      <trkpt lat="48.38785" lon="2.59289">
        <ele>123</ele>
        <time>2012-02-19T09:21:16Z</time>
      </trkpt>
      <trkpt lat="48.38757" lon="2.59309">
        <ele>122</ele>
        <time>2012-02-19T09:21:24Z</time>
      </trkpt>
      <trkpt lat="48.38741" lon="2.59315">
        <ele>121</ele>
        <time>2012-02-19T09:21:28Z</time>
      </trkpt>
      <trkpt lat="48.38733" lon="2.5933">
        <ele>121</ele>
        <time>2012-02-19T09:21:31Z</time>
      </trkpt>
      <trkpt lat="48.38729" lon="2.59345">
        <ele>121</ele>
        <time>2012-02-19T09:21:36Z</time>
      </trkpt>
      <trkpt lat="48.38727" lon="2.59351">
        <ele>121</ele>
        <time>2012-02-19T09:21:38Z</time>
      </trkpt>
      <trkpt lat="48.38716" lon="2.5934">
        <ele>121</ele>
        <time>2012-02-19T09:21:43Z</time>
      </trkpt>
      <trkpt lat="48.387" lon="2.59357">
        <ele>121</ele>
        <time>2012-02-19T09:21:48Z</time>
      </trkpt>
      <trkpt lat="48.38684" lon="2.59351">
        <ele>121</ele>
        <time>2012-02-19T09:21:55Z</time>
      </trkpt>
      <trkpt lat="48.38679" lon="2.59351">
        <ele>121</ele>
        <time>2012-02-19T09:22:05Z</time>
      </trkpt>
      <trkpt lat="48.38674" lon="2.59357">
        <ele>121</ele>
        <time>2012-02-19T09:22:10Z</time>
      </trkpt>
      <trkpt lat="48.38669" lon="2.59362">
        <ele>121</ele>
        <time>2012-02-19T09:22:14Z</time>
      </trkpt>
      <trkpt lat="48.38658" lon="2.5937">
        <ele>122</ele>
        <time>2012-02-19T09:22:21Z</time>
      </trkpt>
      <trkpt lat="48.38651" lon="2.59386">
        <ele>122</ele>
        <time>2012-02-19T09:22:30Z</time>
      </trkpt>
      <trkpt lat="48.3865" lon="2.59387">
        <ele>122</ele>
        <time>2012-02-19T09:22:35Z</time>
      </trkpt>
      <trkpt lat="48.38658" lon="2.59419">
        <ele>123</ele>
        <time>2012-02-19T09:22:50Z</time>
      </trkpt>
      <trkpt lat="48.38665" lon="2.59471">
        <ele>124</ele>
        <time>2012-02-19T09:23:05Z</time>
      </trkpt>
      <trkpt lat="48.38664" lon="2.59534">
        <ele>126</ele>
        <time>2012-02-19T09:23:18Z</time>
      </trkpt>
      <trkpt lat="48.3866" lon="2.59578">
        <ele>126</ele>
        <time>2012-02-19T09:23:26Z</time>
      </trkpt>
      <trkpt lat="48.38655" lon="2.59645">
        <ele>127</ele>
        <time>2012-02-19T09:23:37Z</time>
      </trkpt>
      <trkpt lat="48.38647" lon="2.59743">
        <ele>128</ele>
        <time>2012-02-19T09:23:51Z</time>
      </trkpt>
      <trkpt lat="48.38645" lon="2.59771">
        <ele>128</ele>
        <time>2012-02-19T09:23:57Z</time>
      </trkpt>
      <trkpt lat="48.38651" lon="2.59778">
        <ele>128</ele>
        <time>2012-02-19T09:24:01Z</time>
      </trkpt>
      <trkpt lat="48.38708" lon="2.59807">
        <ele>126</ele>
        <time>2012-02-19T09:24:16Z</time>
      </trkpt>
      <trkpt lat="48.38727" lon="2.59813">
        <ele>126</ele>
        <time>2012-02-19T09:24:23Z</time>
      </trkpt>
      <trkpt lat="48.38749" lon="2.59832">
        <ele>125</ele>
        <time>2012-02-19T09:24:31Z</time>
      </trkpt>
      <trkpt lat="48.38785" lon="2.59871">
        <ele>126</ele>
        <time>2012-02-19T09:24:43Z</time>
      </trkpt>
      <trkpt lat="48.38799" lon="2.59917">
        <ele>126</ele>
        <time>2012-02-19T09:24:51Z</time>
      </trkpt>
      <trkpt lat="48.38807" lon="2.59971">
        <ele>126</ele>
        <time>2012-02-19T09:24:59Z</time>
      </trkpt>
      <trkpt lat="48.38814" lon="2.59994">
        <ele>126</ele>
        <time>2012-02-19T09:25:03Z</time>
      </trkpt>
      <trkpt lat="48.38819" lon="2.60012">
        <ele>126</ele>
        <time>2012-02-19T09:25:06Z</time>
      </trkpt>
      <trkpt lat="48.38825" lon="2.60023">
        <ele>126</ele>
        <time>2012-02-19T09:25:08Z</time>
      </trkpt>
      <trkpt lat="48.3883" lon="2.60056">
        <ele>127</ele>
        <time>2012-02-19T09:25:13Z</time>
      </trkpt>
      <trkpt lat="48.38834" lon="2.60094">
        <ele>127</ele>
        <time>2012-02-19T09:25:19Z</time>
      </trkpt>
      <trkpt lat="48.38839" lon="2.60152">
        <ele>127</ele>
        <time>2012-02-19T09:25:28Z</time>
      </trkpt>
      <trkpt lat="48.38848" lon="2.60216">
        <ele>127</ele>
        <time>2012-02-19T09:25:39Z</time>
      </trkpt>
      <trkpt lat="48.38848" lon="2.60234">
        <ele>127</ele>
        <time>2012-02-19T09:25:42Z</time>
      </trkpt>
      <trkpt lat="48.3884" lon="2.60287">
        <ele>127</ele>
        <time>2012-02-19T09:25:50Z</time>
      </trkpt>
      <trkpt lat="48.38831" lon="2.60354">
        <ele>127</ele>
        <time>2012-02-19T09:26:01Z</time>
      </trkpt>
      <trkpt lat="48.38824" lon="2.6041">
        <ele>128</ele>
        <time>2012-02-19T09:26:11Z</time>
      </trkpt>
      <trkpt lat="48.38818" lon="2.60457">
        <ele>129</ele>
        <time>2012-02-19T09:26:19Z</time>
      </trkpt>
      <trkpt lat="48.38808" lon="2.60539">
        <ele>129</ele>
        <time>2012-02-19T09:26:31Z</time>
      </trkpt>
      <trkpt lat="48.38807" lon="2.60545">
        <ele>129</ele>
        <time>2012-02-19T09:26:32Z</time>
      </trkpt>
      <trkpt lat="48.38803" lon="2.60588">
        <ele>129</ele>
        <time>2012-02-19T09:26:39Z</time>
      </trkpt>
      <trkpt lat="48.38802" lon="2.60595">
        <ele>129</ele>
        <time>2012-02-19T09:26:40Z</time>
      </trkpt>
      <trkpt lat="48.38798" lon="2.6063">
        <ele>129</ele>
        <time>2012-02-19T09:26:45Z</time>
      </trkpt>
      <trkpt lat="48.38788" lon="2.60692">
        <ele>130</ele>
        <time>2012-02-19T09:26:55Z</time>
      </trkpt>
      <trkpt lat="48.38778" lon="2.60769">
        <ele>130</ele>
        <time>2012-02-19T09:27:06Z</time>
      </trkpt>
      <trkpt lat="48.38775" lon="2.60797">
        <ele>130</ele>
        <time>2012-02-19T09:27:10Z</time>
      </trkpt>
      <trkpt lat="48.38765" lon="2.60869">
        <ele>130</ele>
        <time>2012-02-19T09:27:21Z</time>
      </trkpt>
      <trkpt lat="48.38761" lon="2.60909">
        <ele>130</ele>
        <time>2012-02-19T09:27:27Z</time>
      </trkpt>
      <trkpt lat="48.38756" lon="2.60934">
        <ele>131</ele>
        <time>2012-02-19T09:27:31Z</time>
      </trkpt>
      <trkpt lat="48.38745" lon="2.61015">
        <ele>133</ele>
        <time>2012-02-19T09:27:44Z</time>
      </trkpt>
      <trkpt lat="48.38743" lon="2.61034">
        <ele>133</ele>
        <time>2012-02-19T09:27:47Z</time>
      </trkpt>
      <trkpt lat="48.38736" lon="2.61089">
        <ele>133</ele>
        <time>2012-02-19T09:27:55Z</time>
      </trkpt>
      <trkpt lat="48.38734" lon="2.61111">
        <ele>133</ele>
        <time>2012-02-19T09:27:58Z</time>
      </trkpt>
      <trkpt lat="48.38725" lon="2.61163">
        <ele>132</ele>
        <time>2012-02-19T09:28:06Z</time>
      </trkpt>
      <trkpt lat="48.3872" lon="2.6122">
        <ele>132</ele>
        <time>2012-02-19T09:28:13Z</time>
      </trkpt>
      <trkpt lat="48.38717" lon="2.61241">
        <ele>133</ele>
        <time>2012-02-19T09:28:16Z</time>
      </trkpt>
      <trkpt lat="48.38702" lon="2.61356">
        <ele>133</ele>
        <time>2012-02-19T09:28:31Z</time>
      </trkpt>
      <trkpt lat="48.38696" lon="2.61417">
        <ele>134</ele>
        <time>2012-02-19T09:28:42Z</time>
      </trkpt>
      <trkpt lat="48.38699" lon="2.61417">
        <ele>134</ele>
        <time>2012-02-19T09:28:49Z</time>
      </trkpt>
      <trkpt lat="48.38704" lon="2.61422">
        <ele>134</ele>
        <time>2012-02-19T09:28:53Z</time>
      </trkpt>
      <trkpt lat="48.38724" lon="2.6148">
        <ele>134</ele>
        <time>2012-02-19T09:29:03Z</time>
      </trkpt>
      <trkpt lat="48.38732" lon="2.61507">
        <ele>134</ele>
        <time>2012-02-19T09:29:07Z</time>
      </trkpt>
      <trkpt lat="48.38759" lon="2.61559">
        <ele>134</ele>
        <time>2012-02-19T09:29:16Z</time>
      </trkpt>
      <trkpt lat="48.38797" lon="2.61599">
        <ele>133</ele>
        <time>2012-02-19T09:29:26Z</time>
      </trkpt>
      <trkpt lat="48.3883" lon="2.61632">
        <ele>133</ele>
        <time>2012-02-19T09:29:34Z</time>
      </trkpt>
      <trkpt lat="48.38844" lon="2.6165">
        <ele>133</ele>
        <time>2012-02-19T09:29:38Z</time>
      </trkpt>
      <trkpt lat="48.38875" lon="2.61689">
        <ele>132</ele>
        <time>2012-02-19T09:29:47Z</time>
      </trkpt>
      <trkpt lat="48.38914" lon="2.61717">
        <ele>132</ele>
        <time>2012-02-19T09:29:57Z</time>
      </trkpt>
      <trkpt lat="48.38933" lon="2.61751">
        <ele>131</ele>
        <time>2012-02-19T09:30:04Z</time>
      </trkpt>
      <trkpt lat="48.38938" lon="2.61774">
        <ele>131</ele>
        <time>2012-02-19T09:30:08Z</time>
      </trkpt>
      <trkpt lat="48.38961" lon="2.61822">
        <ele>131</ele>
        <time>2012-02-19T09:30:16Z</time>
      </trkpt>
      <trkpt lat="48.38972" lon="2.61855">
        <ele>131</ele>
        <time>2012-02-19T09:30:21Z</time>
      </trkpt>
      <trkpt lat="48.38973" lon="2.6188">
        <ele>131</ele>
        <time>2012-02-19T09:30:25Z</time>
      </trkpt>
      <trkpt lat="48.38991" lon="2.61943">
        <ele>130</ele>
        <time>2012-02-19T09:30:34Z</time>
      </trkpt>
      <trkpt lat="48.38997" lon="2.61971">
        <ele>130</ele>
        <time>2012-02-19T09:30:38Z</time>
      </trkpt>
      <trkpt lat="48.39033" lon="2.62058">
        <ele>129</ele>
        <time>2012-02-19T09:30:50Z</time>
      </trkpt>
      <trkpt lat="48.3904" lon="2.62077">
        <ele>129</ele>
        <time>2012-02-19T09:30:53Z</time>
      </trkpt>
      <trkpt lat="48.39054" lon="2.62069">
        <ele>128</ele>
        <time>2012-02-19T09:30:58Z</time>
      </trkpt>
      <trkpt lat="48.39059" lon="2.62048">
        <ele>128</ele>
        <time>2012-02-19T09:31:01Z</time>
      </trkpt>
      <trkpt lat="48.39087" lon="2.61955">
        <ele>127</ele>
        <time>2012-02-19T09:31:14Z</time>
      </trkpt>
      <trkpt lat="48.39098" lon="2.61922">
        <ele>127</ele>
        <time>2012-02-19T09:31:19Z</time>
      </trkpt>
      <trkpt lat="48.39117" lon="2.61843">
        <ele>126</ele>
        <time>2012-02-19T09:31:30Z</time>
      </trkpt>
      <trkpt lat="48.39121" lon="2.61827">
        <ele>125</ele>
        <time>2012-02-19T09:31:32Z</time>
      </trkpt>
      <trkpt lat="48.39122" lon="2.61787">
        <ele>125</ele>
        <time>2012-02-19T09:31:37Z</time>
      </trkpt>
      <trkpt lat="48.39102" lon="2.6165">
        <ele>121</ele>
        <time>2012-02-19T09:31:54Z</time>
      </trkpt>
      <trkpt lat="48.39094" lon="2.616">
        <ele>120</ele>
        <time>2012-02-19T09:32:00Z</time>
      </trkpt>
      <trkpt lat="48.39099" lon="2.61561">
        <ele>119</ele>
        <time>2012-02-19T09:32:05Z</time>
      </trkpt>
      <trkpt lat="48.39112" lon="2.61532">
        <ele>119</ele>
        <time>2012-02-19T09:32:09Z</time>
      </trkpt>
      <trkpt lat="48.39152" lon="2.61498">
        <ele>117</ele>
        <time>2012-02-19T09:32:17Z</time>
      </trkpt>
      <trkpt lat="48.39196" lon="2.61491">
        <ele>113</ele>
        <time>2012-02-19T09:32:25Z</time>
      </trkpt>
      <trkpt lat="48.39212" lon="2.61489">
        <ele>112</ele>
        <time>2012-02-19T09:32:28Z</time>
      </trkpt>
      <trkpt lat="48.39223" lon="2.61491">
        <ele>111</ele>
        <time>2012-02-19T09:32:30Z</time>
      </trkpt>
      <trkpt lat="48.39256" lon="2.61508">
        <ele>111</ele>
        <time>2012-02-19T09:32:36Z</time>
      </trkpt>
      <trkpt lat="48.39271" lon="2.61527">
        <ele>112</ele>
        <time>2012-02-19T09:32:40Z</time>
      </trkpt>
      <trkpt lat="48.39295" lon="2.61566">
        <ele>114</ele>
        <time>2012-02-19T09:32:51Z</time>
      </trkpt>
      <trkpt lat="48.39318" lon="2.61589">
        <ele>117</ele>
        <time>2012-02-19T09:33:03Z</time>
      </trkpt>
      <trkpt lat="48.39316" lon="2.61602">
        <ele>117</ele>
        <time>2012-02-19T09:33:09Z</time>
      </trkpt>
      <trkpt lat="48.39313" lon="2.61616">
        <ele>117</ele>
        <time>2012-02-19T09:33:15Z</time>
      </trkpt>
      <trkpt lat="48.39314" lon="2.6163">
        <ele>118</ele>
        <time>2012-02-19T09:33:21Z</time>
      </trkpt>
      <trkpt lat="48.39312" lon="2.61639">
        <ele>118</ele>
        <time>2012-02-19T09:33:25Z</time>
      </trkpt>
      <trkpt lat="48.39308" lon="2.61645">
        <ele>118</ele>
        <time>2012-02-19T09:33:29Z</time>
      </trkpt>
      <trkpt lat="48.39306" lon="2.61654">
        <ele>118</ele>
        <time>2012-02-19T09:33:33Z</time>
      </trkpt>
      <trkpt lat="48.39307" lon="2.61662">
        <ele>119</ele>
        <time>2012-02-19T09:33:40Z</time>
      </trkpt>
      <trkpt lat="48.39305" lon="2.61667">
        <ele>121</ele>
        <time>2012-02-19T09:33:43Z</time>
      </trkpt>
      <trkpt lat="48.39302" lon="2.6168">
        <ele>120</ele>
        <time>2012-02-19T09:33:50Z</time>
      </trkpt>
      <trkpt lat="48.39311" lon="2.61687">
        <ele>121</ele>
        <time>2012-02-19T09:34:04Z</time>
      </trkpt>
      <trkpt lat="48.39312" lon="2.61688">
        <ele>121</ele>
        <time>2012-02-19T09:34:05Z</time>
      </trkpt>
      <trkpt lat="48.39317" lon="2.61693">
        <ele>121</ele>
        <time>2012-02-19T09:34:17Z</time>
      </trkpt>
      <trkpt lat="48.3932" lon="2.61692">
        <ele>121</ele>
        <time>2012-02-19T09:34:22Z</time>
      </trkpt>
      <trkpt lat="48.39322" lon="2.61692">
        <ele>121</ele>
        <time>2012-02-19T09:34:24Z</time>
      </trkpt>
      <trkpt lat="48.39325" lon="2.61695">
        <ele>121</ele>
        <time>2012-02-19T09:34:28Z</time>
      </trkpt>
      <trkpt lat="48.39333" lon="2.61701">
        <ele>124</ele>
        <time>2012-02-19T09:34:35Z</time>
      </trkpt>
      <trkpt lat="48.39333" lon="2.61716">
        <ele>122</ele>
        <time>2012-02-19T09:34:40Z</time>
      </trkpt>
      <trkpt lat="48.39329" lon="2.61745">
        <ele>123</ele>
        <time>2012-02-19T09:34:50Z</time>
      </trkpt>
      <trkpt lat="48.39329" lon="2.61753">
        <ele>124</ele>
        <time>2012-02-19T09:34:54Z</time>
      </trkpt>
      <trkpt lat="48.39338" lon="2.61764">
        <ele>125</ele>
        <time>2012-02-19T09:35:00Z</time>
      </trkpt>
      <trkpt lat="48.3934" lon="2.61767">
        <ele>125</ele>
        <time>2012-02-19T09:35:02Z</time>
      </trkpt>
      <trkpt lat="48.39345" lon="2.61772">
        <ele>126</ele>
        <time>2012-02-19T09:35:05Z</time>
      </trkpt>
      <trkpt lat="48.39348" lon="2.61779">
        <ele>126</ele>
        <time>2012-02-19T09:35:09Z</time>
      </trkpt>
      <trkpt lat="48.39353" lon="2.61791">
        <ele>126</ele>
        <time>2012-02-19T09:35:15Z</time>
      </trkpt>
      <trkpt lat="48.39357" lon="2.61806">
        <ele>127</ele>
        <time>2012-02-19T09:35:21Z</time>
      </trkpt>
      <trkpt lat="48.39368" lon="2.61818">
        <ele>127</ele>
        <time>2012-02-19T09:35:27Z</time>
      </trkpt>
      <trkpt lat="48.39374" lon="2.61812">
        <ele>127</ele>
        <time>2012-02-19T09:35:33Z</time>
      </trkpt>
      <trkpt lat="48.39376" lon="2.61815">
        <ele>127</ele>
        <time>2012-02-19T09:35:35Z</time>
      </trkpt>
      <trkpt lat="48.39387" lon="2.61826">
        <ele>128</ele>
        <time>2012-02-19T09:35:43Z</time>
      </trkpt>
      <trkpt lat="48.39392" lon="2.61827">
        <ele>128</ele>
        <time>2012-02-19T09:35:47Z</time>
      </trkpt>
      <trkpt lat="48.39403" lon="2.61827">
        <ele>129</ele>
        <time>2012-02-19T09:35:56Z</time>
      </trkpt>
      <trkpt lat="48.39408" lon="2.61825">
        <ele>129</ele>
        <time>2012-02-19T09:35:59Z</time>
      </trkpt>
      <trkpt lat="48.39413" lon="2.6182">
        <ele>129</ele>
        <time>2012-02-19T09:36:07Z</time>
      </trkpt>
      <trkpt lat="48.39423" lon="2.61814">
        <ele>130</ele>
        <time>2012-02-19T09:36:14Z</time>
      </trkpt>
      <trkpt lat="48.39432" lon="2.61836">
        <ele>131</ele>
        <time>2012-02-19T09:36:25Z</time>
      </trkpt>
      <trkpt lat="48.39444" lon="2.61844">
        <ele>131</ele>
        <time>2012-02-19T09:36:33Z</time>
      </trkpt>
      <trkpt lat="48.39449" lon="2.6184">
        <ele>131</ele>
        <time>2012-02-19T09:36:37Z</time>
      </trkpt>
      <trkpt lat="48.39452" lon="2.61828">
        <ele>130</ele>
        <time>2012-02-19T09:36:42Z</time>
      </trkpt>
      <trkpt lat="48.3946" lon="2.61823">
        <ele>130</ele>
        <time>2012-02-19T09:36:47Z</time>
      </trkpt>
      <trkpt lat="48.39462" lon="2.6181">
        <ele>130</ele>
        <time>2012-02-19T09:36:52Z</time>
      </trkpt>
      <trkpt lat="48.39463" lon="2.61802">
        <ele>130</ele>
        <time>2012-02-19T09:36:55Z</time>
      </trkpt>
      <trkpt lat="48.39465" lon="2.61785">
        <ele>130</ele>
        <time>2012-02-19T09:37:02Z</time>
      </trkpt>
      <trkpt lat="48.39467" lon="2.61781">
        <ele>130</ele>
        <time>2012-02-19T09:37:04Z</time>
      </trkpt>
      <trkpt lat="48.39467" lon="2.61757">
        <ele>129</ele>
        <time>2012-02-19T09:37:11Z</time>
      </trkpt>
      <trkpt lat="48.39467" lon="2.61747">
        <ele>129</ele>
        <time>2012-02-19T09:37:14Z</time>
      </trkpt>
      <trkpt lat="48.39467" lon="2.61735">
        <ele>129</ele>
        <time>2012-02-19T09:37:17Z</time>
      </trkpt>
      <trkpt lat="48.39469" lon="2.61722">
        <ele>129</ele>
        <time>2012-02-19T09:37:22Z</time>
      </trkpt>
      <trkpt lat="48.39477" lon="2.61717">
        <ele>129</ele>
        <time>2012-02-19T09:37:26Z</time>
      </trkpt>
      <trkpt lat="48.39502" lon="2.61717">
        <ele>131</ele>
        <time>2012-02-19T09:37:35Z</time>
      </trkpt>
      <trkpt lat="48.39508" lon="2.6171">
        <ele>131</ele>
        <time>2012-02-19T09:37:37Z</time>
      </trkpt>
      <trkpt lat="48.39515" lon="2.61709">
        <ele>131</ele>
        <time>2012-02-19T09:37:40Z</time>
      </trkpt>
      <trkpt lat="48.39516" lon="2.6172">
        <ele>131</ele>
        <time>2012-02-19T09:37:45Z</time>
      </trkpt>
      <trkpt lat="48.39513" lon="2.61733">
        <ele>130</ele>
        <time>2012-02-19T09:37:49Z</time>
      </trkpt>
      <trkpt lat="48.39505" lon="2.61779">
        <ele>131</ele>
        <time>2012-02-19T09:38:00Z</time>
      </trkpt>
      <trkpt lat="48.395" lon="2.6184">
        <ele>131</ele>
        <time>2012-02-19T09:38:13Z</time>
      </trkpt>
      <trkpt lat="48.39494" lon="2.61884">
        <ele>131</ele>
        <time>2012-02-19T09:38:23Z</time>
      </trkpt>
      <trkpt lat="48.39495" lon="2.61913">
        <ele>132</ele>
        <time>2012-02-19T09:38:29Z</time>
      </trkpt>
      <trkpt lat="48.39492" lon="2.61938">
        <ele>131</ele>
        <time>2012-02-19T09:38:34Z</time>
      </trkpt>
      <trkpt lat="48.39488" lon="2.61987">
        <ele>131</ele>
        <time>2012-02-19T09:38:43Z</time>
      </trkpt>
      <trkpt lat="48.39486" lon="2.62014">
        <ele>132</ele>
        <time>2012-02-19T09:38:48Z</time>
      </trkpt>
      <trkpt lat="48.39475" lon="2.62085">
        <ele>133</ele>
        <time>2012-02-19T09:39:01Z</time>
      </trkpt>
      <trkpt lat="48.39507" lon="2.62121">
        <ele>135</ele>
        <time>2012-02-19T09:39:12Z</time>
      </trkpt>
      <trkpt lat="48.39534" lon="2.62164">
        <ele>135</ele>
        <time>2012-02-19T09:39:24Z</time>
      </trkpt>
      <trkpt lat="48.39527" lon="2.62226">
        <ele>135</ele>
        <time>2012-02-19T09:39:37Z</time>
      </trkpt>
      <trkpt lat="48.39508" lon="2.62325">
        <ele>135</ele>
        <time>2012-02-19T09:39:55Z</time>
      </trkpt>
      <trkpt lat="48.39498" lon="2.62382">
        <ele>133</ele>
        <time>2012-02-19T09:40:04Z</time>
      </trkpt>
      <trkpt lat="48.39485" lon="2.62457">
        <ele>133</ele>
        <time>2012-02-19T09:40:16Z</time>
      </trkpt>
      <trkpt lat="48.39462" lon="2.62587">
        <ele>135</ele>
        <time>2012-02-19T09:40:37Z</time>
      </trkpt>
      <trkpt lat="48.39447" lon="2.62676">
        <ele>136</ele>
        <time>2012-02-19T09:40:52Z</time>
      </trkpt>
      <trkpt lat="48.39438" lon="2.62726">
        <ele>137</ele>
        <time>2012-02-19T09:41:01Z</time>
      </trkpt>
      <trkpt lat="48.39425" lon="2.62786">
        <ele>137</ele>
        <time>2012-02-19T09:41:11Z</time>
      </trkpt>
      <trkpt lat="48.3942" lon="2.62818">
        <ele>137</ele>
        <time>2012-02-19T09:41:16Z</time>
      </trkpt>
      <trkpt lat="48.39417" lon="2.62844">
        <ele>137</ele>
        <time>2012-02-19T09:41:20Z</time>
      </trkpt>
      <trkpt lat="48.39406" lon="2.62911">
        <ele>136</ele>
        <time>2012-02-19T09:41:31Z</time>
      </trkpt>
      <trkpt lat="48.39402" lon="2.62932">
        <ele>136</ele>
        <time>2012-02-19T09:41:35Z</time>
      </trkpt>
      <trkpt lat="48.39399" lon="2.62939">
        <ele>135</ele>
        <time>2012-02-19T09:41:37Z</time>
      </trkpt>
      <trkpt lat="48.39391" lon="2.62984">
        <ele>135</ele>
        <time>2012-02-19T09:41:48Z</time>
      </trkpt>
      <trkpt lat="48.39386" lon="2.63018">
        <ele>134</ele>
        <time>2012-02-19T09:41:58Z</time>
      </trkpt>
      <trkpt lat="48.39381" lon="2.6308">
        <ele>134</ele>
        <time>2012-02-19T09:42:11Z</time>
      </trkpt>
      <trkpt lat="48.39371" lon="2.63175">
        <ele>135</ele>
        <time>2012-02-19T09:42:29Z</time>
      </trkpt>
      <trkpt lat="48.39367" lon="2.63266">
        <ele>135</ele>
        <time>2012-02-19T09:42:45Z</time>
      </trkpt>
      <trkpt lat="48.3937" lon="2.63333">
        <ele>134</ele>
        <time>2012-02-19T09:42:58Z</time>
      </trkpt>
      <trkpt lat="48.39362" lon="2.63396">
        <ele>132</ele>
        <time>2012-02-19T09:43:09Z</time>
      </trkpt>
      <trkpt lat="48.3936" lon="2.63422">
        <ele>130</ele>
        <time>2012-02-19T09:43:13Z</time>
      </trkpt>
      <trkpt lat="48.39362" lon="2.63438">
        <ele>130</ele>
        <time>2012-02-19T09:43:16Z</time>
      </trkpt>
      <trkpt lat="48.39372" lon="2.63468">
        <ele>130</ele>
        <time>2012-02-19T09:43:21Z</time>
      </trkpt>
      <trkpt lat="48.39381" lon="2.63538">
        <ele>128</ele>
        <time>2012-02-19T09:43:33Z</time>
      </trkpt>
      <trkpt lat="48.39382" lon="2.63545">
        <ele>128</ele>
        <time>2012-02-19T09:43:35Z</time>
      </trkpt>
      <trkpt lat="48.39384" lon="2.63554">
        <ele>128</ele>
        <time>2012-02-19T09:43:38Z</time>
      </trkpt>
      <trkpt lat="48.39384" lon="2.63606">
        <ele>127</ele>
        <time>2012-02-19T09:43:51Z</time>
      </trkpt>
      <trkpt lat="48.39388" lon="2.63631">
        <ele>126</ele>
        <time>2012-02-19T09:43:55Z</time>
      </trkpt>
      <trkpt lat="48.39395" lon="2.63655">
        <ele>127</ele>
        <time>2012-02-19T09:43:59Z</time>
      </trkpt>
      <trkpt lat="48.39398" lon="2.63683">
        <ele>126</ele>
        <time>2012-02-19T09:44:03Z</time>
      </trkpt>
      <trkpt lat="48.3941" lon="2.63705">
        <ele>126</ele>
        <time>2012-02-19T09:44:07Z</time>
      </trkpt>
      <trkpt lat="48.39416" lon="2.63713">
        <ele>126</ele>
        <time>2012-02-19T09:44:09Z</time>
      </trkpt>
      <trkpt lat="48.39436" lon="2.63771">
        <ele>130</ele>
        <time>2012-02-19T09:44:22Z</time>
      </trkpt>
      <trkpt lat="48.39452" lon="2.63785">
        <ele>131</ele>
        <time>2012-02-19T09:44:28Z</time>
      </trkpt>
      <trkpt lat="48.39471" lon="2.63739">
        <ele>133</ele>
        <time>2012-02-19T09:44:40Z</time>
      </trkpt>
      <trkpt lat="48.39485" lon="2.63672">
        <ele>134</ele>
        <time>2012-02-19T09:44:53Z</time>
      </trkpt>
      <trkpt lat="48.395" lon="2.63608">
        <ele>135</ele>
        <time>2012-02-19T09:45:06Z</time>
      </trkpt>
      <trkpt lat="48.39515" lon="2.63555">
        <ele>138</ele>
        <time>2012-02-19T09:45:17Z</time>
      </trkpt>
      <trkpt lat="48.39519" lon="2.63513">
        <ele>138</ele>
        <time>2012-02-19T09:45:26Z</time>
      </trkpt>
      <trkpt lat="48.39531" lon="2.63512">
        <ele>138</ele>
        <time>2012-02-19T09:45:32Z</time>
      </trkpt>
      <trkpt lat="48.39572" lon="2.63526">
        <ele>138</ele>
        <time>2012-02-19T09:45:45Z</time>
      </trkpt>
      <trkpt lat="48.39615" lon="2.63528">
        <ele>136</ele>
        <time>2012-02-19T09:45:56Z</time>
      </trkpt>
      <trkpt lat="48.39668" lon="2.63533">
        <ele>133</ele>
        <time>2012-02-19T09:46:07Z</time>
      </trkpt>
      <trkpt lat="48.39684" lon="2.63577">
        <ele>132</ele>
        <time>2012-02-19T09:46:14Z</time>
      </trkpt>
      <trkpt lat="48.39689" lon="2.63597">
        <ele>129</ele>
        <time>2012-02-19T09:46:16Z</time>
      </trkpt>
      <trkpt lat="48.39698" lon="2.63628">
        <ele>128</ele>
        <time>2012-02-19T09:46:19Z</time>
      </trkpt>
      <trkpt lat="48.39735" lon="2.63629">
        <ele>126</ele>
        <time>2012-02-19T09:46:25Z</time>
      </trkpt>
      <trkpt lat="48.39762" lon="2.63642">
        <ele>121</ele>
        <time>2012-02-19T09:46:29Z</time>
      </trkpt>
      <trkpt lat="48.39766" lon="2.63651">
        <ele>121</ele>
        <time>2012-02-19T09:46:30Z</time>
      </trkpt>
      <trkpt lat="48.39797" lon="2.63714">
        <ele>115</ele>
        <time>2012-02-19T09:46:36Z</time>
      </trkpt>
      <trkpt lat="48.39817" lon="2.63756">
        <ele>111</ele>
        <time>2012-02-19T09:46:41Z</time>
      </trkpt>
      <trkpt lat="48.39836" lon="2.63766">
        <ele>112</ele>
        <time>2012-02-19T09:46:49Z</time>
      </trkpt>
      <trkpt lat="48.3984" lon="2.63759">
        <ele>112</ele>
        <time>2012-02-19T09:46:52Z</time>
      </trkpt>
      <trkpt lat="48.39866" lon="2.6371">
        <ele>118</ele>
        <time>2012-02-19T09:47:09Z</time>
      </trkpt>
      <trkpt lat="48.39871" lon="2.63703">
        <ele>119</ele>
        <time>2012-02-19T09:47:12Z</time>
      </trkpt>
      <trkpt lat="48.39883" lon="2.63697">
        <ele>120</ele>
        <time>2012-02-19T09:47:21Z</time>
      </trkpt>
      <trkpt lat="48.39885" lon="2.63697">
        <ele>120</ele>
        <time>2012-02-19T09:47:22Z</time>
      </trkpt>
      <trkpt lat="48.3989" lon="2.63697">
        <ele>120</ele>
        <time>2012-02-19T09:47:25Z</time>
      </trkpt>
      <trkpt lat="48.39916" lon="2.6369">
        <ele>122</ele>
        <time>2012-02-19T09:47:40Z</time>
      </trkpt>
      <trkpt lat="48.39943" lon="2.63678">
        <ele>127</ele>
        <time>2012-02-19T09:47:55Z</time>
      </trkpt>
      <trkpt lat="48.39946" lon="2.6367">
        <ele>127</ele>
        <time>2012-02-19T09:47:59Z</time>
      </trkpt>
      <trkpt lat="48.39948" lon="2.63661">
        <ele>128</ele>
        <time>2012-02-19T09:48:02Z</time>
      </trkpt>
      <trkpt lat="48.39949" lon="2.63656">
        <ele>128</ele>
        <time>2012-02-19T09:48:04Z</time>
      </trkpt>
      <trkpt lat="48.39964" lon="2.63638">
        <ele>129</ele>
        <time>2012-02-19T09:48:13Z</time>
      </trkpt>
      <trkpt lat="48.39989" lon="2.63619">
        <ele>130</ele>
        <time>2012-02-19T09:48:26Z</time>
      </trkpt>
      <trkpt lat="48.39991" lon="2.63618">
        <ele>130</ele>
        <time>2012-02-19T09:48:27Z</time>
      </trkpt>
      <trkpt lat="48.40003" lon="2.63607">
        <ele>132</ele>
        <time>2012-02-19T09:48:33Z</time>
      </trkpt>
      <trkpt lat="48.40033" lon="2.6359">
        <ele>132</ele>
        <time>2012-02-19T09:48:47Z</time>
      </trkpt>
      <trkpt lat="48.40056" lon="2.63583">
        <ele>135</ele>
        <time>2012-02-19T09:48:58Z</time>
      </trkpt>
      <trkpt lat="48.40085" lon="2.63597">
        <ele>136</ele>
        <time>2012-02-19T09:49:12Z</time>
      </trkpt>
      <trkpt lat="48.40122" lon="2.63642">
        <ele>137</ele>
        <time>2012-02-19T09:49:31Z</time>
      </trkpt>
      <trkpt lat="48.40152" lon="2.6369">
        <ele>137</ele>
        <time>2012-02-19T09:49:47Z</time>
      </trkpt>
      <trkpt lat="48.4018" lon="2.63736">
        <ele>138</ele>
        <time>2012-02-19T09:50:02Z</time>
      </trkpt>
      <trkpt lat="48.40203" lon="2.6378">
        <ele>138</ele>
        <time>2012-02-19T09:50:14Z</time>
      </trkpt>
      <trkpt lat="48.40222" lon="2.63814">
        <ele>138</ele>
        <time>2012-02-19T09:50:27Z</time>
      </trkpt>
      <trkpt lat="48.40253" lon="2.63862">
        <ele>138</ele>
        <time>2012-02-19T09:50:41Z</time>
      </trkpt>
      <trkpt lat="48.40261" lon="2.63876">
        <ele>138</ele>
        <time>2012-02-19T09:50:45Z</time>
      </trkpt>
      <trkpt lat="48.40293" lon="2.63873">
        <ele>138</ele>
        <time>2012-02-19T09:50:56Z</time>
      </trkpt>
      <trkpt lat="48.40326" lon="2.63864">
        <ele>139</ele>
        <time>2012-02-19T09:51:05Z</time>
      </trkpt>
      <trkpt lat="48.40352" lon="2.63856">
        <ele>139</ele>
        <time>2012-02-19T09:51:13Z</time>
      </trkpt>
      <trkpt lat="48.40384" lon="2.63847">
        <ele>138</ele>
        <time>2012-02-19T09:51:23Z</time>
      </trkpt>
      <trkpt lat="48.40386" lon="2.63853">
        <ele>138</ele>
        <time>2012-02-19T09:51:25Z</time>
      </trkpt>
      <trkpt lat="48.40377" lon="2.6387">
        <ele>138</ele>
        <time>2012-02-19T09:51:30Z</time>
      </trkpt>
      <trkpt lat="48.40371" lon="2.63876">
        <ele>138</ele>
        <time>2012-02-19T09:51:32Z</time>
      </trkpt>
      <trkpt lat="48.4036" lon="2.63897">
        <ele>138</ele>
        <time>2012-02-19T09:51:37Z</time>
      </trkpt>
      <trkpt lat="48.40358" lon="2.6392">
        <ele>137</ele>
        <time>2012-02-19T09:51:42Z</time>
      </trkpt>
      <trkpt lat="48.40361" lon="2.63933">
        <ele>137</ele>
        <time>2012-02-19T09:51:44Z</time>
      </trkpt>
      <trkpt lat="48.40353" lon="2.63966">
        <ele>136</ele>
        <time>2012-02-19T09:51:51Z</time>
      </trkpt>
      <trkpt lat="48.40345" lon="2.63981">
        <ele>136</ele>
        <time>2012-02-19T09:51:55Z</time>
      </trkpt>
      <trkpt lat="48.40339" lon="2.63994">
        <ele>135</ele>
        <time>2012-02-19T09:51:58Z</time>
      </trkpt>
      <trkpt lat="48.4031" lon="2.64014">
        <ele>135</ele>
        <time>2012-02-19T09:52:08Z</time>
      </trkpt>
      <trkpt lat="48.40307" lon="2.6402">
        <ele>135</ele>
        <time>2012-02-19T09:52:09Z</time>
      </trkpt>
      <trkpt lat="48.40297" lon="2.64036">
        <ele>134</ele>
        <time>2012-02-19T09:52:12Z</time>
      </trkpt>
      <trkpt lat="48.4029" lon="2.64056">
        <ele>134</ele>
        <time>2012-02-19T09:52:15Z</time>
      </trkpt>
      <trkpt lat="48.40284" lon="2.64075">
        <ele>135</ele>
        <time>2012-02-19T09:52:18Z</time>
      </trkpt>
      <trkpt lat="48.40275" lon="2.64089">
        <ele>134</ele>
        <time>2012-02-19T09:52:21Z</time>
      </trkpt>
      <trkpt lat="48.40276" lon="2.64114">
        <ele>134</ele>
        <time>2012-02-19T09:52:25Z</time>
      </trkpt>
      <trkpt lat="48.40282" lon="2.6415">
        <ele>134</ele>
        <time>2012-02-19T09:52:31Z</time>
      </trkpt>
      <trkpt lat="48.40282" lon="2.64179">
        <ele>133</ele>
        <time>2012-02-19T09:52:35Z</time>
      </trkpt>
      <trkpt lat="48.40282" lon="2.64219">
        <ele>133</ele>
        <time>2012-02-19T09:52:41Z</time>
      </trkpt>
      <trkpt lat="48.40279" lon="2.6424">
        <ele>133</ele>
        <time>2012-02-19T09:52:45Z</time>
      </trkpt>
      <trkpt lat="48.40278" lon="2.64246">
        <ele>133</ele>
        <time>2012-02-19T09:52:47Z</time>
      </trkpt>
      <trkpt lat="48.4027" lon="2.64266">
        <ele>132</ele>
        <time>2012-02-19T09:52:51Z</time>
      </trkpt>
      <trkpt lat="48.40263" lon="2.64281">
        <ele>132</ele>
        <time>2012-02-19T09:52:54Z</time>
      </trkpt>
      <trkpt lat="48.40256" lon="2.64304">
        <ele>132</ele>
        <time>2012-02-19T09:52:58Z</time>
      </trkpt>
      <trkpt lat="48.40247" lon="2.64342">
        <ele>134</ele>
        <time>2012-02-19T09:53:04Z</time>
      </trkpt>
      <trkpt lat="48.40244" lon="2.64355">
        <ele>134</ele>
        <time>2012-02-19T09:53:06Z</time>
      </trkpt>
      <trkpt lat="48.40244" lon="2.64421">
        <ele>131</ele>
        <time>2012-02-19T09:53:16Z</time>
      </trkpt>
      <trkpt lat="48.40238" lon="2.64497">
        <ele>129</ele>
        <time>2012-02-19T09:53:28Z</time>
      </trkpt>
      <trkpt lat="48.40227" lon="2.64552">
        <ele>129</ele>
        <time>2012-02-19T09:53:37Z</time>
      </trkpt>
      <trkpt lat="48.40195" lon="2.64629">
        <ele>128</ele>
        <time>2012-02-19T09:53:52Z</time>
      </trkpt>
      <trkpt lat="48.40193" lon="2.64635">
        <ele>128</ele>
        <time>2012-02-19T09:53:53Z</time>
      </trkpt>
      <trkpt lat="48.40182" lon="2.64656">
        <ele>129</ele>
        <time>2012-02-19T09:53:57Z</time>
      </trkpt>
      <trkpt lat="48.40169" lon="2.64675">
        <ele>130</ele>
        <time>2012-02-19T09:54:01Z</time>
      </trkpt>
      <trkpt lat="48.40145" lon="2.64726">
        <ele>131</ele>
        <time>2012-02-19T09:54:11Z</time>
      </trkpt>
      <trkpt lat="48.40122" lon="2.64797">
        <ele>132</ele>
        <time>2012-02-19T09:54:23Z</time>
      </trkpt>
      <trkpt lat="48.40115" lon="2.64843">
        <ele>131</ele>
        <time>2012-02-19T09:54:30Z</time>
      </trkpt>
      <trkpt lat="48.40115" lon="2.64857">
        <ele>131</ele>
        <time>2012-02-19T09:54:32Z</time>
      </trkpt>
      <trkpt lat="48.40117" lon="2.64879">
        <ele>131</ele>
        <time>2012-02-19T09:54:35Z</time>
      </trkpt>
      <trkpt lat="48.40115" lon="2.64911">
        <ele>131</ele>
        <time>2012-02-19T09:54:39Z</time>
      </trkpt>
      <trkpt lat="48.40102" lon="2.64943">
        <ele>129</ele>
        <time>2012-02-19T09:54:48Z</time>
      </trkpt>
      <trkpt lat="48.40106" lon="2.64948">
        <ele>128</ele>
        <time>2012-02-19T09:54:51Z</time>
      </trkpt>
      <trkpt lat="48.40129" lon="2.64937">
        <ele>127</ele>
        <time>2012-02-19T09:55:01Z</time>
      </trkpt>
      <trkpt lat="48.40134" lon="2.64934">
        <ele>127</ele>
        <time>2012-02-19T09:55:03Z</time>
      </trkpt>
      <trkpt lat="48.40163" lon="2.64936">
        <ele>126</ele>
        <time>2012-02-19T09:55:10Z</time>
      </trkpt>
      <trkpt lat="48.40172" lon="2.64954">
        <ele>117</ele>
        <time>2012-02-19T09:55:15Z</time>
      </trkpt>
      <trkpt lat="48.40174" lon="2.64978">
        <ele>116</ele>
        <time>2012-02-19T09:55:21Z</time>
      </trkpt>
      <trkpt lat="48.40185" lon="2.64995">
        <ele>116</ele>
        <time>2012-02-19T09:55:26Z</time>
      </trkpt>
      <trkpt lat="48.40196" lon="2.64999">
        <ele>114</ele>
        <time>2012-02-19T09:55:28Z</time>
      </trkpt>
      <trkpt lat="48.40209" lon="2.65019">
        <ele>110</ele>
        <time>2012-02-19T09:55:31Z</time>
      </trkpt>
      <trkpt lat="48.40224" lon="2.65032">
        <ele>108</ele>
        <time>2012-02-19T09:55:34Z</time>
      </trkpt>
      <trkpt lat="48.40249" lon="2.6504">
        <ele>107</ele>
        <time>2012-02-19T09:55:40Z</time>
      </trkpt>
      <trkpt lat="48.40257" lon="2.65038">
        <ele>105</ele>
        <time>2012-02-19T09:55:42Z</time>
      </trkpt>
      <trkpt lat="48.40278" lon="2.65053">
        <ele>105</ele>
        <time>2012-02-19T09:55:51Z</time>
      </trkpt>
      <trkpt lat="48.40296" lon="2.65057">
        <ele>105</ele>
        <time>2012-02-19T09:55:57Z</time>
      </trkpt>
      <trkpt lat="48.40304" lon="2.65074">
        <ele>105</ele>
        <time>2012-02-19T09:56:03Z</time>
      </trkpt>
      <trkpt lat="48.40325" lon="2.65082">
        <ele>106</ele>
        <time>2012-02-19T09:56:11Z</time>
      </trkpt>
      <trkpt lat="48.4033" lon="2.65095">
        <ele>105</ele>
        <time>2012-02-19T09:56:15Z</time>
      </trkpt>
      <trkpt lat="48.40347" lon="2.65109">
        <ele>104</ele>
        <time>2012-02-19T09:56:24Z</time>
      </trkpt>
      <trkpt lat="48.40353" lon="2.65114">
        <ele>104</ele>
        <time>2012-02-19T09:56:25Z</time>
      </trkpt>
      <trkpt lat="48.40363" lon="2.65121">
        <ele>104</ele>
        <time>2012-02-19T09:56:27Z</time>
      </trkpt>
      <trkpt lat="48.40374" lon="2.65148">
        <ele>103</ele>
        <time>2012-02-19T09:56:36Z</time>
      </trkpt>
      <trkpt lat="48.40375" lon="2.65148">
        <ele>103</ele>
        <time>2012-02-19T09:56:45Z</time>
      </trkpt>
      <trkpt lat="48.40385" lon="2.6515">
        <ele>103</ele>
        <time>2012-02-19T09:56:55Z</time>
      </trkpt>
      <trkpt lat="48.40396" lon="2.65149">
        <ele>103</ele>
        <time>2012-02-19T09:57:11Z</time>
      </trkpt>
      <trkpt lat="48.40397" lon="2.65148">
        <ele>103</ele>
        <time>2012-02-19T10:04:24Z</time>
      </trkpt>
      <trkpt lat="48.40393" lon="2.65148">
        <ele>103</ele>
        <time>2012-02-19T10:04:31Z</time>
      </trkpt>
      <trkpt lat="48.40374" lon="2.65145">
        <ele>103</ele>
        <time>2012-02-19T10:04:41Z</time>
      </trkpt>
      <trkpt lat="48.40367" lon="2.65152">
        <ele>104</ele>
        <time>2012-02-19T10:04:45Z</time>
      </trkpt>
      <trkpt lat="48.40346" lon="2.65177">
        <ele>103</ele>
        <time>2012-02-19T10:04:58Z</time>
      </trkpt>
      <trkpt lat="48.40337" lon="2.65179">
        <ele>103</ele>
        <time>2012-02-19T10:05:03Z</time>
      </trkpt>
      <trkpt lat="48.40333" lon="2.65176">
        <ele>104</ele>
        <time>2012-02-19T10:05:05Z</time>
      </trkpt>
      <trkpt lat="48.40329" lon="2.65178">
        <ele>103</ele>
        <time>2012-02-19T10:05:07Z</time>
      </trkpt>
      <trkpt lat="48.40317" lon="2.65185">
        <ele>103</ele>
        <time>2012-02-19T10:05:14Z</time>
      </trkpt>
      <trkpt lat="48.40313" lon="2.65183">
        <ele>103</ele>
        <time>2012-02-19T10:05:16Z</time>
      </trkpt>
      <trkpt lat="48.403" lon="2.65179">
        <ele>103</ele>
        <time>2012-02-19T10:05:21Z</time>
      </trkpt>
      <trkpt lat="48.40296" lon="2.65175">
        <ele>103</ele>
        <time>2012-02-19T10:05:23Z</time>
      </trkpt>
      <trkpt lat="48.4028" lon="2.65175">
        <ele>102</ele>
        <time>2012-02-19T10:05:28Z</time>
      </trkpt>
      <trkpt lat="48.40256" lon="2.65157">
        <ele>102</ele>
        <time>2012-02-19T10:05:36Z</time>
      </trkpt>
      <trkpt lat="48.40244" lon="2.65141">
        <ele>104</ele>
        <time>2012-02-19T10:05:40Z</time>
      </trkpt>
      <trkpt lat="48.40238" lon="2.65129">
        <ele>104</ele>
        <time>2012-02-19T10:05:42Z</time>
      </trkpt>
      <trkpt lat="48.40233" lon="2.65116">
        <ele>105</ele>
        <time>2012-02-19T10:05:44Z</time>
      </trkpt>
      <trkpt lat="48.40226" lon="2.65092">
        <ele>105</ele>
        <time>2012-02-19T10:05:48Z</time>
      </trkpt>
      <trkpt lat="48.40216" lon="2.65027">
        <ele>109</ele>
        <time>2012-02-19T10:06:00Z</time>
      </trkpt>
      <trkpt lat="48.40203" lon="2.65001">
        <ele>111</ele>
        <time>2012-02-19T10:06:10Z</time>
      </trkpt>
      <trkpt lat="48.40191" lon="2.64994">
        <ele>115</ele>
        <time>2012-02-19T10:06:17Z</time>
      </trkpt>
      <trkpt lat="48.40185" lon="2.6499">
        <ele>116</ele>
        <time>2012-02-19T10:06:21Z</time>
      </trkpt>
      <trkpt lat="48.40182" lon="2.64982">
        <ele>116</ele>
        <time>2012-02-19T10:06:25Z</time>
      </trkpt>
      <trkpt lat="48.40176" lon="2.64978">
        <ele>116</ele>
        <time>2012-02-19T10:06:36Z</time>
      </trkpt>
      <trkpt lat="48.40177" lon="2.64971">
        <ele>116</ele>
        <time>2012-02-19T10:06:48Z</time>
      </trkpt>
      <trkpt lat="48.40176" lon="2.64964">
        <ele>116</ele>
        <time>2012-02-19T10:07:01Z</time>
      </trkpt>
      <trkpt lat="48.40176" lon="2.64962">
        <ele>116</ele>
        <time>2012-02-19T10:07:04Z</time>
      </trkpt>
      <trkpt lat="48.40171" lon="2.64951">
        <ele>117</ele>
        <time>2012-02-19T10:07:16Z</time>
      </trkpt>
      <trkpt lat="48.40167" lon="2.64941">
        <ele>119</ele>
        <time>2012-02-19T10:07:32Z</time>
      </trkpt>
      <trkpt lat="48.40162" lon="2.64932">
        <ele>126</ele>
        <time>2012-02-19T10:07:45Z</time>
      </trkpt>
      <trkpt lat="48.40161" lon="2.64932">
        <ele>126</ele>
        <time>2012-02-19T10:07:47Z</time>
      </trkpt>
      <trkpt lat="48.40154" lon="2.6493">
        <ele>126</ele>
        <time>2012-02-19T10:07:53Z</time>
      </trkpt>
      <trkpt lat="48.40141" lon="2.6493">
        <ele>126</ele>
        <time>2012-02-19T10:08:04Z</time>
      </trkpt>
      <trkpt lat="48.4013" lon="2.64936">
        <ele>127</ele>
        <time>2012-02-19T10:08:19Z</time>
      </trkpt>
      <trkpt lat="48.40114" lon="2.64941">
        <ele>128</ele>
        <time>2012-02-19T10:08:27Z</time>
      </trkpt>
      <trkpt lat="48.40104" lon="2.64945">
        <ele>128</ele>
        <time>2012-02-19T10:08:31Z</time>
      </trkpt>
      <trkpt lat="48.40065" lon="2.64947">
        <ele>129</ele>
        <time>2012-02-19T10:08:44Z</time>
      </trkpt>
      <trkpt lat="48.40029" lon="2.64933">
        <ele>127</ele>
        <time>2012-02-19T10:08:59Z</time>
      </trkpt>
      <trkpt lat="48.40019" lon="2.64927">
        <ele>126</ele>
        <time>2012-02-19T10:09:03Z</time>
      </trkpt>
      <trkpt lat="48.40011" lon="2.64929">
        <ele>126</ele>
        <time>2012-02-19T10:09:07Z</time>
      </trkpt>
      <trkpt lat="48.40009" lon="2.6493">
        <ele>126</ele>
        <time>2012-02-19T10:09:09Z</time>
      </trkpt>
      <trkpt lat="48.39988" lon="2.64927">
        <ele>120</ele>
        <time>2012-02-19T10:09:19Z</time>
      </trkpt>
      <trkpt lat="48.39985" lon="2.64927">
        <ele>120</ele>
        <time>2012-02-19T10:09:21Z</time>
      </trkpt>
      <trkpt lat="48.39979" lon="2.64925">
        <ele>119</ele>
        <time>2012-02-19T10:09:25Z</time>
      </trkpt>
      <trkpt lat="48.39964" lon="2.64907">
        <ele>116</ele>
        <time>2012-02-19T10:09:34Z</time>
      </trkpt>
      <trkpt lat="48.39965" lon="2.64895">
        <ele>116</ele>
        <time>2012-02-19T10:09:36Z</time>
      </trkpt>
      <trkpt lat="48.39963" lon="2.64871">
        <ele>116</ele>
        <time>2012-02-19T10:09:40Z</time>
      </trkpt>
      <trkpt lat="48.39949" lon="2.64856">
        <ele>114</ele>
        <time>2012-02-19T10:09:44Z</time>
      </trkpt>
      <trkpt lat="48.39931" lon="2.64832">
        <ele>111</ele>
        <time>2012-02-19T10:09:49Z</time>
      </trkpt>
      <trkpt lat="48.39928" lon="2.64824">
        <ele>110</ele>
        <time>2012-02-19T10:09:52Z</time>
      </trkpt>
      <trkpt lat="48.39919" lon="2.6482">
        <ele>110</ele>
        <time>2012-02-19T10:09:57Z</time>
      </trkpt>
      <trkpt lat="48.39892" lon="2.64898">
        <ele>106</ele>
        <time>2012-02-19T10:10:15Z</time>
      </trkpt>
      <trkpt lat="48.39883" lon="2.64931">
        <ele>105</ele>
        <time>2012-02-19T10:10:22Z</time>
      </trkpt>
      <trkpt lat="48.39858" lon="2.64966">
        <ele>103</ele>
        <time>2012-02-19T10:10:29Z</time>
      </trkpt>
      <trkpt lat="48.39832" lon="2.65003">
        <ele>100</ele>
        <time>2012-02-19T10:10:37Z</time>
      </trkpt>
      <trkpt lat="48.39814" lon="2.65029">
        <ele>99</ele>
        <time>2012-02-19T10:10:43Z</time>
      </trkpt>
      <trkpt lat="48.39819" lon="2.65037">
        <ele>99</ele>
        <time>2012-02-19T10:10:47Z</time>
      </trkpt>
      <trkpt lat="48.39853" lon="2.65075">
        <ele>104</ele>
        <time>2012-02-19T10:11:04Z</time>
      </trkpt>
      <trkpt lat="48.39871" lon="2.65117">
        <ele>109</ele>
        <time>2012-02-19T10:11:19Z</time>
      </trkpt>
      <trkpt lat="48.39873" lon="2.65119">
        <ele>109</ele>
        <time>2012-02-19T10:11:20Z</time>
      </trkpt>
      <trkpt lat="48.39892" lon="2.65178">
        <ele>114</ele>
        <time>2012-02-19T10:11:42Z</time>
      </trkpt>
      <trkpt lat="48.39905" lon="2.65208">
        <ele>114</ele>
        <time>2012-02-19T10:11:57Z</time>
      </trkpt>
      <trkpt lat="48.39921" lon="2.65223">
        <ele>123</ele>
        <time>2012-02-19T10:12:09Z</time>
      </trkpt>
      <trkpt lat="48.39941" lon="2.65233">
        <ele>124</ele>
        <time>2012-02-19T10:12:24Z</time>
      </trkpt>
      <trkpt lat="48.39953" lon="2.65258">
        <ele>124</ele>
        <time>2012-02-19T10:12:38Z</time>
      </trkpt>
      <trkpt lat="48.39959" lon="2.65254">
        <ele>125</ele>
        <time>2012-02-19T10:12:42Z</time>
      </trkpt>
      <trkpt lat="48.39961" lon="2.65252">
        <ele>125</ele>
        <time>2012-02-19T10:12:44Z</time>
      </trkpt>
      <trkpt lat="48.39963" lon="2.65244">
        <ele>126</ele>
        <time>2012-02-19T10:12:48Z</time>
      </trkpt>
      <trkpt lat="48.39963" lon="2.65234">
        <ele>125</ele>
        <time>2012-02-19T10:12:53Z</time>
      </trkpt>
      <trkpt lat="48.39964" lon="2.65177">
        <ele>125</ele>
        <time>2012-02-19T10:13:13Z</time>
      </trkpt>
      <trkpt lat="48.39966" lon="2.65161">
        <ele>124</ele>
        <time>2012-02-19T10:13:17Z</time>
      </trkpt>
      <trkpt lat="48.39986" lon="2.65117">
        <ele>124</ele>
        <time>2012-02-19T10:13:29Z</time>
      </trkpt>
      <trkpt lat="48.40012" lon="2.651">
        <ele>127</ele>
        <time>2012-02-19T10:13:41Z</time>
      </trkpt>
      <trkpt lat="48.40024" lon="2.65099">
        <ele>127</ele>
        <time>2012-02-19T10:13:46Z</time>
      </trkpt>
      <trkpt lat="48.40063" lon="2.65109">
        <ele>127</ele>
        <time>2012-02-19T10:13:58Z</time>
      </trkpt>
      <trkpt lat="48.40073" lon="2.65115">
        <ele>127</ele>
        <time>2012-02-19T10:14:01Z</time>
      </trkpt>
      <trkpt lat="48.40077" lon="2.65133">
        <ele>127</ele>
        <time>2012-02-19T10:14:06Z</time>
      </trkpt>
      <trkpt lat="48.40068" lon="2.65159">
        <ele>126</ele>
        <time>2012-02-19T10:14:12Z</time>
      </trkpt>
      <trkpt lat="48.40067" lon="2.65174">
        <ele>125</ele>
        <time>2012-02-19T10:14:15Z</time>
      </trkpt>
      <trkpt lat="48.40063" lon="2.6521">
        <ele>125</ele>
        <time>2012-02-19T10:14:21Z</time>
      </trkpt>
      <trkpt lat="48.40038" lon="2.65273">
        <ele>125</ele>
        <time>2012-02-19T10:14:34Z</time>
      </trkpt>
      <trkpt lat="48.4004" lon="2.65296">
        <ele>124</ele>
        <time>2012-02-19T10:14:38Z</time>
      </trkpt>
      <trkpt lat="48.40035" lon="2.6533">
        <ele>124</ele>
        <time>2012-02-19T10:14:44Z</time>
      </trkpt>
      <trkpt lat="48.4003" lon="2.65349">
        <ele>123</ele>
        <time>2012-02-19T10:14:47Z</time>
      </trkpt>
      <trkpt lat="48.4003" lon="2.65375">
        <ele>122</ele>
        <time>2012-02-19T10:14:51Z</time>
      </trkpt>
      <trkpt lat="48.40026" lon="2.65401">
        <ele>122</ele>
        <time>2012-02-19T10:14:56Z</time>
      </trkpt>
      <trkpt lat="48.39997" lon="2.65429">
        <ele>121</ele>
        <time>2012-02-19T10:15:08Z</time>
      </trkpt>
      <trkpt lat="48.39994" lon="2.65438">
        <ele>119</ele>
        <time>2012-02-19T10:15:11Z</time>
      </trkpt>
      <trkpt lat="48.39988" lon="2.65445">
        <ele>118</ele>
        <time>2012-02-19T10:15:14Z</time>
      </trkpt>
      <trkpt lat="48.39985" lon="2.65461">
        <ele>117</ele>
        <time>2012-02-19T10:15:19Z</time>
      </trkpt>
      <trkpt lat="48.39984" lon="2.65501">
        <ele>116</ele>
        <time>2012-02-19T10:15:29Z</time>
      </trkpt>
      <trkpt lat="48.39991" lon="2.65506">
        <ele>117</ele>
        <time>2012-02-19T10:15:42Z</time>
      </trkpt>
      <trkpt lat="48.39992" lon="2.65508">
        <ele>117</ele>
        <time>2012-02-19T10:15:44Z</time>
      </trkpt>
      <trkpt lat="48.39999" lon="2.65522">
        <ele>115</ele>
        <time>2012-02-19T10:15:56Z</time>
      </trkpt>
      <trkpt lat="48.40002" lon="2.6553">
        <ele>115</ele>
        <time>2012-02-19T10:16:09Z</time>
      </trkpt>
      <trkpt lat="48.40004" lon="2.65542">
        <ele>114</ele>
        <time>2012-02-19T10:16:22Z</time>
      </trkpt>
      <trkpt lat="48.40007" lon="2.65548">
        <ele>114</ele>
        <time>2012-02-19T10:16:41Z</time>
      </trkpt>
      <trkpt lat="48.40011" lon="2.6554">
        <ele>114</ele>
        <time>2012-02-19T10:16:50Z</time>
      </trkpt>
      <trkpt lat="48.40014" lon="2.65539">
        <ele>114</ele>
        <time>2012-02-19T10:16:52Z</time>
      </trkpt>
      <trkpt lat="48.40017" lon="2.65535">
        <ele>114</ele>
        <time>2012-02-19T10:16:58Z</time>
      </trkpt>
      <trkpt lat="48.40026" lon="2.65545">
        <ele>113</ele>
        <time>2012-02-19T10:17:04Z</time>
      </trkpt>
      <trkpt lat="48.40039" lon="2.65549">
        <ele>113</ele>
        <time>2012-02-19T10:17:15Z</time>
      </trkpt>
      <trkpt lat="48.4004" lon="2.65553">
        <ele>112</ele>
        <time>2011-11-27T11:32:32Z</time>
      </trkpt>
      <trkpt lat="48.40045" lon="2.65551">
        <ele>112</ele>
        <time>2011-11-27T11:32:52Z</time>
      </trkpt>
      <trkpt lat="48.4005" lon="2.65547">
        <ele>112</ele>
        <time>2011-11-27T11:33:03Z</time>
      </trkpt>
      <trkpt lat="48.40056" lon="2.65544">
        <ele>112</ele>
        <time>2011-11-27T11:33:15Z</time>
      </trkpt>
      <trkpt lat="48.40062" lon="2.65539">
        <ele>111</ele>
        <time>2011-11-27T11:33:19Z</time>
      </trkpt>
      <trkpt lat="48.40072" lon="2.6553">
        <ele>111</ele>
        <time>2011-11-27T11:33:30Z</time>
      </trkpt>
      <trkpt lat="48.40082" lon="2.65532">
        <ele>111</ele>
        <time>2011-11-27T11:33:36Z</time>
      </trkpt>
      <trkpt lat="48.40095" lon="2.65526">
        <ele>104</ele>
        <time>2011-11-27T11:33:42Z</time>
      </trkpt>
      <trkpt lat="48.40109" lon="2.65522">
        <ele>103</ele>
        <time>2011-11-27T11:33:46Z</time>
      </trkpt>
      <trkpt lat="48.4012" lon="2.65502">
        <ele>103</ele>
        <time>2011-11-27T11:33:50Z</time>
      </trkpt>
      <trkpt lat="48.40124" lon="2.65489">
        <ele>104</ele>
        <time>2011-11-27T11:33:53Z</time>
      </trkpt>
      <trkpt lat="48.40149" lon="2.65444">
        <ele>103</ele>
        <time>2011-11-27T11:34:04Z</time>
      </trkpt>
      <trkpt lat="48.40156" lon="2.65431">
        <ele>102</ele>
        <time>2011-11-27T11:34:08Z</time>
      </trkpt>
      <trkpt lat="48.4016" lon="2.6543">
        <ele>102</ele>
        <time>2011-11-27T11:34:10Z</time>
      </trkpt>
      <trkpt lat="48.40161" lon="2.65419">
        <ele>101</ele>
        <time>2012-02-19T10:19:26Z</time>
      </trkpt>
      <trkpt lat="48.40174" lon="2.65399">
        <ele>103</ele>
        <time>2012-02-19T10:19:33Z</time>
      </trkpt>
      <trkpt lat="48.40184" lon="2.65375">
        <ele>104</ele>
        <time>2012-02-19T10:19:40Z</time>
      </trkpt>
      <trkpt lat="48.40189" lon="2.65371">
        <ele>104</ele>
        <time>2012-02-19T10:19:42Z</time>
      </trkpt>
      <trkpt lat="48.40196" lon="2.65355">
        <ele>104</ele>
        <time>2012-02-19T10:19:49Z</time>
      </trkpt>
      <trkpt lat="48.40202" lon="2.65349">
        <ele>105</ele>
        <time>2012-02-19T10:20:01Z</time>
      </trkpt>
      <trkpt lat="48.40207" lon="2.65346">
        <ele>105</ele>
        <time>2012-02-19T10:20:13Z</time>
      </trkpt>
      <trkpt lat="48.40212" lon="2.65344">
        <ele>105</ele>
        <time>2012-02-19T10:20:27Z</time>
      </trkpt>
      <trkpt lat="48.4022" lon="2.65348">
        <ele>106</ele>
        <time>2012-02-19T10:20:56Z</time>
      </trkpt>
      <trkpt lat="48.40223" lon="2.65348">
        <ele>106</ele>
        <time>2012-02-19T10:21:18Z</time>
      </trkpt>
      <trkpt lat="48.40224" lon="2.65348">
        <ele>106</ele>
        <time>2012-02-19T10:21:33Z</time>
      </trkpt>
      <trkpt lat="48.4023" lon="2.6535">
        <ele>106</ele>
        <time>2012-02-19T10:21:37Z</time>
      </trkpt>
      <trkpt lat="48.40234" lon="2.65359">
        <ele>106</ele>
        <time>2012-02-19T10:21:41Z</time>
      </trkpt>
      <trkpt lat="48.40238" lon="2.65357">
        <ele>107</ele>
        <time>2012-02-19T10:21:45Z</time>
      </trkpt>
      <trkpt lat="48.40252" lon="2.65339">
        <ele>108</ele>
        <time>2012-02-19T10:21:52Z</time>
      </trkpt>
      <trkpt lat="48.40265" lon="2.65328">
        <ele>107</ele>
        <time>2012-02-19T10:22:03Z</time>
      </trkpt>
      <trkpt lat="48.40276" lon="2.65297">
        <ele>105</ele>
        <time>2012-02-19T10:22:13Z</time>
      </trkpt>
      <trkpt lat="48.40288" lon="2.65281">
        <ele>105</ele>
        <time>2012-02-19T10:22:20Z</time>
      </trkpt>
      <trkpt lat="48.4029" lon="2.65283">
        <ele>105</ele>
        <time>2012-02-19T10:22:23Z</time>
      </trkpt>
      <trkpt lat="48.40293" lon="2.65287">
        <ele>105</ele>
        <time>2012-02-19T10:22:27Z</time>
      </trkpt>
      <trkpt lat="48.40298" lon="2.65287">
        <ele>105</ele>
        <time>2012-02-19T10:22:30Z</time>
      </trkpt>
      <trkpt lat="48.40311" lon="2.65302">
        <ele>105</ele>
        <time>2012-02-19T10:22:37Z</time>
      </trkpt>
      <trkpt lat="48.40316" lon="2.65312">
        <ele>105</ele>
        <time>2012-02-19T10:22:41Z</time>
      </trkpt>
      <trkpt lat="48.40323" lon="2.65312">
        <ele>105</ele>
        <time>2012-02-19T10:22:45Z</time>
      </trkpt>
      <trkpt lat="48.40327" lon="2.65314">
        <ele>105</ele>
        <time>2012-02-19T10:22:48Z</time>
      </trkpt>
      <trkpt lat="48.40324" lon="2.65328">
        <ele>105</ele>
        <time>2012-02-19T10:23:00Z</time>
      </trkpt>
      <trkpt lat="48.40329" lon="2.65333">
        <ele>105</ele>
        <time>2012-02-19T10:23:04Z</time>
      </trkpt>
      <trkpt lat="48.40332" lon="2.65342">
        <ele>105</ele>
        <time>2012-02-19T10:23:11Z</time>
      </trkpt>
      <trkpt lat="48.40332" lon="2.65382">
        <ele>104</ele>
        <time>2012-02-19T10:23:21Z</time>
      </trkpt>
      <trkpt lat="48.40334" lon="2.65394">
        <ele>100</ele>
        <time>2012-02-19T10:23:23Z</time>
      </trkpt>
      <trkpt lat="48.40338" lon="2.65407">
        <ele>100</ele>
        <time>2012-02-19T10:23:27Z</time>
      </trkpt>
      <trkpt lat="48.40341" lon="2.6542">
        <ele>99</ele>
        <time>2012-02-19T10:23:31Z</time>
      </trkpt>
      <trkpt lat="48.40346" lon="2.65432">
        <ele>99</ele>
        <time>2012-02-19T10:23:35Z</time>
      </trkpt>
      <trkpt lat="48.40368" lon="2.65508">
        <ele>98</ele>
        <time>2012-02-19T10:23:51Z</time>
      </trkpt>
      <trkpt lat="48.40376" lon="2.65525">
        <ele>98</ele>
        <time>2012-02-19T10:23:55Z</time>
      </trkpt>
      <trkpt lat="48.40385" lon="2.65514">
        <ele>98</ele>
        <time>2012-02-19T10:24:03Z</time>
      </trkpt>
      <trkpt lat="48.40392" lon="2.65457">
        <ele>98</ele>
        <time>2012-02-19T10:24:16Z</time>
      </trkpt>
      <trkpt lat="48.40402" lon="2.65382">
        <ele>99</ele>
        <time>2012-02-19T10:24:30Z</time>
      </trkpt>
      <trkpt lat="48.40413" lon="2.6529">
        <ele>100</ele>
        <time>2012-02-19T10:24:47Z</time>
      </trkpt>
      <trkpt lat="48.40417" lon="2.65267">
        <ele>101</ele>
        <time>2012-02-19T10:24:56Z</time>
      </trkpt>
      <trkpt lat="48.40434" lon="2.65315">
        <ele>101</ele>
        <time>2012-02-19T10:25:09Z</time>
      </trkpt>
      <trkpt lat="48.40441" lon="2.65347">
        <ele>101</ele>
        <time>2012-02-19T10:25:16Z</time>
      </trkpt>
      <trkpt lat="48.40455" lon="2.65362">
        <ele>102</ele>
        <time>2012-02-19T10:25:25Z</time>
      </trkpt>
      <trkpt lat="48.40459" lon="2.65363">
        <ele>103</ele>
        <time>2012-02-19T10:25:27Z</time>
      </trkpt>
      <trkpt lat="48.40467" lon="2.65361">
        <ele>103</ele>
        <time>2012-02-19T10:25:31Z</time>
      </trkpt>
      <trkpt lat="48.40472" lon="2.65359">
        <ele>103</ele>
        <time>2012-02-19T10:25:34Z</time>
      </trkpt>
      <trkpt lat="48.40481" lon="2.65361">
        <ele>104</ele>
        <time>2012-02-19T10:25:38Z</time>
      </trkpt>
      <trkpt lat="48.40489" lon="2.65362">
        <ele>104</ele>
        <time>2012-02-19T10:25:43Z</time>
      </trkpt>
      <trkpt lat="48.40505" lon="2.65358">
        <ele>110</ele>
        <time>2012-02-19T10:25:52Z</time>
      </trkpt>
      <trkpt lat="48.40519" lon="2.65358">
        <ele>111</ele>
        <time>2012-02-19T10:25:59Z</time>
      </trkpt>
      <trkpt lat="48.40536" lon="2.65379">
        <ele>112</ele>
        <time>2012-02-19T10:26:09Z</time>
      </trkpt>
      <trkpt lat="48.40542" lon="2.65388">
        <ele>112</ele>
        <time>2012-02-19T10:26:14Z</time>
      </trkpt>
      <trkpt lat="48.40553" lon="2.65404">
        <ele>113</ele>
        <time>2012-02-19T10:26:21Z</time>
      </trkpt>
      <trkpt lat="48.40564" lon="2.65408">
        <ele>114</ele>
        <time>2012-02-19T10:26:26Z</time>
      </trkpt>
      <trkpt lat="48.40571" lon="2.65402">
        <ele>114</ele>
        <time>2012-02-19T10:26:30Z</time>
      </trkpt>
      <trkpt lat="48.40579" lon="2.65401">
        <ele>115</ele>
        <time>2012-02-19T10:26:35Z</time>
      </trkpt>
      <trkpt lat="48.40599" lon="2.65393">
        <ele>118</ele>
        <time>2012-02-19T10:26:47Z</time>
      </trkpt>
      <trkpt lat="48.40605" lon="2.65392">
        <ele>118</ele>
        <time>2012-02-19T10:26:50Z</time>
      </trkpt>
      <trkpt lat="48.40616" lon="2.65399">
        <ele>118</ele>
        <time>2012-02-19T10:26:57Z</time>
      </trkpt>
      <trkpt lat="48.4062" lon="2.65403">
        <ele>118</ele>
        <time>2012-02-19T10:27:00Z</time>
      </trkpt>
      <trkpt lat="48.40617" lon="2.65413">
        <ele>118</ele>
        <time>2012-02-19T10:27:08Z</time>
      </trkpt>
      <trkpt lat="48.40623" lon="2.6542">
        <ele>119</ele>
        <time>2012-02-19T10:27:14Z</time>
      </trkpt>
      <trkpt lat="48.40624" lon="2.65424">
        <ele>119</ele>
        <time>2012-02-19T10:27:31Z</time>
      </trkpt>
      <trkpt lat="48.40621" lon="2.65431">
        <ele>119</ele>
        <time>2012-02-19T10:27:41Z</time>
      </trkpt>
      <trkpt lat="48.40614" lon="2.6544">
        <ele>119</ele>
        <time>2012-02-19T10:27:49Z</time>
      </trkpt>
      <trkpt lat="48.40607" lon="2.65438">
        <ele>119</ele>
        <time>2012-02-19T10:27:54Z</time>
      </trkpt>
      <trkpt lat="48.40601" lon="2.65425">
        <ele>118</ele>
        <time>2012-02-19T10:28:03Z</time>
      </trkpt>
      <trkpt lat="48.40599" lon="2.65428">
        <ele>118</ele>
        <time>2012-02-19T10:28:05Z</time>
      </trkpt>
      <trkpt lat="48.40595" lon="2.65434">
        <ele>119</ele>
        <time>2012-02-19T10:28:08Z</time>
      </trkpt>
      <trkpt lat="48.40591" lon="2.65438">
        <ele>119</ele>
        <time>2012-02-19T10:28:11Z</time>
      </trkpt>
      <trkpt lat="48.40587" lon="2.65434">
        <ele>118</ele>
        <time>2012-02-19T10:28:18Z</time>
      </trkpt>
      <trkpt lat="48.40577" lon="2.65436">
        <ele>116</ele>
        <time>2012-02-19T10:28:28Z</time>
      </trkpt>
      <trkpt lat="48.40573" lon="2.65441">
        <ele>116</ele>
        <time>2012-02-19T10:28:46Z</time>
      </trkpt>
      <trkpt lat="48.40569" lon="2.65442">
        <ele>116</ele>
        <time>2012-02-19T10:29:02Z</time>
      </trkpt>
      <trkpt lat="48.40556" lon="2.65441">
        <ele>115</ele>
        <time>2012-02-19T10:29:23Z</time>
      </trkpt>
      <trkpt lat="48.40535" lon="2.65446">
        <ele>114</ele>
        <time>2012-02-19T10:29:31Z</time>
      </trkpt>
      <trkpt lat="48.40528" lon="2.65445">
        <ele>114</ele>
        <time>2012-02-19T10:29:36Z</time>
      </trkpt>
      <trkpt lat="48.40525" lon="2.6545">
        <ele>114</ele>
        <time>2012-02-19T10:29:38Z</time>
      </trkpt>
      <trkpt lat="48.4052" lon="2.6545">
        <ele>114</ele>
        <time>2012-02-19T10:29:41Z</time>
      </trkpt>
      <trkpt lat="48.4051" lon="2.65456">
        <ele>114</ele>
        <time>2012-02-19T10:29:45Z</time>
      </trkpt>
      <trkpt lat="48.40496" lon="2.65461">
        <ele>107</ele>
        <time>2012-02-19T10:29:51Z</time>
      </trkpt>
      <trkpt lat="48.40494" lon="2.65463">
        <ele>107</ele>
        <time>2012-02-19T10:29:53Z</time>
      </trkpt>
      <trkpt lat="48.40492" lon="2.65464">
        <ele>107</ele>
        <time>2012-02-19T10:29:55Z</time>
      </trkpt>
      <trkpt lat="48.40486" lon="2.65459">
        <ele>106</ele>
        <time>2012-02-19T10:30:01Z</time>
      </trkpt>
      <trkpt lat="48.4048" lon="2.65464">
        <ele>106</ele>
        <time>2012-02-19T10:30:04Z</time>
      </trkpt>
      <trkpt lat="48.40475" lon="2.65465">
        <ele>106</ele>
        <time>2012-02-19T10:30:09Z</time>
      </trkpt>
      <trkpt lat="48.40472" lon="2.65458">
        <ele>105</ele>
        <time>2012-02-19T10:30:17Z</time>
      </trkpt>
      <trkpt lat="48.4047" lon="2.65453">
        <ele>105</ele>
        <time>2012-02-19T10:30:19Z</time>
      </trkpt>
      <trkpt lat="48.40455" lon="2.65451">
        <ele>104</ele>
        <time>2012-02-19T10:30:26Z</time>
      </trkpt>
      <trkpt lat="48.40443" lon="2.65462">
        <ele>103</ele>
        <time>2012-02-19T10:30:30Z</time>
      </trkpt>
      <trkpt lat="48.40437" lon="2.65472">
        <ele>103</ele>
        <time>2012-02-19T10:30:32Z</time>
      </trkpt>
      <trkpt lat="48.40431" lon="2.65478">
        <ele>102</ele>
        <time>2012-02-19T10:30:34Z</time>
      </trkpt>
      <trkpt lat="48.40425" lon="2.65494">
        <ele>101</ele>
        <time>2012-02-19T10:30:41Z</time>
      </trkpt>
      <trkpt lat="48.40424" lon="2.65509">
        <ele>102</ele>
        <time>2012-02-19T10:30:51Z</time>
      </trkpt>
      <trkpt lat="48.40422" lon="2.65513">
        <ele>102</ele>
        <time>2012-02-19T10:31:02Z</time>
      </trkpt>
      <trkpt lat="48.40419" lon="2.65518">
        <ele>103</ele>
        <time>2012-02-19T10:31:07Z</time>
      </trkpt>
      <trkpt lat="48.40422" lon="2.65531">
        <ele>104</ele>
        <time>2012-02-19T10:31:18Z</time>
      </trkpt>
      <trkpt lat="48.40423" lon="2.65533">
        <ele>104</ele>
        <time>2012-02-19T10:31:20Z</time>
      </trkpt>
      <trkpt lat="48.40434" lon="2.65568">
        <ele>104</ele>
        <time>2012-02-19T10:31:30Z</time>
      </trkpt>
      <trkpt lat="48.40438" lon="2.65597">
        <ele>104</ele>
        <time>2012-02-19T10:31:36Z</time>
      </trkpt>
      <trkpt lat="48.40455" lon="2.65623">
        <ele>105</ele>
        <time>2012-02-19T10:31:43Z</time>
      </trkpt>
      <trkpt lat="48.4046" lon="2.65639">
        <ele>105</ele>
        <time>2012-02-19T10:31:46Z</time>
      </trkpt>
      <trkpt lat="48.40481" lon="2.65658">
        <ele>106</ele>
        <time>2012-02-19T10:31:53Z</time>
      </trkpt>
      <trkpt lat="48.40488" lon="2.65678">
        <ele>105</ele>
        <time>2012-02-19T10:31:57Z</time>
      </trkpt>
      <trkpt lat="48.40489" lon="2.65688">
        <ele>104</ele>
        <time>2012-02-19T10:31:59Z</time>
      </trkpt>
      <trkpt lat="48.40492" lon="2.65698">
        <ele>104</ele>
        <time>2012-02-19T10:32:02Z</time>
      </trkpt>
      <trkpt lat="48.40496" lon="2.6571">
        <ele>103</ele>
        <time>2012-02-19T10:32:09Z</time>
      </trkpt>
      <trkpt lat="48.40499" lon="2.65724">
        <ele>103</ele>
        <time>2012-02-19T10:32:14Z</time>
      </trkpt>
      <trkpt lat="48.40497" lon="2.65743">
        <ele>104</ele>
        <time>2012-02-19T10:32:17Z</time>
      </trkpt>
      <trkpt lat="48.40494" lon="2.65766">
        <ele>103</ele>
        <time>2012-02-19T10:32:25Z</time>
      </trkpt>
      <trkpt lat="48.40495" lon="2.65795">
        <ele>102</ele>
        <time>2012-02-19T10:32:37Z</time>
      </trkpt>
      <trkpt lat="48.40496" lon="2.65797">
        <ele>102</ele>
        <time>2012-02-19T10:32:40Z</time>
      </trkpt>
      <trkpt lat="48.40497" lon="2.65801">
        <ele>102</ele>
        <time>2012-02-19T10:32:42Z</time>
      </trkpt>
      <trkpt lat="48.4049" lon="2.65808">
        <ele>102</ele>
        <time>2012-02-19T10:32:47Z</time>
      </trkpt>
      <trkpt lat="48.40475" lon="2.6582">
        <ele>101</ele>
        <time>2012-02-19T10:32:54Z</time>
      </trkpt>
      <trkpt lat="48.40469" lon="2.65828">
        <ele>101</ele>
        <time>2012-02-19T10:32:58Z</time>
      </trkpt>
      <trkpt lat="48.40458" lon="2.65843">
        <ele>101</ele>
        <time>2012-02-19T10:33:03Z</time>
      </trkpt>
      <trkpt lat="48.40451" lon="2.65874">
        <ele>101</ele>
        <time>2012-02-19T10:33:11Z</time>
      </trkpt>
      <trkpt lat="48.40449" lon="2.65893">
        <ele>101</ele>
        <time>2012-02-19T10:33:15Z</time>
      </trkpt>
      <trkpt lat="48.40444" lon="2.65905">
        <ele>101</ele>
        <time>2012-02-19T10:33:19Z</time>
      </trkpt>
      <trkpt lat="48.40439" lon="2.65915">
        <ele>101</ele>
        <time>2012-02-19T10:33:23Z</time>
      </trkpt>
      <trkpt lat="48.4044" lon="2.65925">
        <ele>101</ele>
        <time>2012-02-19T10:33:26Z</time>
      </trkpt>
      <trkpt lat="48.40446" lon="2.65941">
        <ele>101</ele>
        <time>2012-02-19T10:33:31Z</time>
      </trkpt>
      <trkpt lat="48.4045" lon="2.65946">
        <ele>102</ele>
        <time>2012-02-19T10:33:36Z</time>
      </trkpt>
      <trkpt lat="48.40457" lon="2.65986">
        <ele>102</ele>
        <time>2012-02-19T10:33:46Z</time>
      </trkpt>
      <trkpt lat="48.40448" lon="2.66017">
        <ele>102</ele>
        <time>2012-02-19T10:33:51Z</time>
      </trkpt>
      <trkpt lat="48.40447" lon="2.66038">
        <ele>102</ele>
        <time>2012-02-19T10:33:56Z</time>
      </trkpt>
      <trkpt lat="48.40441" lon="2.66059">
        <ele>102</ele>
        <time>2012-02-19T10:34:11Z</time>
      </trkpt>
      <trkpt lat="48.40441" lon="2.66059">
        <ele>102</ele>
        <time>2012-02-19T10:34:20Z</time>
      </trkpt>
      <trkpt lat="48.40426" lon="2.66054">
        <ele>102</ele>
        <time>2012-02-19T10:34:24Z</time>
      </trkpt>
      <trkpt lat="48.40411" lon="2.66057">
        <ele>100</ele>
        <time>2012-02-19T10:34:32Z</time>
      </trkpt>
      <trkpt lat="48.4041" lon="2.66059">
        <ele>100</ele>
        <time>2012-02-19T10:34:59Z</time>
      </trkpt>
      <trkpt lat="48.40409" lon="2.6606">
        <ele>100</ele>
        <time>2012-02-19T10:35:51Z</time>
      </trkpt>
      <trkpt lat="48.4037" lon="2.66087">
        <ele>99</ele>
        <time>2012-02-19T10:36:02Z</time>
      </trkpt>
      <trkpt lat="48.40333" lon="2.66166">
        <ele>99</ele>
        <time>2012-02-19T10:36:18Z</time>
      </trkpt>
      <trkpt lat="48.4033" lon="2.66174">
        <ele>100</ele>
        <time>2012-02-19T10:36:20Z</time>
      </trkpt>
      <trkpt lat="48.40317" lon="2.66195">
        <ele>101</ele>
        <time>2012-02-19T10:36:27Z</time>
      </trkpt>
      <trkpt lat="48.40312" lon="2.66205">
        <ele>101</ele>
        <time>2012-02-19T10:36:30Z</time>
      </trkpt>
      <trkpt lat="48.40301" lon="2.66221">
        <ele>102</ele>
        <time>2012-02-19T10:36:40Z</time>
      </trkpt>
      <trkpt lat="48.40299" lon="2.66224">
        <ele>102</ele>
        <time>2012-02-19T10:36:43Z</time>
      </trkpt>
      <trkpt lat="48.40293" lon="2.66227">
        <ele>102</ele>
        <time>2012-02-19T10:36:48Z</time>
      </trkpt>
      <trkpt lat="48.40289" lon="2.66228">
        <ele>102</ele>
        <time>2012-02-19T10:36:52Z</time>
      </trkpt>
      <trkpt lat="48.40265" lon="2.66244">
        <ele>103</ele>
        <time>2012-02-19T10:37:01Z</time>
      </trkpt>
      <trkpt lat="48.40242" lon="2.66261">
        <ele>106</ele>
        <time>2012-02-19T10:37:08Z</time>
      </trkpt>
      <trkpt lat="48.4022" lon="2.66274">
        <ele>106</ele>
        <time>2012-02-19T10:37:17Z</time>
      </trkpt>
      <trkpt lat="48.40213" lon="2.6629">
        <ele>106</ele>
        <time>2012-02-19T10:37:23Z</time>
      </trkpt>
      <trkpt lat="48.40207" lon="2.66304">
        <ele>106</ele>
        <time>2012-02-19T10:37:27Z</time>
      </trkpt>
      <trkpt lat="48.40196" lon="2.66325">
        <ele>106</ele>
        <time>2012-02-19T10:37:36Z</time>
      </trkpt>
      <trkpt lat="48.40188" lon="2.66334">
        <ele>108</ele>
        <time>2012-02-19T10:37:40Z</time>
      </trkpt>
      <trkpt lat="48.40186" lon="2.66345">
        <ele>108</ele>
        <time>2012-02-19T10:37:43Z</time>
      </trkpt>
      <trkpt lat="48.4018" lon="2.66358">
        <ele>109</ele>
        <time>2012-02-19T10:37:47Z</time>
      </trkpt>
      <trkpt lat="48.40181" lon="2.66374">
        <ele>109</ele>
        <time>2012-02-19T10:37:51Z</time>
      </trkpt>
      <trkpt lat="48.40175" lon="2.66381">
        <ele>109</ele>
        <time>2012-02-19T10:37:55Z</time>
      </trkpt>
      <trkpt lat="48.40172" lon="2.66394">
        <ele>109</ele>
        <time>2012-02-19T10:38:00Z</time>
      </trkpt>
      <trkpt lat="48.40168" lon="2.66404">
        <ele>108</ele>
        <time>2012-02-19T10:38:08Z</time>
      </trkpt>
      <trkpt lat="48.4017" lon="2.66406">
        <ele>108</ele>
        <time>2012-02-19T10:38:10Z</time>
      </trkpt>
      <trkpt lat="48.40174" lon="2.66412">
        <ele>108</ele>
        <time>2012-02-19T10:38:15Z</time>
      </trkpt>
      <trkpt lat="48.4018" lon="2.66431">
        <ele>109</ele>
        <time>2012-02-19T10:38:24Z</time>
      </trkpt>
      <trkpt lat="48.40182" lon="2.66434">
        <ele>110</ele>
        <time>2012-02-19T10:38:30Z</time>
      </trkpt>
      <trkpt lat="48.40182" lon="2.66443">
        <ele>110</ele>
        <time>2012-02-19T10:38:34Z</time>
      </trkpt>
      <trkpt lat="48.40188" lon="2.66457">
        <ele>110</ele>
        <time>2012-02-19T10:38:39Z</time>
      </trkpt>
      <trkpt lat="48.40192" lon="2.66484">
        <ele>110</ele>
        <time>2012-02-19T10:38:47Z</time>
      </trkpt>
      <trkpt lat="48.40195" lon="2.66499">
        <ele>110</ele>
        <time>2012-02-19T10:38:53Z</time>
      </trkpt>
      <trkpt lat="48.40195" lon="2.66508">
        <ele>108</ele>
        <time>2012-02-19T10:39:03Z</time>
      </trkpt>
      <trkpt lat="48.40197" lon="2.66516">
        <ele>108</ele>
        <time>2012-02-19T10:39:14Z</time>
      </trkpt>
      <trkpt lat="48.40199" lon="2.66524">
        <ele>108</ele>
        <time>2012-02-19T10:39:26Z</time>
      </trkpt>
      <trkpt lat="48.40204" lon="2.6653">
        <ele>108</ele>
        <time>2012-02-19T10:39:41Z</time>
      </trkpt>
      <trkpt lat="48.40206" lon="2.66533">
        <ele>109</ele>
        <time>2012-02-19T10:39:45Z</time>
      </trkpt>
      <trkpt lat="48.40211" lon="2.66529">
        <ele>109</ele>
        <time>2012-02-19T10:39:50Z</time>
      </trkpt>
      <trkpt lat="48.40218" lon="2.6653">
        <ele>109</ele>
        <time>2012-02-19T10:39:59Z</time>
      </trkpt>
      <trkpt lat="48.40231" lon="2.6651">
        <ele>112</ele>
        <time>2012-02-19T10:40:08Z</time>
      </trkpt>
      <trkpt lat="48.40235" lon="2.66506">
        <ele>112</ele>
        <time>2012-02-19T10:40:11Z</time>
      </trkpt>
      <trkpt lat="48.40237" lon="2.66496">
        <ele>114</ele>
        <time>2012-02-19T10:40:15Z</time>
      </trkpt>
      <trkpt lat="48.40238" lon="2.66483">
        <ele>114</ele>
        <time>2012-02-19T10:40:27Z</time>
      </trkpt>
      <trkpt lat="48.40239" lon="2.66477">
        <ele>113</ele>
        <time>2012-02-19T10:40:40Z</time>
      </trkpt>
      <trkpt lat="48.4024" lon="2.66474">
        <ele>113</ele>
        <time>2012-02-19T10:41:03Z</time>
      </trkpt>
      <trkpt lat="48.40249" lon="2.66442">
        <ele>114</ele>
        <time>2012-02-19T10:41:13Z</time>
      </trkpt>
      <trkpt lat="48.4026" lon="2.66427">
        <ele>116</ele>
        <time>2012-02-19T10:41:17Z</time>
      </trkpt>
      <trkpt lat="48.40289" lon="2.66415">
        <ele>115</ele>
        <time>2012-02-19T10:41:26Z</time>
      </trkpt>
      <trkpt lat="48.40325" lon="2.66393">
        <ele>114</ele>
        <time>2012-02-19T10:41:33Z</time>
      </trkpt>
      <trkpt lat="48.40343" lon="2.66389">
        <ele>115</ele>
        <time>2012-02-19T10:41:36Z</time>
      </trkpt>
      <trkpt lat="48.4036" lon="2.66398">
        <ele>115</ele>
        <time>2012-02-19T10:41:39Z</time>
      </trkpt>
      <trkpt lat="48.40373" lon="2.66406">
        <ele>116</ele>
        <time>2012-02-19T10:41:42Z</time>
      </trkpt>
      <trkpt lat="48.40378" lon="2.66406">
        <ele>116</ele>
        <time>2012-02-19T10:41:45Z</time>
      </trkpt>
      <trkpt lat="48.40384" lon="2.66409">
        <ele>116</ele>
        <time>2012-02-19T10:41:48Z</time>
      </trkpt>
      <trkpt lat="48.40412" lon="2.6642">
        <ele>116</ele>
        <time>2012-02-19T10:41:59Z</time>
      </trkpt>
      <trkpt lat="48.40443" lon="2.66434">
        <ele>114</ele>
        <time>2012-02-19T10:42:13Z</time>
      </trkpt>
      <trkpt lat="48.40472" lon="2.6643">
        <ele>115</ele>
        <time>2012-02-19T10:42:26Z</time>
      </trkpt>
      <trkpt lat="48.40492" lon="2.66411">
        <ele>121</ele>
        <time>2012-02-19T10:42:38Z</time>
      </trkpt>
      <trkpt lat="48.40507" lon="2.66373">
        <ele>119</ele>
        <time>2012-02-19T10:42:53Z</time>
      </trkpt>
      <trkpt lat="48.40513" lon="2.66314">
        <ele>121</ele>
        <time>2012-02-19T10:43:08Z</time>
      </trkpt>
      <trkpt lat="48.40513" lon="2.66309">
        <ele>120</ele>
        <time>2012-02-19T10:43:10Z</time>
      </trkpt>
      <trkpt lat="48.40513" lon="2.66302">
        <ele>120</ele>
        <time>2012-02-19T10:43:13Z</time>
      </trkpt>
      <trkpt lat="48.4051" lon="2.66297">
        <ele>119</ele>
        <time>2012-02-19T10:43:15Z</time>
      </trkpt>
      <trkpt lat="48.40506" lon="2.6628">
        <ele>119</ele>
        <time>2012-02-19T10:43:22Z</time>
      </trkpt>
      <trkpt lat="48.40494" lon="2.66271">
        <ele>121</ele>
        <time>2012-02-19T10:43:32Z</time>
      </trkpt>
      <trkpt lat="48.40485" lon="2.66275">
        <ele>121</ele>
        <time>2012-02-19T10:43:44Z</time>
      </trkpt>
      <trkpt lat="48.40481" lon="2.66276">
        <ele>121</ele>
        <time>2012-02-19T10:43:50Z</time>
      </trkpt>
      <trkpt lat="48.40475" lon="2.66281">
        <ele>120</ele>
        <time>2012-02-19T10:44:00Z</time>
      </trkpt>
      <trkpt lat="48.40473" lon="2.66294">
        <ele>121</ele>
        <time>2012-02-19T10:44:15Z</time>
      </trkpt>
      <trkpt lat="48.40473" lon="2.66294">
        <ele>121</ele>
        <time>2012-02-19T10:44:40Z</time>
      </trkpt>
      <trkpt lat="48.40486" lon="2.66316">
        <ele>123</ele>
        <time>2012-02-19T10:44:52Z</time>
      </trkpt>
      <trkpt lat="48.40487" lon="2.66327">
        <ele>124</ele>
        <time>2012-02-19T10:44:56Z</time>
      </trkpt>
      <trkpt lat="48.40482" lon="2.66349">
        <ele>124</ele>
        <time>2012-02-19T10:45:03Z</time>
      </trkpt>
      <trkpt lat="48.40479" lon="2.66356">
        <ele>123</ele>
        <time>2012-02-19T10:45:07Z</time>
      </trkpt>
      <trkpt lat="48.40475" lon="2.6636">
        <ele>123</ele>
        <time>2012-02-19T10:45:09Z</time>
      </trkpt>
      <trkpt lat="48.40467" lon="2.6636">
        <ele>122</ele>
        <time>2012-02-19T10:45:13Z</time>
      </trkpt>
      <trkpt lat="48.40464" lon="2.66361">
        <ele>122</ele>
        <time>2012-02-19T10:45:15Z</time>
      </trkpt>
      <trkpt lat="48.40458" lon="2.66359">
        <ele>122</ele>
        <time>2012-02-19T10:45:18Z</time>
      </trkpt>
      <trkpt lat="48.40444" lon="2.66367">
        <ele>122</ele>
        <time>2012-02-19T10:45:28Z</time>
      </trkpt>
      <trkpt lat="48.40442" lon="2.66367">
        <ele>122</ele>
        <time>2012-02-19T10:45:31Z</time>
      </trkpt>
      <trkpt lat="48.40442" lon="2.66359">
        <ele>122</ele>
        <time>2012-02-19T10:45:35Z</time>
      </trkpt>
      <trkpt lat="48.40442" lon="2.66346">
        <ele>122</ele>
        <time>2012-02-19T10:45:39Z</time>
      </trkpt>
      <trkpt lat="48.40444" lon="2.66336">
        <ele>122</ele>
        <time>2012-02-19T10:45:50Z</time>
      </trkpt>
      <trkpt lat="48.40442" lon="2.6633">
        <ele>121</ele>
        <time>2012-02-19T10:46:09Z</time>
      </trkpt>
      <trkpt lat="48.40441" lon="2.66327">
        <ele>121</ele>
        <time>2012-02-19T10:46:18Z</time>
      </trkpt>
      <trkpt lat="48.40438" lon="2.66324">
        <ele>121</ele>
        <time>2012-02-19T10:46:29Z</time>
      </trkpt>
      <trkpt lat="48.40438" lon="2.66322">
        <ele>121</ele>
        <time>2012-02-19T10:46:33Z</time>
      </trkpt>
      <trkpt lat="48.40437" lon="2.6629">
        <ele>119</ele>
        <time>2012-02-19T10:46:44Z</time>
      </trkpt>
      <trkpt lat="48.40437" lon="2.66288">
        <ele>119</ele>
        <time>2012-02-19T10:46:45Z</time>
      </trkpt>
      <trkpt lat="48.40438" lon="2.66278">
        <ele>118</ele>
        <time>2012-02-19T10:46:48Z</time>
      </trkpt>
      <trkpt lat="48.40439" lon="2.66273">
        <ele>118</ele>
        <time>2012-02-19T10:46:50Z</time>
      </trkpt>
      <trkpt lat="48.40441" lon="2.66259">
        <ele>117</ele>
        <time>2012-02-19T10:47:02Z</time>
      </trkpt>
      <trkpt lat="48.40441" lon="2.66259">
        <ele>117</ele>
        <time>2012-02-19T10:47:09Z</time>
      </trkpt>
      <trkpt lat="48.40452" lon="2.66252">
        <ele>118</ele>
        <time>2012-02-19T10:47:16Z</time>
      </trkpt>
      <trkpt lat="48.40456" lon="2.66246">
        <ele>113</ele>
        <time>2012-02-19T10:47:18Z</time>
      </trkpt>
      <trkpt lat="48.40466" lon="2.66235">
        <ele>114</ele>
        <time>2012-02-19T10:47:23Z</time>
      </trkpt>
      <trkpt lat="48.40474" lon="2.66235">
        <ele>114</ele>
        <time>2012-02-19T10:47:26Z</time>
      </trkpt>
      <trkpt lat="48.40485" lon="2.66228">
        <ele>115</ele>
        <time>2012-02-19T10:47:31Z</time>
      </trkpt>
      <trkpt lat="48.40504" lon="2.66236">
        <ele>117</ele>
        <time>2012-02-19T10:47:37Z</time>
      </trkpt>
      <trkpt lat="48.40531" lon="2.6627">
        <ele>117</ele>
        <time>2012-02-19T10:47:45Z</time>
      </trkpt>
      <trkpt lat="48.40534" lon="2.66301">
        <ele>118</ele>
        <time>2012-02-19T10:47:52Z</time>
      </trkpt>
      <trkpt lat="48.40532" lon="2.66322">
        <ele>119</ele>
        <time>2012-02-19T10:47:57Z</time>
      </trkpt>
      <trkpt lat="48.40534" lon="2.66348">
        <ele>118</ele>
        <time>2012-02-19T10:48:01Z</time>
      </trkpt>
      <trkpt lat="48.40523" lon="2.66381">
        <ele>118</ele>
        <time>2012-02-19T10:48:08Z</time>
      </trkpt>
      <trkpt lat="48.40527" lon="2.66406">
        <ele>118</ele>
        <time>2012-02-19T10:48:14Z</time>
      </trkpt>
      <trkpt lat="48.40528" lon="2.66425">
        <ele>113</ele>
        <time>2012-02-19T10:48:17Z</time>
      </trkpt>
      <trkpt lat="48.40517" lon="2.66442">
        <ele>113</ele>
        <time>2012-02-19T10:48:21Z</time>
      </trkpt>
      <trkpt lat="48.40501" lon="2.66466">
        <ele>110</ele>
        <time>2012-02-19T10:48:25Z</time>
      </trkpt>
      <trkpt lat="48.40488" lon="2.66483">
        <ele>109</ele>
        <time>2012-02-19T10:48:28Z</time>
      </trkpt>
      <trkpt lat="48.40465" lon="2.6659">
        <ele>98</ele>
        <time>2012-02-19T10:48:38Z</time>
      </trkpt>
      <trkpt lat="48.40466" lon="2.6665">
        <ele>98</ele>
        <time>2012-02-19T10:48:45Z</time>
      </trkpt>
      <trkpt lat="48.40471" lon="2.66681">
        <ele>97</ele>
        <time>2012-02-19T10:48:49Z</time>
      </trkpt>
      <trkpt lat="48.40477" lon="2.66734">
        <ele>96</ele>
        <time>2012-02-19T10:48:57Z</time>
      </trkpt>
      <trkpt lat="48.40474" lon="2.6676">
        <ele>95</ele>
        <time>2012-02-19T10:49:01Z</time>
      </trkpt>
      <trkpt lat="48.40465" lon="2.66756">
        <ele>95</ele>
        <time>2012-02-19T10:49:06Z</time>
      </trkpt>
      <trkpt lat="48.40448" lon="2.66709">
        <ele>96</ele>
        <time>2012-02-19T10:49:18Z</time>
      </trkpt>
      <trkpt lat="48.40432" lon="2.66663">
        <ele>97</ele>
        <time>2012-02-19T10:49:28Z</time>
      </trkpt>
      <trkpt lat="48.40411" lon="2.66604">
        <ele>98</ele>
        <time>2012-02-19T10:49:41Z</time>
      </trkpt>
      <trkpt lat="48.40401" lon="2.66567">
        <ele>101</ele>
        <time>2012-02-19T10:49:52Z</time>
      </trkpt>
      <trkpt lat="48.40399" lon="2.66548">
        <ele>102</ele>
        <time>2012-02-19T10:49:57Z</time>
      </trkpt>
      <trkpt lat="48.40384" lon="2.66508">
        <ele>104</ele>
        <time>2012-02-19T10:50:09Z</time>
      </trkpt>
      <trkpt lat="48.40384" lon="2.66503">
        <ele>104</ele>
        <time>2012-02-19T10:50:11Z</time>
      </trkpt>
      <trkpt lat="48.4039" lon="2.66493">
        <ele>109</ele>
        <time>2012-02-19T10:50:18Z</time>
      </trkpt>
      <trkpt lat="48.40398" lon="2.66475">
        <ele>110</ele>
        <time>2012-02-19T10:50:28Z</time>
      </trkpt>
      <trkpt lat="48.40402" lon="2.66466">
        <ele>110</ele>
        <time>2012-02-19T10:50:38Z</time>
      </trkpt>
      <trkpt lat="48.40401" lon="2.66469">
        <ele>110</ele>
        <time>2012-02-19T10:50:48Z</time>
      </trkpt>
      <trkpt lat="48.40401" lon="2.66464">
        <ele>111</ele>
        <time>2012-02-19T10:50:52Z</time>
      </trkpt>
      <trkpt lat="48.40389" lon="2.66454">
        <ele>111</ele>
        <time>2012-02-19T10:51:02Z</time>
      </trkpt>
      <trkpt lat="48.4037" lon="2.66434">
        <ele>112</ele>
        <time>2012-02-19T10:51:15Z</time>
      </trkpt>
      <trkpt lat="48.40367" lon="2.66422">
        <ele>112</ele>
        <time>2012-02-19T10:51:20Z</time>
      </trkpt>
      <trkpt lat="48.40367" lon="2.66417">
        <ele>112</ele>
        <time>2012-02-19T10:51:22Z</time>
      </trkpt>
      <trkpt lat="48.40365" lon="2.66408">
        <ele>115</ele>
        <time>2012-02-19T10:51:25Z</time>
      </trkpt>
      <trkpt lat="48.40361" lon="2.66403">
        <ele>115</ele>
        <time>2012-02-19T10:51:30Z</time>
      </trkpt>
      <trkpt lat="48.40359" lon="2.66391">
        <ele>115</ele>
        <time>2012-02-19T10:51:37Z</time>
      </trkpt>
      <trkpt lat="48.40357" lon="2.66385">
        <ele>115</ele>
        <time>2012-02-19T10:51:41Z</time>
      </trkpt>
      <trkpt lat="48.4035" lon="2.66378">
        <ele>115</ele>
        <time>2012-02-19T10:51:54Z</time>
      </trkpt>
      <trkpt lat="48.40349" lon="2.66376">
        <ele>115</ele>
        <time>2012-02-19T10:52:19Z</time>
      </trkpt>
      <trkpt lat="48.40348" lon="2.66371">
        <ele>115</ele>
        <time>2012-02-19T10:52:21Z</time>
      </trkpt>
      <trkpt lat="48.40346" lon="2.66364">
        <ele>115</ele>
        <time>2012-02-19T10:52:24Z</time>
      </trkpt>
      <trkpt lat="48.40346" lon="2.66357">
        <ele>115</ele>
        <time>2012-02-19T10:52:26Z</time>
      </trkpt>
      <trkpt lat="48.40349" lon="2.66331">
        <ele>112</ele>
        <time>2012-02-19T10:52:34Z</time>
      </trkpt>
      <trkpt lat="48.40351" lon="2.6633">
        <ele>112</ele>
        <time>2012-02-19T10:52:35Z</time>
      </trkpt>
      <trkpt lat="48.40359" lon="2.66305">
        <ele>112</ele>
        <time>2012-02-19T10:52:44Z</time>
      </trkpt>
      <trkpt lat="48.40367" lon="2.66256">
        <ele>110</ele>
        <time>2012-02-19T10:52:51Z</time>
      </trkpt>
      <trkpt lat="48.40381" lon="2.66191">
        <ele>104</ele>
        <time>2012-02-19T10:53:00Z</time>
      </trkpt>
      <trkpt lat="48.40381" lon="2.66185">
        <ele>104</ele>
        <time>2012-02-19T10:53:01Z</time>
      </trkpt>
      <trkpt lat="48.4038" lon="2.66132">
        <ele>100</ele>
        <time>2012-02-19T10:53:08Z</time>
      </trkpt>
      <trkpt lat="48.40378" lon="2.66077">
        <ele>99</ele>
        <time>2012-02-19T10:53:15Z</time>
      </trkpt>
      <trkpt lat="48.40385" lon="2.66073">
        <ele>99</ele>
        <time>2012-02-19T10:53:19Z</time>
      </trkpt>
      <trkpt lat="48.40416" lon="2.66116">
        <ele>100</ele>
        <time>2012-02-19T10:53:31Z</time>
      </trkpt>
      <trkpt lat="48.4042" lon="2.66122">
        <ele>103</ele>
        <time>2012-02-19T10:53:33Z</time>
      </trkpt>
      <trkpt lat="48.40432" lon="2.66128">
        <ele>104</ele>
        <time>2012-02-19T10:53:37Z</time>
      </trkpt>
      <trkpt lat="48.40463" lon="2.66118">
        <ele>104</ele>
        <time>2012-02-19T10:53:48Z</time>
      </trkpt>
      <trkpt lat="48.40479" lon="2.66114">
        <ele>104</ele>
        <time>2012-02-19T10:53:54Z</time>
      </trkpt>
      <trkpt lat="48.40505" lon="2.66104">
        <ele>105</ele>
        <time>2012-02-19T10:54:03Z</time>
      </trkpt>
      <trkpt lat="48.40532" lon="2.66101">
        <ele>105</ele>
        <time>2012-02-19T10:54:11Z</time>
      </trkpt>
      <trkpt lat="48.40537" lon="2.6609">
        <ele>105</ele>
        <time>2012-02-19T10:54:15Z</time>
      </trkpt>
      <trkpt lat="48.40545" lon="2.66049">
        <ele>104</ele>
        <time>2012-02-19T10:54:25Z</time>
      </trkpt>
      <trkpt lat="48.40559" lon="2.6598">
        <ele>103</ele>
        <time>2012-02-19T10:54:37Z</time>
      </trkpt>
      <trkpt lat="48.40561" lon="2.65902">
        <ele>103</ele>
        <time>2012-02-19T10:54:51Z</time>
      </trkpt>
      <trkpt lat="48.40547" lon="2.65876">
        <ele>103</ele>
        <time>2012-02-19T10:55:00Z</time>
      </trkpt>
      <trkpt lat="48.40533" lon="2.65867">
        <ele>102</ele>
        <time>2012-02-19T10:55:06Z</time>
      </trkpt>
      <trkpt lat="48.40529" lon="2.65858">
        <ele>102</ele>
        <time>2012-02-19T10:55:09Z</time>
      </trkpt>
      <trkpt lat="48.40519" lon="2.65838">
        <ele>102</ele>
        <time>2012-02-19T10:55:14Z</time>
      </trkpt>
      <trkpt lat="48.40502" lon="2.65834">
        <ele>102</ele>
        <time>2012-02-19T10:55:23Z</time>
      </trkpt>
      <trkpt lat="48.405" lon="2.65838">
        <ele>102</ele>
        <time>2012-02-19T10:55:25Z</time>
      </trkpt>
      <trkpt lat="48.4048" lon="2.65839">
        <ele>101</ele>
        <time>2012-02-19T10:55:32Z</time>
      </trkpt>
      <trkpt lat="48.40479" lon="2.65825">
        <ele>102</ele>
        <time>2012-02-19T10:55:36Z</time>
      </trkpt>
      <trkpt lat="48.40489" lon="2.65805">
        <ele>102</ele>
        <time>2012-02-19T10:55:47Z</time>
      </trkpt>
      <trkpt lat="48.40493" lon="2.65768">
        <ele>103</ele>
        <time>2012-02-19T10:55:57Z</time>
      </trkpt>
      <trkpt lat="48.40497" lon="2.65726">
        <ele>103</ele>
        <time>2012-02-19T10:56:06Z</time>
      </trkpt>
      <trkpt lat="48.40496" lon="2.65724">
        <ele>103</ele>
        <time>2012-02-19T10:56:07Z</time>
      </trkpt>
      <trkpt lat="48.40494" lon="2.6571">
        <ele>103</ele>
        <time>2012-02-19T10:56:17Z</time>
      </trkpt>
      <trkpt lat="48.40495" lon="2.65705">
        <ele>103</ele>
        <time>2012-02-19T10:56:19Z</time>
      </trkpt>
      <trkpt lat="48.405" lon="2.65685">
        <ele>105</ele>
        <time>2012-02-19T10:56:26Z</time>
      </trkpt>
      <trkpt lat="48.40524" lon="2.65689">
        <ele>107</ele>
        <time>2012-02-19T10:56:37Z</time>
      </trkpt>
      <trkpt lat="48.40535" lon="2.6569">
        <ele>107</ele>
        <time>2012-02-19T10:56:54Z</time>
      </trkpt>
      <trkpt lat="48.40543" lon="2.65691">
        <ele>107</ele>
        <time>2012-02-19T10:57:04Z</time>
      </trkpt>
      <trkpt lat="48.40551" lon="2.65693">
        <ele>107</ele>
        <time>2012-02-19T10:57:08Z</time>
      </trkpt>
      <trkpt lat="48.40592" lon="2.65693">
        <ele>109</ele>
        <time>2012-02-19T10:57:21Z</time>
      </trkpt>
      <trkpt lat="48.40616" lon="2.65696">
        <ele>109</ele>
        <time>2012-02-19T10:57:30Z</time>
      </trkpt>
      <trkpt lat="48.40632" lon="2.65662">
        <ele>113</ele>
        <time>2012-02-19T10:57:43Z</time>
      </trkpt>
      <trkpt lat="48.40641" lon="2.6562">
        <ele>114</ele>
        <time>2012-02-19T10:57:56Z</time>
      </trkpt>
      <trkpt lat="48.4065" lon="2.65568">
        <ele>118</ele>
        <time>2012-02-19T10:58:10Z</time>
      </trkpt>
      <trkpt lat="48.40659" lon="2.65525">
        <ele>119</ele>
        <time>2012-02-19T10:58:23Z</time>
      </trkpt>
      <trkpt lat="48.40655" lon="2.65469">
        <ele>120</ele>
        <time>2012-02-19T10:58:39Z</time>
      </trkpt>
      <trkpt lat="48.40649" lon="2.65396">
        <ele>118</ele>
        <time>2012-02-19T10:58:53Z</time>
      </trkpt>
      <trkpt lat="48.40649" lon="2.65373">
        <ele>118</ele>
        <time>2012-02-19T10:58:57Z</time>
      </trkpt>
      <trkpt lat="48.40612" lon="2.65326">
        <ele>118</ele>
        <time>2012-02-19T10:59:10Z</time>
      </trkpt>
      <trkpt lat="48.40599" lon="2.6531">
        <ele>118</ele>
        <time>2012-02-19T10:59:16Z</time>
      </trkpt>
      <trkpt lat="48.40592" lon="2.653">
        <ele>118</ele>
        <time>2012-02-19T10:59:22Z</time>
      </trkpt>
      <trkpt lat="48.40579" lon="2.65285">
        <ele>115</ele>
        <time>2012-02-19T10:59:32Z</time>
      </trkpt>
      <trkpt lat="48.40574" lon="2.65279">
        <ele>115</ele>
        <time>2012-02-19T10:59:35Z</time>
      </trkpt>
      <trkpt lat="48.40569" lon="2.65264">
        <ele>116</ele>
        <time>2012-02-19T10:59:43Z</time>
      </trkpt>
      <trkpt lat="48.40564" lon="2.65251">
        <ele>116</ele>
        <time>2012-02-19T10:59:49Z</time>
      </trkpt>
      <trkpt lat="48.4056" lon="2.65245">
        <ele>115</ele>
        <time>2012-02-19T10:59:52Z</time>
      </trkpt>
      <trkpt lat="48.40559" lon="2.65237">
        <ele>115</ele>
        <time>2012-02-19T10:59:55Z</time>
      </trkpt>
      <trkpt lat="48.40562" lon="2.65214">
        <ele>114</ele>
        <time>2012-02-19T11:00:03Z</time>
      </trkpt>
      <trkpt lat="48.4056" lon="2.6521">
        <ele>114</ele>
        <time>2012-02-19T11:00:04Z</time>
      </trkpt>
      <trkpt lat="48.40553" lon="2.65192">
        <ele>114</ele>
        <time>2012-02-19T11:00:08Z</time>
      </trkpt>
      <trkpt lat="48.40534" lon="2.6514">
        <ele>112</ele>
        <time>2012-02-19T11:00:19Z</time>
      </trkpt>
      <trkpt lat="48.40539" lon="2.65117">
        <ele>112</ele>
        <time>2012-02-19T11:00:26Z</time>
      </trkpt>
      <trkpt lat="48.40541" lon="2.65109">
        <ele>112</ele>
        <time>2012-02-19T11:00:29Z</time>
      </trkpt>
      <trkpt lat="48.40542" lon="2.65101">
        <ele>113</ele>
        <time>2012-02-19T11:00:31Z</time>
      </trkpt>
      <trkpt lat="48.40539" lon="2.65055">
        <ele>112</ele>
        <time>2012-02-19T11:00:42Z</time>
      </trkpt>
      <trkpt lat="48.40529" lon="2.65033">
        <ele>112</ele>
        <time>2012-02-19T11:00:55Z</time>
      </trkpt>
      <trkpt lat="48.40529" lon="2.65031">
        <ele>112</ele>
        <time>2012-02-19T11:00:58Z</time>
      </trkpt>
      <trkpt lat="48.4053" lon="2.65028">
        <ele>112</ele>
        <time>2012-02-19T11:01:00Z</time>
      </trkpt>
      <trkpt lat="48.40527" lon="2.6502">
        <ele>111</ele>
        <time>2012-02-19T11:01:03Z</time>
      </trkpt>
      <trkpt lat="48.40522" lon="2.65004">
        <ele>111</ele>
        <time>2012-02-19T11:01:10Z</time>
      </trkpt>
      <trkpt lat="48.40522" lon="2.64991">
        <ele>111</ele>
        <time>2012-02-19T11:01:15Z</time>
      </trkpt>
      <trkpt lat="48.40522" lon="2.64979">
        <ele>112</ele>
        <time>2012-02-19T11:01:28Z</time>
      </trkpt>
      <trkpt lat="48.40521" lon="2.64976">
        <ele>112</ele>
        <time>2012-02-19T11:01:47Z</time>
      </trkpt>
      <trkpt lat="48.40518" lon="2.64978">
        <ele>112</ele>
        <time>2012-02-19T11:02:41Z</time>
      </trkpt>
      <trkpt lat="48.40518" lon="2.64978">
        <ele>112</ele>
        <time>2012-02-19T11:04:48Z</time>
      </trkpt>
      <trkpt lat="48.40517" lon="2.64978">
        <ele>112</ele>
        <time>2012-02-19T11:05:03Z</time>
      </trkpt>
      <trkpt lat="48.40498" lon="2.64957">
        <ele>111</ele>
        <time>2012-02-19T11:05:16Z</time>
      </trkpt>
      <trkpt lat="48.40488" lon="2.64951">
        <ele>111</ele>
        <time>2012-02-19T11:05:20Z</time>
      </trkpt>
      <trkpt lat="48.40475" lon="2.6493">
        <ele>112</ele>
        <time>2012-02-19T11:05:30Z</time>
      </trkpt>
      <trkpt lat="48.40465" lon="2.64921">
        <ele>112</ele>
        <time>2012-02-19T11:05:36Z</time>
      </trkpt>
      <trkpt lat="48.40456" lon="2.64917">
        <ele>112</ele>
        <time>2012-02-19T11:05:42Z</time>
      </trkpt>
      <trkpt lat="48.40452" lon="2.64914">
        <ele>116</ele>
        <time>2012-02-19T11:05:45Z</time>
      </trkpt>
      <trkpt lat="48.40448" lon="2.64913">
        <ele>116</ele>
        <time>2012-02-19T11:05:47Z</time>
      </trkpt>
      <trkpt lat="48.40441" lon="2.64903">
        <ele>116</ele>
        <time>2012-02-19T11:06:02Z</time>
      </trkpt>
      <trkpt lat="48.40435" lon="2.64898">
        <ele>116</ele>
        <time>2012-02-19T11:06:12Z</time>
      </trkpt>
      <trkpt lat="48.40423" lon="2.64892">
        <ele>116</ele>
        <time>2012-02-19T11:06:21Z</time>
      </trkpt>
      <trkpt lat="48.40412" lon="2.64888">
        <ele>118</ele>
        <time>2012-02-19T11:06:29Z</time>
      </trkpt>
      <trkpt lat="48.40396" lon="2.64879">
        <ele>118</ele>
        <time>2012-02-19T11:06:40Z</time>
      </trkpt>
      <trkpt lat="48.40395" lon="2.64874">
        <ele>119</ele>
        <time>2012-02-19T11:06:44Z</time>
      </trkpt>
      <trkpt lat="48.404" lon="2.6487">
        <ele>119</ele>
        <time>2012-02-19T11:06:53Z</time>
      </trkpt>
      <trkpt lat="48.40413" lon="2.64868">
        <ele>119</ele>
        <time>2012-02-19T11:07:01Z</time>
      </trkpt>
      <trkpt lat="48.40418" lon="2.64867">
        <ele>118</ele>
        <time>2012-02-19T11:07:04Z</time>
      </trkpt>
      <trkpt lat="48.40424" lon="2.64862">
        <ele>118</ele>
        <time>2012-02-19T11:07:09Z</time>
      </trkpt>
      <trkpt lat="48.40425" lon="2.64852">
        <ele>119</ele>
        <time>2012-02-19T11:07:13Z</time>
      </trkpt>
      <trkpt lat="48.40423" lon="2.64845">
        <ele>120</ele>
        <time>2012-02-19T11:07:16Z</time>
      </trkpt>
      <trkpt lat="48.40421" lon="2.64836">
        <ele>121</ele>
        <time>2012-02-19T11:07:20Z</time>
      </trkpt>
      <trkpt lat="48.40407" lon="2.64819">
        <ele>123</ele>
        <time>2012-02-19T11:07:30Z</time>
      </trkpt>
      <trkpt lat="48.40394" lon="2.64785">
        <ele>125</ele>
        <time>2012-02-19T11:07:42Z</time>
      </trkpt>
      <trkpt lat="48.40401" lon="2.64775">
        <ele>125</ele>
        <time>2012-02-19T11:07:47Z</time>
      </trkpt>
      <trkpt lat="48.40407" lon="2.64768">
        <ele>126</ele>
        <time>2012-02-19T11:07:51Z</time>
      </trkpt>
      <trkpt lat="48.4041" lon="2.64746">
        <ele>128</ele>
        <time>2012-02-19T11:08:01Z</time>
      </trkpt>
      <trkpt lat="48.40405" lon="2.64736">
        <ele>128</ele>
        <time>2012-02-19T11:08:08Z</time>
      </trkpt>
      <trkpt lat="48.40401" lon="2.64743">
        <ele>128</ele>
        <time>2012-02-19T11:08:21Z</time>
      </trkpt>
      <trkpt lat="48.40399" lon="2.64743">
        <ele>128</ele>
        <time>2012-02-19T11:08:24Z</time>
      </trkpt>
      <trkpt lat="48.40395" lon="2.6474">
        <ele>128</ele>
        <time>2012-02-19T11:08:29Z</time>
      </trkpt>
      <trkpt lat="48.40391" lon="2.64729">
        <ele>128</ele>
        <time>2012-02-19T11:08:42Z</time>
      </trkpt>
      <trkpt lat="48.40388" lon="2.64725">
        <ele>127</ele>
        <time>2012-02-19T11:08:55Z</time>
      </trkpt>
      <trkpt lat="48.40391" lon="2.64725">
        <ele>127</ele>
        <time>2012-02-19T11:09:17Z</time>
      </trkpt>
      <trkpt lat="48.4039" lon="2.64716">
        <ele>127</ele>
        <time>2012-02-19T11:10:34Z</time>
      </trkpt>
      <trkpt lat="48.40393" lon="2.64699">
        <ele>128</ele>
        <time>2012-02-19T11:10:40Z</time>
      </trkpt>
      <trkpt lat="48.40396" lon="2.64684">
        <ele>128</ele>
        <time>2012-02-19T11:10:47Z</time>
      </trkpt>
      <trkpt lat="48.40404" lon="2.64686">
        <ele>129</ele>
        <time>2012-02-19T11:10:51Z</time>
      </trkpt>
      <trkpt lat="48.40424" lon="2.64704">
        <ele>130</ele>
        <time>2012-02-19T11:11:00Z</time>
      </trkpt>
      <trkpt lat="48.40435" lon="2.64723">
        <ele>129</ele>
        <time>2012-02-19T11:11:04Z</time>
      </trkpt>
      <trkpt lat="48.40456" lon="2.64744">
        <ele>128</ele>
        <time>2012-02-19T11:11:11Z</time>
      </trkpt>
      <trkpt lat="48.40463" lon="2.64748">
        <ele>128</ele>
        <time>2012-02-19T11:11:13Z</time>
      </trkpt>
      <trkpt lat="48.40474" lon="2.64748">
        <ele>127</ele>
        <time>2012-02-19T11:11:15Z</time>
      </trkpt>
      <trkpt lat="48.40504" lon="2.64767">
        <ele>121</ele>
        <time>2012-02-19T11:11:22Z</time>
      </trkpt>
      <trkpt lat="48.40516" lon="2.64768">
        <ele>121</ele>
        <time>2012-02-19T11:11:26Z</time>
      </trkpt>
      <trkpt lat="48.40567" lon="2.64788">
        <ele>119</ele>
        <time>2012-02-19T11:11:37Z</time>
      </trkpt>
      <trkpt lat="48.40594" lon="2.64797">
        <ele>119</ele>
        <time>2012-02-19T11:11:44Z</time>
      </trkpt>
      <trkpt lat="48.406" lon="2.64801">
        <ele>119</ele>
        <time>2012-02-19T11:11:47Z</time>
      </trkpt>
      <trkpt lat="48.40618" lon="2.64806">
        <ele>120</ele>
        <time>2012-02-19T11:11:57Z</time>
      </trkpt>
      <trkpt lat="48.40623" lon="2.64804">
        <ele>120</ele>
        <time>2012-02-19T11:12:09Z</time>
      </trkpt>
      <trkpt lat="48.40623" lon="2.64803">
        <ele>120</ele>
        <time>2012-02-19T11:12:11Z</time>
      </trkpt>
      <trkpt lat="48.40631" lon="2.64789">
        <ele>120</ele>
        <time>2012-02-19T11:12:24Z</time>
      </trkpt>
      <trkpt lat="48.40635" lon="2.64785">
        <ele>121</ele>
        <time>2012-02-19T11:12:27Z</time>
      </trkpt>
      <trkpt lat="48.40646" lon="2.6477">
        <ele>121</ele>
        <time>2012-02-19T11:12:33Z</time>
      </trkpt>
      <trkpt lat="48.40645" lon="2.64756">
        <ele>122</ele>
        <time>2012-02-19T11:12:39Z</time>
      </trkpt>
      <trkpt lat="48.40649" lon="2.64754">
        <ele>122</ele>
        <time>2012-02-19T11:12:43Z</time>
      </trkpt>
      <trkpt lat="48.4065" lon="2.64748">
        <ele>124</ele>
        <time>2012-02-19T11:12:46Z</time>
      </trkpt>
      <trkpt lat="48.40654" lon="2.6474">
        <ele>124</ele>
        <time>2012-02-19T11:12:52Z</time>
      </trkpt>
      <trkpt lat="48.40663" lon="2.64729">
        <ele>124</ele>
        <time>2012-02-19T11:13:01Z</time>
      </trkpt>
      <trkpt lat="48.40666" lon="2.64723">
        <ele>124</ele>
        <time>2012-02-19T11:13:07Z</time>
      </trkpt>
      <trkpt lat="48.40665" lon="2.64695">
        <ele>125</ele>
        <time>2012-02-19T11:13:18Z</time>
      </trkpt>
      <trkpt lat="48.40667" lon="2.64688">
        <ele>126</ele>
        <time>2012-02-19T11:13:22Z</time>
      </trkpt>
      <trkpt lat="48.40665" lon="2.64683">
        <ele>125</ele>
        <time>2012-02-19T11:13:26Z</time>
      </trkpt>
      <trkpt lat="48.40663" lon="2.64675">
        <ele>126</ele>
        <time>2012-02-19T11:13:30Z</time>
      </trkpt>
      <trkpt lat="48.40666" lon="2.6467">
        <ele>127</ele>
        <time>2012-02-19T11:13:36Z</time>
      </trkpt>
      <trkpt lat="48.40673" lon="2.6466">
        <ele>127</ele>
        <time>2012-02-19T11:13:42Z</time>
      </trkpt>
      <trkpt lat="48.40673" lon="2.64657">
        <ele>127</ele>
        <time>2012-02-19T11:13:44Z</time>
      </trkpt>
      <trkpt lat="48.40677" lon="2.64634">
        <ele>127</ele>
        <time>2012-02-19T11:13:51Z</time>
      </trkpt>
      <trkpt lat="48.40675" lon="2.64624">
        <ele>127</ele>
        <time>2012-02-19T11:13:55Z</time>
      </trkpt>
      <trkpt lat="48.40678" lon="2.6461">
        <ele>127</ele>
        <time>2012-02-19T11:13:59Z</time>
      </trkpt>
      <trkpt lat="48.40671" lon="2.64586">
        <ele>127</ele>
        <time>2012-02-19T11:14:11Z</time>
      </trkpt>
      <trkpt lat="48.4067" lon="2.6458">
        <ele>128</ele>
        <time>2012-02-19T11:14:14Z</time>
      </trkpt>
      <trkpt lat="48.40662" lon="2.64539">
        <ele>128</ele>
        <time>2012-02-19T11:14:26Z</time>
      </trkpt>
      <trkpt lat="48.40661" lon="2.64532">
        <ele>129</ele>
        <time>2012-02-19T11:14:28Z</time>
      </trkpt>
      <trkpt lat="48.40656" lon="2.64506">
        <ele>130</ele>
        <time>2012-02-19T11:14:36Z</time>
      </trkpt>
      <trkpt lat="48.40654" lon="2.64492">
        <ele>130</ele>
        <time>2012-02-19T11:14:39Z</time>
      </trkpt>
      <trkpt lat="48.40651" lon="2.64476">
        <ele>130</ele>
        <time>2012-02-19T11:14:43Z</time>
      </trkpt>
      <trkpt lat="48.40657" lon="2.64446">
        <ele>131</ele>
        <time>2012-02-19T11:14:53Z</time>
      </trkpt>
      <trkpt lat="48.40664" lon="2.64411">
        <ele>132</ele>
        <time>2012-02-19T11:15:04Z</time>
      </trkpt>
      <trkpt lat="48.40669" lon="2.64402">
        <ele>133</ele>
        <time>2012-02-19T11:15:07Z</time>
      </trkpt>
      <trkpt lat="48.4067" lon="2.64387">
        <ele>134</ele>
        <time>2012-02-19T11:15:12Z</time>
      </trkpt>
      <trkpt lat="48.40677" lon="2.64326">
        <ele>135</ele>
        <time>2012-02-19T11:15:23Z</time>
      </trkpt>
      <trkpt lat="48.40674" lon="2.6431">
        <ele>135</ele>
        <time>2012-02-19T11:15:26Z</time>
      </trkpt>
      <trkpt lat="48.40661" lon="2.64288">
        <ele>135</ele>
        <time>2012-02-19T11:15:32Z</time>
      </trkpt>
      <trkpt lat="48.40659" lon="2.64249">
        <ele>136</ele>
        <time>2012-02-19T11:15:41Z</time>
      </trkpt>
      <trkpt lat="48.40649" lon="2.64235">
        <ele>136</ele>
        <time>2012-02-19T11:15:46Z</time>
      </trkpt>
      <trkpt lat="48.40643" lon="2.64234">
        <ele>136</ele>
        <time>2012-02-19T11:15:48Z</time>
      </trkpt>
      <trkpt lat="48.40624" lon="2.64228">
        <ele>136</ele>
        <time>2012-02-19T11:15:54Z</time>
      </trkpt>
      <trkpt lat="48.40619" lon="2.64224">
        <ele>136</ele>
        <time>2012-02-19T11:15:59Z</time>
      </trkpt>
      <trkpt lat="48.40613" lon="2.6422">
        <ele>136</ele>
        <time>2012-02-19T11:16:03Z</time>
      </trkpt>
      <trkpt lat="48.40589" lon="2.64221">
        <ele>135</ele>
        <time>2012-02-19T11:16:10Z</time>
      </trkpt>
      <trkpt lat="48.40567" lon="2.64244">
        <ele>134</ele>
        <time>2012-02-19T11:16:18Z</time>
      </trkpt>
      <trkpt lat="48.40555" lon="2.64264">
        <ele>133</ele>
        <time>2012-02-19T11:16:22Z</time>
      </trkpt>
      <trkpt lat="48.40542" lon="2.64266">
        <ele>133</ele>
        <time>2012-02-19T11:16:26Z</time>
      </trkpt>
      <trkpt lat="48.40524" lon="2.64302">
        <ele>132</ele>
        <time>2012-02-19T11:16:36Z</time>
      </trkpt>
      <trkpt lat="48.40526" lon="2.64321">
        <ele>132</ele>
        <time>2012-02-19T11:16:40Z</time>
      </trkpt>
      <trkpt lat="48.40517" lon="2.64325">
        <ele>132</ele>
        <time>2012-02-19T11:16:50Z</time>
      </trkpt>
      <trkpt lat="48.40514" lon="2.64327">
        <ele>132</ele>
        <time>2012-02-19T11:17:03Z</time>
      </trkpt>
      <trkpt lat="48.40506" lon="2.64331">
        <ele>131</ele>
        <time>2012-02-19T11:17:07Z</time>
      </trkpt>
      <trkpt lat="48.405" lon="2.64338">
        <ele>131</ele>
        <time>2012-02-19T11:17:19Z</time>
      </trkpt>
      <trkpt lat="48.40489" lon="2.64353">
        <ele>131</ele>
        <time>2012-02-19T11:17:34Z</time>
      </trkpt>
      <trkpt lat="48.40463" lon="2.64388">
        <ele>131</ele>
        <time>2012-02-19T11:17:45Z</time>
      </trkpt>
      <trkpt lat="48.40449" lon="2.6441">
        <ele>131</ele>
        <time>2012-02-19T11:17:52Z</time>
      </trkpt>
      <trkpt lat="48.40422" lon="2.64423">
        <ele>131</ele>
        <time>2012-02-19T11:18:02Z</time>
      </trkpt>
      <trkpt lat="48.40416" lon="2.64425">
        <ele>130</ele>
        <time>2012-02-19T11:18:17Z</time>
      </trkpt>
      <trkpt lat="48.40409" lon="2.64423">
        <ele>129</ele>
        <time>2012-02-19T11:18:45Z</time>
      </trkpt>
      <trkpt lat="48.40409" lon="2.64423">
        <ele>129</ele>
        <time>2012-02-19T11:18:47Z</time>
      </trkpt>
      <trkpt lat="48.40402" lon="2.64429">
        <ele>128</ele>
        <time>2012-02-19T11:18:56Z</time>
      </trkpt>
      <trkpt lat="48.40399" lon="2.64429">
        <ele>128</ele>
        <time>2012-02-19T11:19:07Z</time>
      </trkpt>
      <trkpt lat="48.40399" lon="2.64427">
        <ele>128</ele>
        <time>2012-02-19T11:19:10Z</time>
      </trkpt>
      <trkpt lat="48.40402" lon="2.64418">
        <ele>129</ele>
        <time>2012-02-19T11:19:17Z</time>
      </trkpt>
      <trkpt lat="48.40409" lon="2.64404">
        <ele>129</ele>
        <time>2012-02-19T11:19:27Z</time>
      </trkpt>
      <trkpt lat="48.40414" lon="2.64389">
        <ele>128</ele>
        <time>2012-02-19T11:19:35Z</time>
      </trkpt>
      <trkpt lat="48.4041" lon="2.64372">
        <ele>128</ele>
        <time>2012-02-19T11:19:49Z</time>
      </trkpt>
      <trkpt lat="48.4041" lon="2.64372">
        <ele>128</ele>
        <time>2012-02-19T11:19:57Z</time>
      </trkpt>
      <trkpt lat="48.4041" lon="2.64349">
        <ele>128</ele>
        <time>2012-02-19T11:20:15Z</time>
      </trkpt>
      <trkpt lat="48.4041" lon="2.64337">
        <ele>129</ele>
        <time>2012-02-19T11:20:18Z</time>
      </trkpt>
      <trkpt lat="48.40408" lon="2.64326">
        <ele>129</ele>
        <time>2012-02-19T11:20:21Z</time>
      </trkpt>
      <trkpt lat="48.40414" lon="2.64285">
        <ele>129</ele>
        <time>2012-02-19T11:20:31Z</time>
      </trkpt>
      <trkpt lat="48.40417" lon="2.64268">
        <ele>130</ele>
        <time>2012-02-19T11:20:36Z</time>
      </trkpt>
      <trkpt lat="48.40418" lon="2.64231">
        <ele>131</ele>
        <time>2012-02-19T11:20:44Z</time>
      </trkpt>
      <trkpt lat="48.40422" lon="2.64197">
        <ele>131</ele>
        <time>2012-02-19T11:20:52Z</time>
      </trkpt>
      <trkpt lat="48.40423" lon="2.64191">
        <ele>131</ele>
        <time>2012-02-19T11:21:05Z</time>
      </trkpt>
      <trkpt lat="48.40423" lon="2.64196">
        <ele>131</ele>
        <time>2012-02-19T11:21:08Z</time>
      </trkpt>
      <trkpt lat="48.40439" lon="2.64187">
        <ele>132</ele>
        <time>2012-02-19T11:21:15Z</time>
      </trkpt>
      <trkpt lat="48.40448" lon="2.64185">
        <ele>132</ele>
        <time>2012-02-19T11:21:18Z</time>
      </trkpt>
      <trkpt lat="48.4046" lon="2.64143">
        <ele>133</ele>
        <time>2012-02-19T11:21:30Z</time>
      </trkpt>
      <trkpt lat="48.40465" lon="2.64104">
        <ele>133</ele>
        <time>2012-02-19T11:21:38Z</time>
      </trkpt>
      <trkpt lat="48.40464" lon="2.64086">
        <ele>133</ele>
        <time>2012-02-19T11:21:41Z</time>
      </trkpt>
      <trkpt lat="48.40447" lon="2.64012">
        <ele>133</ele>
        <time>2012-02-19T11:21:56Z</time>
      </trkpt>
      <trkpt lat="48.40447" lon="2.63985">
        <ele>134</ele>
        <time>2012-02-19T11:22:01Z</time>
      </trkpt>
      <trkpt lat="48.40454" lon="2.63928">
        <ele>134</ele>
        <time>2012-02-19T11:22:11Z</time>
      </trkpt>
      <trkpt lat="48.40465" lon="2.63898">
        <ele>135</ele>
        <time>2012-02-19T11:22:18Z</time>
      </trkpt>
      <trkpt lat="48.40496" lon="2.63909">
        <ele>134</ele>
        <time>2012-02-19T11:22:29Z</time>
      </trkpt>
      <trkpt lat="48.4051" lon="2.63921">
        <ele>133</ele>
        <time>2012-02-19T11:22:33Z</time>
      </trkpt>
      <trkpt lat="48.4052" lon="2.6394">
        <ele>133</ele>
        <time>2012-02-19T11:22:37Z</time>
      </trkpt>
      <trkpt lat="48.40543" lon="2.63969">
        <ele>134</ele>
        <time>2012-02-19T11:22:44Z</time>
      </trkpt>
      <trkpt lat="48.40554" lon="2.63978">
        <ele>134</ele>
        <time>2012-02-19T11:22:47Z</time>
      </trkpt>
      <trkpt lat="48.40605" lon="2.64016">
        <ele>135</ele>
        <time>2012-02-19T11:23:02Z</time>
      </trkpt>
      <trkpt lat="48.4065" lon="2.64066">
        <ele>136</ele>
        <time>2012-02-19T11:23:18Z</time>
      </trkpt>
      <trkpt lat="48.40657" lon="2.64077">
        <ele>136</ele>
        <time>2012-02-19T11:23:21Z</time>
      </trkpt>
      <trkpt lat="48.40677" lon="2.64094">
        <ele>136</ele>
        <time>2012-02-19T11:23:30Z</time>
      </trkpt>
      <trkpt lat="48.40684" lon="2.64099">
        <ele>136</ele>
        <time>2012-02-19T11:23:34Z</time>
      </trkpt>
      <trkpt lat="48.40693" lon="2.64088">
        <ele>136</ele>
        <time>2012-02-19T11:23:39Z</time>
      </trkpt>
      <trkpt lat="48.4071" lon="2.64059">
        <ele>136</ele>
        <time>2012-02-19T11:23:49Z</time>
      </trkpt>
      <trkpt lat="48.40716" lon="2.64047">
        <ele>136</ele>
        <time>2012-02-19T11:23:54Z</time>
      </trkpt>
      <trkpt lat="48.40726" lon="2.64041">
        <ele>136</ele>
        <time>2012-02-19T11:23:58Z</time>
      </trkpt>
      <trkpt lat="48.40757" lon="2.64008">
        <ele>136</ele>
        <time>2012-02-19T11:24:09Z</time>
      </trkpt>
      <trkpt lat="48.4079" lon="2.63969">
        <ele>137</ele>
        <time>2012-02-19T11:24:21Z</time>
      </trkpt>
      <trkpt lat="48.40809" lon="2.63946">
        <ele>137</ele>
        <time>2012-02-19T11:24:27Z</time>
      </trkpt>
      <trkpt lat="48.40832" lon="2.63915">
        <ele>138</ele>
        <time>2012-02-19T11:24:37Z</time>
      </trkpt>
      <trkpt lat="48.40843" lon="2.63863">
        <ele>139</ele>
        <time>2012-02-19T11:24:49Z</time>
      </trkpt>
      <trkpt lat="48.40844" lon="2.6381">
        <ele>139</ele>
        <time>2012-02-19T11:25:01Z</time>
      </trkpt>
      <trkpt lat="48.40845" lon="2.63802">
        <ele>139</ele>
        <time>2012-02-19T11:25:03Z</time>
      </trkpt>
      <trkpt lat="48.40838" lon="2.63792">
        <ele>138</ele>
        <time>2012-02-19T11:25:07Z</time>
      </trkpt>
      <trkpt lat="48.40832" lon="2.63789">
        <ele>136</ele>
        <time>2012-02-19T11:25:09Z</time>
      </trkpt>
      <trkpt lat="48.40816" lon="2.63764">
        <ele>136</ele>
        <time>2012-02-19T11:25:16Z</time>
      </trkpt>
      <trkpt lat="48.40799" lon="2.63754">
        <ele>136</ele>
        <time>2012-02-19T11:25:21Z</time>
      </trkpt>
      <trkpt lat="48.40784" lon="2.63758">
        <ele>136</ele>
        <time>2012-02-19T11:25:27Z</time>
      </trkpt>
      <trkpt lat="48.40763" lon="2.63753">
        <ele>135</ele>
        <time>2012-02-19T11:25:31Z</time>
      </trkpt>
      <trkpt lat="48.40749" lon="2.63739">
        <ele>135</ele>
        <time>2012-02-19T11:25:34Z</time>
      </trkpt>
      <trkpt lat="48.40738" lon="2.63719">
        <ele>135</ele>
        <time>2012-02-19T11:25:38Z</time>
      </trkpt>
      <trkpt lat="48.40731" lon="2.63711">
        <ele>135</ele>
        <time>2012-02-19T11:25:41Z</time>
      </trkpt>
      <trkpt lat="48.40731" lon="2.63695">
        <ele>135</ele>
        <time>2012-02-19T11:25:45Z</time>
      </trkpt>
      <trkpt lat="48.40721" lon="2.63669">
        <ele>135</ele>
        <time>2012-02-19T11:25:51Z</time>
      </trkpt>
      <trkpt lat="48.40708" lon="2.63647">
        <ele>136</ele>
        <time>2012-02-19T11:25:56Z</time>
      </trkpt>
      <trkpt lat="48.40698" lon="2.63639">
        <ele>136</ele>
        <time>2012-02-19T11:26:00Z</time>
      </trkpt>
      <trkpt lat="48.40692" lon="2.63625">
        <ele>136</ele>
        <time>2012-02-19T11:26:06Z</time>
      </trkpt>
      <trkpt lat="48.4069" lon="2.6362">
        <ele>136</ele>
        <time>2012-02-19T11:26:08Z</time>
      </trkpt>
      <trkpt lat="48.40683" lon="2.63612">
        <ele>137</ele>
        <time>2012-02-19T11:26:12Z</time>
      </trkpt>
      <trkpt lat="48.40668" lon="2.63604">
        <ele>137</ele>
        <time>2012-02-19T11:26:18Z</time>
      </trkpt>
      <trkpt lat="48.40652" lon="2.63605">
        <ele>136</ele>
        <time>2012-02-19T11:26:22Z</time>
      </trkpt>
      <trkpt lat="48.40605" lon="2.63602">
        <ele>136</ele>
        <time>2012-02-19T11:26:34Z</time>
      </trkpt>
      <trkpt lat="48.40568" lon="2.63578">
        <ele>136</ele>
        <time>2012-02-19T11:26:45Z</time>
      </trkpt>
      <trkpt lat="48.40551" lon="2.63545">
        <ele>137</ele>
        <time>2012-02-19T11:26:53Z</time>
      </trkpt>
      <trkpt lat="48.40536" lon="2.6353">
        <ele>137</ele>
        <time>2012-02-19T11:27:00Z</time>
      </trkpt>
      <trkpt lat="48.40545" lon="2.63511">
        <ele>137</ele>
        <time>2012-02-19T11:27:09Z</time>
      </trkpt>
      <trkpt lat="48.40548" lon="2.63485">
        <ele>136</ele>
        <time>2012-02-19T11:27:16Z</time>
      </trkpt>
      <trkpt lat="48.40554" lon="2.63471">
        <ele>136</ele>
        <time>2012-02-19T11:27:19Z</time>
      </trkpt>
      <trkpt lat="48.40555" lon="2.63463">
        <ele>136</ele>
        <time>2012-02-19T11:27:21Z</time>
      </trkpt>
      <trkpt lat="48.40558" lon="2.63452">
        <ele>136</ele>
        <time>2012-02-19T11:27:24Z</time>
      </trkpt>
      <trkpt lat="48.40554" lon="2.63417">
        <ele>135</ele>
        <time>2012-02-19T11:27:32Z</time>
      </trkpt>
      <trkpt lat="48.4056" lon="2.63392">
        <ele>135</ele>
        <time>2012-02-19T11:27:39Z</time>
      </trkpt>
      <trkpt lat="48.40568" lon="2.63377">
        <ele>135</ele>
        <time>2012-02-19T11:27:45Z</time>
      </trkpt>
      <trkpt lat="48.40579" lon="2.63364">
        <ele>135</ele>
        <time>2012-02-19T11:27:51Z</time>
      </trkpt>
      <trkpt lat="48.40587" lon="2.63347">
        <ele>135</ele>
        <time>2012-02-19T11:27:58Z</time>
      </trkpt>
      <trkpt lat="48.40596" lon="2.63317">
        <ele>135</ele>
        <time>2012-02-19T11:28:05Z</time>
      </trkpt>
      <trkpt lat="48.40602" lon="2.63307">
        <ele>135</ele>
        <time>2012-02-19T11:28:08Z</time>
      </trkpt>
      <trkpt lat="48.4061" lon="2.63254">
        <ele>134</ele>
        <time>2012-02-19T11:28:18Z</time>
      </trkpt>
      <trkpt lat="48.4061" lon="2.63245">
        <ele>134</ele>
        <time>2012-02-19T11:28:20Z</time>
      </trkpt>
      <trkpt lat="48.40609" lon="2.63239">
        <ele>134</ele>
        <time>2012-02-19T11:28:22Z</time>
      </trkpt>
      <trkpt lat="48.40617" lon="2.63212">
        <ele>134</ele>
        <time>2012-02-19T11:28:29Z</time>
      </trkpt>
      <trkpt lat="48.40616" lon="2.63195">
        <ele>134</ele>
        <time>2012-02-19T11:28:33Z</time>
      </trkpt>
      <trkpt lat="48.40613" lon="2.63189">
        <ele>134</ele>
        <time>2012-02-19T11:28:35Z</time>
      </trkpt>
      <trkpt lat="48.40606" lon="2.63186">
        <ele>134</ele>
        <time>2012-02-19T11:28:39Z</time>
      </trkpt>
      <trkpt lat="48.40604" lon="2.63175">
        <ele>133</ele>
        <time>2012-02-19T11:28:43Z</time>
      </trkpt>
      <trkpt lat="48.4061" lon="2.63155">
        <ele>133</ele>
        <time>2012-02-19T11:28:51Z</time>
      </trkpt>
      <trkpt lat="48.40628" lon="2.63137">
        <ele>133</ele>
        <time>2012-02-19T11:29:01Z</time>
      </trkpt>
      <trkpt lat="48.40639" lon="2.63144">
        <ele>133</ele>
        <time>2012-02-19T11:29:11Z</time>
      </trkpt>
      <trkpt lat="48.4065" lon="2.63147">
        <ele>133</ele>
        <time>2012-02-19T11:29:22Z</time>
      </trkpt>
      <trkpt lat="48.40658" lon="2.63138">
        <ele>133</ele>
        <time>2012-02-19T11:29:33Z</time>
      </trkpt>
      <trkpt lat="48.40662" lon="2.63134">
        <ele>133</ele>
        <time>2012-02-19T11:29:42Z</time>
      </trkpt>
      <trkpt lat="48.40668" lon="2.63132">
        <ele>133</ele>
        <time>2012-02-19T11:29:58Z</time>
      </trkpt>
      <trkpt lat="48.40674" lon="2.63131">
        <ele>133</ele>
        <time>2012-02-19T11:30:20Z</time>
      </trkpt>
      <trkpt lat="48.40684" lon="2.63139">
        <ele>133</ele>
        <time>2012-02-19T11:30:25Z</time>
      </trkpt>
      <trkpt lat="48.40707" lon="2.63152">
        <ele>133</ele>
        <time>2012-02-19T11:30:35Z</time>
      </trkpt>
      <trkpt lat="48.40716" lon="2.63149">
        <ele>133</ele>
        <time>2012-02-19T11:30:39Z</time>
      </trkpt>
      <trkpt lat="48.40721" lon="2.63147">
        <ele>133</ele>
        <time>2012-02-19T11:30:41Z</time>
      </trkpt>
      <trkpt lat="48.40746" lon="2.63141">
        <ele>133</ele>
        <time>2012-02-19T11:30:49Z</time>
      </trkpt>
      <trkpt lat="48.4075" lon="2.63133">
        <ele>133</ele>
        <time>2012-02-19T11:30:52Z</time>
      </trkpt>
      <trkpt lat="48.40766" lon="2.63119">
        <ele>133</ele>
        <time>2012-02-19T11:31:00Z</time>
      </trkpt>
      <trkpt lat="48.4077" lon="2.63117">
        <ele>133</ele>
        <time>2012-02-19T11:31:02Z</time>
      </trkpt>
      <trkpt lat="48.40785" lon="2.63105">
        <ele>133</ele>
        <time>2012-02-19T11:31:08Z</time>
      </trkpt>
      <trkpt lat="48.40794" lon="2.63107">
        <ele>133</ele>
        <time>2012-02-19T11:31:12Z</time>
      </trkpt>
      <trkpt lat="48.40817" lon="2.6309">
        <ele>134</ele>
        <time>2012-02-19T11:31:23Z</time>
      </trkpt>
      <trkpt lat="48.40825" lon="2.63082">
        <ele>134</ele>
        <time>2012-02-19T11:31:26Z</time>
      </trkpt>
      <trkpt lat="48.40857" lon="2.63072">
        <ele>134</ele>
        <time>2012-02-19T11:31:36Z</time>
      </trkpt>
      <trkpt lat="48.40864" lon="2.63069">
        <ele>134</ele>
        <time>2012-02-19T11:31:37Z</time>
      </trkpt>
      <trkpt lat="48.4087" lon="2.6307">
        <ele>134</ele>
        <time>2012-02-19T11:31:39Z</time>
      </trkpt>
      <trkpt lat="48.40885" lon="2.63064">
        <ele>134</ele>
        <time>2012-02-19T11:31:45Z</time>
      </trkpt>
      <trkpt lat="48.40896" lon="2.63034">
        <ele>134</ele>
        <time>2012-02-19T11:31:55Z</time>
      </trkpt>
      <trkpt lat="48.4091" lon="2.62998">
        <ele>133</ele>
        <time>2012-02-19T11:32:05Z</time>
      </trkpt>
      <trkpt lat="48.40909" lon="2.62968">
        <ele>131</ele>
        <time>2012-02-19T11:32:14Z</time>
      </trkpt>
      <trkpt lat="48.40909" lon="2.6296">
        <ele>131</ele>
        <time>2012-02-19T11:32:17Z</time>
      </trkpt>
      <trkpt lat="48.40924" lon="2.62932">
        <ele>132</ele>
        <time>2012-02-19T11:32:30Z</time>
      </trkpt>
      <trkpt lat="48.40923" lon="2.62903">
        <ele>131</ele>
        <time>2012-02-19T11:32:39Z</time>
      </trkpt>
      <trkpt lat="48.4092" lon="2.62899">
        <ele>131</ele>
        <time>2012-02-19T11:32:41Z</time>
      </trkpt>
      <trkpt lat="48.40918" lon="2.62896">
        <ele>131</ele>
        <time>2012-02-19T11:32:43Z</time>
      </trkpt>
      <trkpt lat="48.40916" lon="2.62892">
        <ele>129</ele>
        <time>2012-02-19T11:32:45Z</time>
      </trkpt>
      <trkpt lat="48.40905" lon="2.62867">
        <ele>129</ele>
        <time>2012-02-19T11:32:52Z</time>
      </trkpt>
      <trkpt lat="48.40912" lon="2.62832">
        <ele>130</ele>
        <time>2012-02-19T11:33:03Z</time>
      </trkpt>
      <trkpt lat="48.40908" lon="2.62823">
        <ele>130</ele>
        <time>2012-02-19T11:33:07Z</time>
      </trkpt>
      <trkpt lat="48.40902" lon="2.62821">
        <ele>129</ele>
        <time>2012-02-19T11:33:10Z</time>
      </trkpt>
      <trkpt lat="48.40892" lon="2.62793">
        <ele>129</ele>
        <time>2012-02-19T11:33:18Z</time>
      </trkpt>
      <trkpt lat="48.40864" lon="2.6278">
        <ele>128</ele>
        <time>2012-02-19T11:33:29Z</time>
      </trkpt>
      <trkpt lat="48.40863" lon="2.62768">
        <ele>128</ele>
        <time>2012-02-19T11:33:33Z</time>
      </trkpt>
      <trkpt lat="48.40855" lon="2.62759">
        <ele>127</ele>
        <time>2012-02-19T11:33:37Z</time>
      </trkpt>
      <trkpt lat="48.40852" lon="2.62747">
        <ele>127</ele>
        <time>2012-02-19T11:33:41Z</time>
      </trkpt>
      <trkpt lat="48.40856" lon="2.62734">
        <ele>127</ele>
        <time>2012-02-19T11:33:52Z</time>
      </trkpt>
      <trkpt lat="48.40857" lon="2.62731">
        <ele>127</ele>
        <time>2012-02-19T11:34:12Z</time>
      </trkpt>
      <trkpt lat="48.40857" lon="2.62726">
        <ele>127</ele>
        <time>2012-02-19T11:34:24Z</time>
      </trkpt>
      <trkpt lat="48.40858" lon="2.62722">
        <ele>127</ele>
        <time>2012-02-19T11:34:26Z</time>
      </trkpt>
      <trkpt lat="48.4086" lon="2.62719">
        <ele>127</ele>
        <time>2012-02-19T11:34:29Z</time>
      </trkpt>
      <trkpt lat="48.40863" lon="2.62721">
        <ele>127</ele>
        <time>2012-02-19T11:34:33Z</time>
      </trkpt>
      <trkpt lat="48.40874" lon="2.62718">
        <ele>128</ele>
        <time>2012-02-19T11:34:41Z</time>
      </trkpt>
      <trkpt lat="48.40874" lon="2.62711">
        <ele>127</ele>
        <time>2012-02-19T11:34:49Z</time>
      </trkpt>
      <trkpt lat="48.40869" lon="2.62702">
        <ele>127</ele>
        <time>2012-02-19T11:35:00Z</time>
      </trkpt>
      <trkpt lat="48.40867" lon="2.627">
        <ele>127</ele>
        <time>2012-02-19T11:35:18Z</time>
      </trkpt>
      <trkpt lat="48.40867" lon="2.627">
        <ele>127</ele>
        <time>2012-02-19T11:39:07Z</time>
      </trkpt>
      <trkpt lat="48.40868" lon="2.62702">
        <ele>127</ele>
        <time>2012-02-19T11:39:13Z</time>
      </trkpt>
      <trkpt lat="48.40871" lon="2.62705">
        <ele>127</ele>
        <time>2012-02-19T11:39:16Z</time>
      </trkpt>
      <trkpt lat="48.40874" lon="2.62704">
        <ele>127</ele>
        <time>2012-02-19T11:39:22Z</time>
      </trkpt>
      <trkpt lat="48.40874" lon="2.62701">
        <ele>127</ele>
        <time>2012-02-19T11:39:24Z</time>
      </trkpt>
      <trkpt lat="48.40873" lon="2.6269">
        <ele>127</ele>
        <time>2012-02-19T11:39:29Z</time>
      </trkpt>
      <trkpt lat="48.40875" lon="2.62683">
        <ele>127</ele>
        <time>2012-02-19T11:39:32Z</time>
      </trkpt>
      <trkpt lat="48.40877" lon="2.62677">
        <ele>127</ele>
        <time>2012-02-19T11:39:34Z</time>
      </trkpt>
      <trkpt lat="48.40878" lon="2.62672">
        <ele>127</ele>
        <time>2012-02-19T11:39:36Z</time>
      </trkpt>
      <trkpt lat="48.40881" lon="2.62651">
        <ele>126</ele>
        <time>2012-02-19T11:39:42Z</time>
      </trkpt>
      <trkpt lat="48.40884" lon="2.62637">
        <ele>126</ele>
        <time>2012-02-19T11:39:47Z</time>
      </trkpt>
      <trkpt lat="48.40892" lon="2.626">
        <ele>126</ele>
        <time>2012-02-19T11:39:57Z</time>
      </trkpt>
      <trkpt lat="48.40894" lon="2.62587">
        <ele>127</ele>
        <time>2012-02-19T11:40:01Z</time>
      </trkpt>
      <trkpt lat="48.40896" lon="2.62579">
        <ele>126</ele>
        <time>2012-02-19T11:40:10Z</time>
      </trkpt>
      <trkpt lat="48.40896" lon="2.62573">
        <ele>126</ele>
        <time>2012-02-19T11:40:18Z</time>
      </trkpt>
      <trkpt lat="48.40897" lon="2.62572">
        <ele>126</ele>
        <time>2012-02-19T11:40:20Z</time>
      </trkpt>
      <trkpt lat="48.40901" lon="2.62567">
        <ele>126</ele>
        <time>2012-02-19T11:40:34Z</time>
      </trkpt>
      <trkpt lat="48.40901" lon="2.62568">
        <ele>126</ele>
        <time>2012-02-19T11:41:13Z</time>
      </trkpt>
      <trkpt lat="48.40901" lon="2.62568">
        <ele>126</ele>
        <time>2012-02-19T11:42:14Z</time>
      </trkpt>
      <trkpt lat="48.40904" lon="2.62564">
        <ele>126</ele>
        <time>2012-02-19T11:42:28Z</time>
      </trkpt>
      <trkpt lat="48.40902" lon="2.62521">
        <ele>125</ele>
        <time>2012-02-19T11:42:40Z</time>
      </trkpt>
      <trkpt lat="48.4091" lon="2.62483">
        <ele>126</ele>
        <time>2012-02-19T11:42:51Z</time>
      </trkpt>
      <trkpt lat="48.40921" lon="2.6245">
        <ele>128</ele>
        <time>2012-02-19T11:43:00Z</time>
      </trkpt>
      <trkpt lat="48.4093" lon="2.62423">
        <ele>129</ele>
        <time>2012-02-19T11:43:06Z</time>
      </trkpt>
      <trkpt lat="48.40933" lon="2.62401">
        <ele>129</ele>
        <time>2012-02-19T11:43:12Z</time>
      </trkpt>
      <trkpt lat="48.40941" lon="2.62384">
        <ele>129</ele>
        <time>2012-02-19T11:43:18Z</time>
      </trkpt>
      <trkpt lat="48.4095" lon="2.62367">
        <ele>128</ele>
        <time>2012-02-19T11:43:25Z</time>
      </trkpt>
      <trkpt lat="48.40948" lon="2.62348">
        <ele>128</ele>
        <time>2012-02-19T11:43:39Z</time>
      </trkpt>
      <trkpt lat="48.40946" lon="2.62341">
        <ele>128</ele>
        <time>2012-02-19T11:43:44Z</time>
      </trkpt>
      <trkpt lat="48.40944" lon="2.62327">
        <ele>128</ele>
        <time>2012-02-19T11:43:50Z</time>
      </trkpt>
      <trkpt lat="48.40946" lon="2.62311">
        <ele>128</ele>
        <time>2012-02-19T11:43:57Z</time>
      </trkpt>
      <trkpt lat="48.40954" lon="2.62303">
        <ele>128</ele>
        <time>2012-02-19T11:44:01Z</time>
      </trkpt>
      <trkpt lat="48.40957" lon="2.62285">
        <ele>128</ele>
        <time>2012-02-19T11:44:07Z</time>
      </trkpt>
      <trkpt lat="48.40954" lon="2.62279">
        <ele>128</ele>
        <time>2012-02-19T11:44:11Z</time>
      </trkpt>
      <trkpt lat="48.40941" lon="2.62267">
        <ele>127</ele>
        <time>2012-02-19T11:44:19Z</time>
      </trkpt>
      <trkpt lat="48.40928" lon="2.62266">
        <ele>127</ele>
        <time>2012-02-19T11:44:31Z</time>
      </trkpt>
      <trkpt lat="48.40918" lon="2.62261">
        <ele>127</ele>
        <time>2012-02-19T11:44:38Z</time>
      </trkpt>
      <trkpt lat="48.40913" lon="2.62255">
        <ele>126</ele>
        <time>2012-02-19T11:44:42Z</time>
      </trkpt>
      <trkpt lat="48.40907" lon="2.62241">
        <ele>124</ele>
        <time>2012-02-19T11:44:46Z</time>
      </trkpt>
      <trkpt lat="48.40908" lon="2.62231">
        <ele>123</ele>
        <time>2012-02-19T11:44:49Z</time>
      </trkpt>
      <trkpt lat="48.40909" lon="2.62213">
        <ele>123</ele>
        <time>2012-02-19T11:44:55Z</time>
      </trkpt>
      <trkpt lat="48.40908" lon="2.62209">
        <ele>123</ele>
        <time>2012-02-19T11:44:57Z</time>
      </trkpt>
      <trkpt lat="48.40904" lon="2.62204">
        <ele>123</ele>
        <time>2012-02-19T11:45:00Z</time>
      </trkpt>
      <trkpt lat="48.40903" lon="2.62196">
        <ele>123</ele>
        <time>2012-02-19T11:45:04Z</time>
      </trkpt>
      <trkpt lat="48.40902" lon="2.62189">
        <ele>123</ele>
        <time>2012-02-19T11:45:08Z</time>
      </trkpt>
      <trkpt lat="48.409" lon="2.62179">
        <ele>123</ele>
        <time>2012-02-19T11:45:15Z</time>
      </trkpt>
      <trkpt lat="48.40896" lon="2.6218">
        <ele>123</ele>
        <time>2012-02-19T11:45:19Z</time>
      </trkpt>
      <trkpt lat="48.40894" lon="2.62176">
        <ele>123</ele>
        <time>2012-02-19T11:45:23Z</time>
      </trkpt>
      <trkpt lat="48.40892" lon="2.62165">
        <ele>122</ele>
        <time>2012-02-19T11:45:28Z</time>
      </trkpt>
      <trkpt lat="48.40896" lon="2.62153">
        <ele>122</ele>
        <time>2012-02-19T11:45:35Z</time>
      </trkpt>
      <trkpt lat="48.40896" lon="2.62147">
        <ele>121</ele>
        <time>2012-02-19T11:45:39Z</time>
      </trkpt>
      <trkpt lat="48.40894" lon="2.62127">
        <ele>120</ele>
        <time>2012-02-19T11:45:45Z</time>
      </trkpt>
      <trkpt lat="48.40904" lon="2.62103">
        <ele>121</ele>
        <time>2012-02-19T11:45:56Z</time>
      </trkpt>
      <trkpt lat="48.40907" lon="2.62091">
        <ele>123</ele>
        <time>2012-02-19T11:46:02Z</time>
      </trkpt>
      <trkpt lat="48.40909" lon="2.62081">
        <ele>123</ele>
        <time>2012-02-19T11:46:08Z</time>
      </trkpt>
      <trkpt lat="48.40915" lon="2.62059">
        <ele>120</ele>
        <time>2012-02-19T11:46:18Z</time>
      </trkpt>
      <trkpt lat="48.40914" lon="2.6205">
        <ele>119</ele>
        <time>2012-02-19T11:46:22Z</time>
      </trkpt>
      <trkpt lat="48.40924" lon="2.62023">
        <ele>124</ele>
        <time>2012-02-19T11:46:33Z</time>
      </trkpt>
      <trkpt lat="48.40927" lon="2.62012">
        <ele>124</ele>
        <time>2012-02-19T11:46:37Z</time>
      </trkpt>
      <trkpt lat="48.40931" lon="2.62005">
        <ele>124</ele>
        <time>2012-02-19T11:46:40Z</time>
      </trkpt>
      <trkpt lat="48.40933" lon="2.61996">
        <ele>124</ele>
        <time>2012-02-19T11:46:45Z</time>
      </trkpt>
      <trkpt lat="48.40937" lon="2.61989">
        <ele>124</ele>
        <time>2012-02-19T11:46:49Z</time>
      </trkpt>
      <trkpt lat="48.40952" lon="2.61965">
        <ele>124</ele>
        <time>2012-02-19T11:46:59Z</time>
      </trkpt>
      <trkpt lat="48.40952" lon="2.6196">
        <ele>124</ele>
        <time>2012-02-19T11:47:01Z</time>
      </trkpt>
      <trkpt lat="48.40962" lon="2.61955">
        <ele>125</ele>
        <time>2012-02-19T11:47:10Z</time>
      </trkpt>
      <trkpt lat="48.40969" lon="2.61953">
        <ele>125</ele>
        <time>2012-02-19T11:47:15Z</time>
      </trkpt>
      <trkpt lat="48.40951" lon="2.61921">
        <ele>124</ele>
        <time>2012-02-19T11:47:26Z</time>
      </trkpt>
      <trkpt lat="48.40946" lon="2.61913">
        <ele>123</ele>
        <time>2012-02-19T11:47:28Z</time>
      </trkpt>
      <trkpt lat="48.40943" lon="2.61898">
        <ele>123</ele>
        <time>2012-02-19T11:47:31Z</time>
      </trkpt>
      <trkpt lat="48.40949" lon="2.61884">
        <ele>123</ele>
        <time>2012-02-19T11:47:35Z</time>
      </trkpt>
      <trkpt lat="48.40952" lon="2.61877">
        <ele>123</ele>
        <time>2012-02-19T11:47:37Z</time>
      </trkpt>
      <trkpt lat="48.40948" lon="2.61869">
        <ele>123</ele>
        <time>2012-02-19T11:47:41Z</time>
      </trkpt>
      <trkpt lat="48.4094" lon="2.61867">
        <ele>122</ele>
        <time>2012-02-19T11:47:44Z</time>
      </trkpt>
      <trkpt lat="48.40937" lon="2.61851">
        <ele>122</ele>
        <time>2012-02-19T11:47:50Z</time>
      </trkpt>
      <trkpt lat="48.40944" lon="2.61823">
        <ele>121</ele>
        <time>2012-02-19T11:47:59Z</time>
      </trkpt>
      <trkpt lat="48.40944" lon="2.61814">
        <ele>121</ele>
        <time>2012-02-19T11:48:02Z</time>
      </trkpt>
      <trkpt lat="48.40952" lon="2.6181">
        <ele>122</ele>
        <time>2012-02-19T11:48:09Z</time>
      </trkpt>
      <trkpt lat="48.40957" lon="2.61814">
        <ele>122</ele>
        <time>2012-02-19T11:48:13Z</time>
      </trkpt>
      <trkpt lat="48.40966" lon="2.61807">
        <ele>122</ele>
        <time>2012-02-19T11:48:19Z</time>
      </trkpt>
      <trkpt lat="48.40969" lon="2.61795">
        <ele>122</ele>
        <time>2012-02-19T11:48:24Z</time>
      </trkpt>
      <trkpt lat="48.40967" lon="2.61774">
        <ele>123</ele>
        <time>2012-02-19T11:48:32Z</time>
      </trkpt>
      <trkpt lat="48.40969" lon="2.61758">
        <ele>123</ele>
        <time>2012-02-19T11:48:37Z</time>
      </trkpt>
      <trkpt lat="48.40975" lon="2.61748">
        <ele>124</ele>
        <time>2012-02-19T11:48:47Z</time>
      </trkpt>
      <trkpt lat="48.40974" lon="2.61747">
        <ele>124</ele>
        <time>2012-02-19T11:49:19Z</time>
      </trkpt>
      <trkpt lat="48.40971" lon="2.61745">
        <ele>124</ele>
        <time>2012-02-19T11:49:22Z</time>
      </trkpt>
      <trkpt lat="48.40965" lon="2.61734">
        <ele>124</ele>
        <time>2012-02-19T11:49:27Z</time>
      </trkpt>
      <trkpt lat="48.40959" lon="2.61725">
        <ele>123</ele>
        <time>2012-02-19T11:49:30Z</time>
      </trkpt>
      <trkpt lat="48.40958" lon="2.61721">
        <ele>123</ele>
        <time>2012-02-19T11:49:32Z</time>
      </trkpt>
      <trkpt lat="48.40951" lon="2.61714">
        <ele>123</ele>
        <time>2012-02-19T11:49:36Z</time>
      </trkpt>
      <trkpt lat="48.40947" lon="2.6171">
        <ele>123</ele>
        <time>2012-02-19T11:49:39Z</time>
      </trkpt>
      <trkpt lat="48.40942" lon="2.61706">
        <ele>123</ele>
        <time>2012-02-19T11:49:42Z</time>
      </trkpt>
      <trkpt lat="48.40931" lon="2.61693">
        <ele>122</ele>
        <time>2012-02-19T11:49:50Z</time>
      </trkpt>
      <trkpt lat="48.40926" lon="2.61683">
        <ele>121</ele>
        <time>2012-02-19T11:49:55Z</time>
      </trkpt>
      <trkpt lat="48.40919" lon="2.61676">
        <ele>120</ele>
        <time>2012-02-19T11:50:05Z</time>
      </trkpt>
      <trkpt lat="48.40918" lon="2.6167">
        <ele>120</ele>
        <time>2012-02-19T11:50:24Z</time>
      </trkpt>
      <trkpt lat="48.40918" lon="2.61664">
        <ele>119</ele>
        <time>2012-02-19T11:50:27Z</time>
      </trkpt>
      <trkpt lat="48.40915" lon="2.61659">
        <ele>117</ele>
        <time>2012-02-19T11:50:29Z</time>
      </trkpt>
      <trkpt lat="48.40917" lon="2.61638">
        <ele>114</ele>
        <time>2012-02-19T11:50:40Z</time>
      </trkpt>
      <trkpt lat="48.40916" lon="2.61635">
        <ele>114</ele>
        <time>2012-02-19T11:50:48Z</time>
      </trkpt>
      <trkpt lat="48.40911" lon="2.61635">
        <ele>114</ele>
        <time>2012-02-19T11:50:56Z</time>
      </trkpt>
      <trkpt lat="48.40907" lon="2.61626">
        <ele>113</ele>
        <time>2012-02-19T11:51:01Z</time>
      </trkpt>
      <trkpt lat="48.40888" lon="2.61611">
        <ele>112</ele>
        <time>2012-02-19T11:51:09Z</time>
      </trkpt>
      <trkpt lat="48.4085" lon="2.61601">
        <ele>110</ele>
        <time>2012-02-19T11:51:18Z</time>
      </trkpt>
      <trkpt lat="48.40848" lon="2.616">
        <ele>109</ele>
        <time>2012-02-19T11:51:30Z</time>
      </trkpt>
      <trkpt lat="48.40847" lon="2.61598">
        <ele>109</ele>
        <time>2012-02-19T11:53:06Z</time>
      </trkpt>
      <trkpt lat="48.40861" lon="2.61569">
        <ele>110</ele>
        <time>2012-02-19T11:53:17Z</time>
      </trkpt>
      <trkpt lat="48.40885" lon="2.61525">
        <ele>110</ele>
        <time>2012-02-19T11:53:28Z</time>
      </trkpt>
      <trkpt lat="48.40892" lon="2.61501">
        <ele>110</ele>
        <time>2012-02-19T11:53:33Z</time>
      </trkpt>
      <trkpt lat="48.40896" lon="2.61473">
        <ele>110</ele>
        <time>2012-02-19T11:53:39Z</time>
      </trkpt>
      <trkpt lat="48.4091" lon="2.614">
        <ele>107</ele>
        <time>2012-02-19T11:53:46Z</time>
      </trkpt>
      <trkpt lat="48.40896" lon="2.61329">
        <ele>104</ele>
        <time>2012-02-19T11:53:58Z</time>
      </trkpt>
      <trkpt lat="48.4089" lon="2.61288">
        <ele>104</ele>
        <time>2012-02-19T11:54:06Z</time>
      </trkpt>
      <trkpt lat="48.40882" lon="2.61222">
        <ele>105</ele>
        <time>2012-02-19T11:54:17Z</time>
      </trkpt>
      <trkpt lat="48.40874" lon="2.61175">
        <ele>106</ele>
        <time>2012-02-19T11:54:26Z</time>
      </trkpt>
      <trkpt lat="48.4087" lon="2.61161">
        <ele>109</ele>
        <time>2012-02-19T11:54:29Z</time>
      </trkpt>
      <trkpt lat="48.40871" lon="2.61129">
        <ele>109</ele>
        <time>2012-02-19T11:54:36Z</time>
      </trkpt>
      <trkpt lat="48.40872" lon="2.61119">
        <ele>110</ele>
        <time>2012-02-19T11:54:39Z</time>
      </trkpt>
      <trkpt lat="48.40869" lon="2.61094">
        <ele>110</ele>
        <time>2012-02-19T11:54:46Z</time>
      </trkpt>
      <trkpt lat="48.40887" lon="2.61053">
        <ele>112</ele>
        <time>2012-02-19T11:54:59Z</time>
      </trkpt>
      <trkpt lat="48.40888" lon="2.61049">
        <ele>113</ele>
        <time>2012-02-19T11:55:01Z</time>
      </trkpt>
      <trkpt lat="48.40888" lon="2.61042">
        <ele>113</ele>
        <time>2012-02-19T11:55:04Z</time>
      </trkpt>
      <trkpt lat="48.4088" lon="2.61039">
        <ele>113</ele>
        <time>2012-02-19T11:55:09Z</time>
      </trkpt>
      <trkpt lat="48.40871" lon="2.61035">
        <ele>114</ele>
        <time>2012-02-19T11:55:14Z</time>
      </trkpt>
      <trkpt lat="48.40866" lon="2.61028">
        <ele>114</ele>
        <time>2012-02-19T11:55:20Z</time>
      </trkpt>
      <trkpt lat="48.40863" lon="2.61013">
        <ele>114</ele>
        <time>2012-02-19T11:55:26Z</time>
      </trkpt>
      <trkpt lat="48.40857" lon="2.60999">
        <ele>116</ele>
        <time>2012-02-19T11:55:35Z</time>
      </trkpt>
      <trkpt lat="48.40854" lon="2.60989">
        <ele>116</ele>
        <time>2012-02-19T11:55:40Z</time>
      </trkpt>
      <trkpt lat="48.40853" lon="2.60985">
        <ele>116</ele>
        <time>2012-02-19T11:55:42Z</time>
      </trkpt>
      <trkpt lat="48.40847" lon="2.60966">
        <ele>116</ele>
        <time>2012-02-19T11:55:52Z</time>
      </trkpt>
      <trkpt lat="48.40837" lon="2.60955">
        <ele>116</ele>
        <time>2012-02-19T11:56:00Z</time>
      </trkpt>
      <trkpt lat="48.40829" lon="2.60943">
        <ele>115</ele>
        <time>2012-02-19T11:56:09Z</time>
      </trkpt>
      <trkpt lat="48.40821" lon="2.60921">
        <ele>116</ele>
        <time>2012-02-19T11:56:18Z</time>
      </trkpt>
      <trkpt lat="48.4082" lon="2.60905">
        <ele>114</ele>
        <time>2012-02-19T11:56:22Z</time>
      </trkpt>
      <trkpt lat="48.40822" lon="2.60898">
        <ele>114</ele>
        <time>2012-02-19T11:56:25Z</time>
      </trkpt>
      <trkpt lat="48.40822" lon="2.60887">
        <ele>113</ele>
        <time>2012-02-19T11:56:29Z</time>
      </trkpt>
      <trkpt lat="48.40823" lon="2.60874">
        <ele>112</ele>
        <time>2012-02-19T11:56:33Z</time>
      </trkpt>
      <trkpt lat="48.40828" lon="2.60868">
        <ele>112</ele>
        <time>2012-02-19T11:56:37Z</time>
      </trkpt>
      <trkpt lat="48.40829" lon="2.60854">
        <ele>110</ele>
        <time>2012-02-19T11:56:41Z</time>
      </trkpt>
      <trkpt lat="48.40832" lon="2.60828">
        <ele>108</ele>
        <time>2012-02-19T11:56:47Z</time>
      </trkpt>
      <trkpt lat="48.40839" lon="2.60803">
        <ele>105</ele>
        <time>2012-02-19T11:56:54Z</time>
      </trkpt>
      <trkpt lat="48.40829" lon="2.60808">
        <ele>109</ele>
        <time>2012-02-19T11:57:03Z</time>
      </trkpt>
      <trkpt lat="48.40821" lon="2.60811">
        <ele>109</ele>
        <time>2012-02-19T11:57:07Z</time>
      </trkpt>
      <trkpt lat="48.40808" lon="2.60825">
        <ele>109</ele>
        <time>2012-02-19T11:57:14Z</time>
      </trkpt>
      <trkpt lat="48.40799" lon="2.60833">
        <ele>111</ele>
        <time>2012-02-19T11:57:18Z</time>
      </trkpt>
      <trkpt lat="48.40785" lon="2.6085">
        <ele>112</ele>
        <time>2012-02-19T11:57:26Z</time>
      </trkpt>
      <trkpt lat="48.40772" lon="2.60848">
        <ele>113</ele>
        <time>2012-02-19T11:57:31Z</time>
      </trkpt>
      <trkpt lat="48.40776" lon="2.60805">
        <ele>111</ele>
        <time>2012-02-19T11:57:42Z</time>
      </trkpt>
      <trkpt lat="48.4078" lon="2.60741">
        <ele>112</ele>
        <time>2012-02-19T11:57:55Z</time>
      </trkpt>
      <trkpt lat="48.40781" lon="2.60697">
        <ele>111</ele>
        <time>2012-02-19T11:58:05Z</time>
      </trkpt>
      <trkpt lat="48.40758" lon="2.60686">
        <ele>114</ele>
        <time>2012-02-19T11:58:15Z</time>
      </trkpt>
      <trkpt lat="48.40737" lon="2.60685">
        <ele>120</ele>
        <time>2012-02-19T11:58:26Z</time>
      </trkpt>
      <trkpt lat="48.40727" lon="2.60685">
        <ele>121</ele>
        <time>2012-02-19T11:58:34Z</time>
      </trkpt>
      <trkpt lat="48.40725" lon="2.60682">
        <ele>121</ele>
        <time>2012-02-19T11:58:46Z</time>
      </trkpt>
      <trkpt lat="48.40717" lon="2.60679">
        <ele>122</ele>
        <time>2012-02-19T11:59:04Z</time>
      </trkpt>
      <trkpt lat="48.40712" lon="2.60679">
        <ele>122</ele>
        <time>2012-02-19T11:59:15Z</time>
      </trkpt>
      <trkpt lat="48.40709" lon="2.60675">
        <ele>123</ele>
        <time>2012-02-19T11:59:26Z</time>
      </trkpt>
      <trkpt lat="48.40703" lon="2.60668">
        <ele>123</ele>
        <time>2012-02-19T11:59:38Z</time>
      </trkpt>
      <trkpt lat="48.40701" lon="2.60665">
        <ele>123</ele>
        <time>2012-02-19T11:59:47Z</time>
      </trkpt>
      <trkpt lat="48.40702" lon="2.60655">
        <ele>123</ele>
        <time>2012-02-19T11:59:51Z</time>
      </trkpt>
      <trkpt lat="48.40694" lon="2.60637">
        <ele>123</ele>
        <time>2012-02-19T11:59:59Z</time>
      </trkpt>
      <trkpt lat="48.4068" lon="2.60616">
        <ele>124</ele>
        <time>2012-02-19T12:00:11Z</time>
      </trkpt>
      <trkpt lat="48.40675" lon="2.6061">
        <ele>124</ele>
        <time>2012-02-19T12:00:15Z</time>
      </trkpt>
      <trkpt lat="48.40672" lon="2.60608">
        <ele>124</ele>
        <time>2012-02-19T12:00:18Z</time>
      </trkpt>
      <trkpt lat="48.4067" lon="2.60601">
        <ele>125</ele>
        <time>2012-02-19T12:00:23Z</time>
      </trkpt>
      <trkpt lat="48.40684" lon="2.60573">
        <ele>124</ele>
        <time>2012-02-19T12:00:38Z</time>
      </trkpt>
      <trkpt lat="48.40688" lon="2.60532">
        <ele>122</ele>
        <time>2012-02-19T12:00:53Z</time>
      </trkpt>
      <trkpt lat="48.4069" lon="2.60472">
        <ele>123</ele>
        <time>2012-02-19T12:01:10Z</time>
      </trkpt>
      <trkpt lat="48.40689" lon="2.60404">
        <ele>123</ele>
        <time>2012-02-19T12:01:28Z</time>
      </trkpt>
      <trkpt lat="48.40687" lon="2.60401">
        <ele>123</ele>
        <time>2012-02-19T12:01:40Z</time>
      </trkpt>
      <trkpt lat="48.40686" lon="2.60402">
        <ele>123</ele>
        <time>2012-02-19T12:01:59Z</time>
      </trkpt>
      <trkpt lat="48.40658" lon="2.60383">
        <ele>128</ele>
        <time>2012-02-19T12:02:13Z</time>
      </trkpt>
      <trkpt lat="48.40618" lon="2.60336">
        <ele>128</ele>
        <time>2012-02-19T12:02:27Z</time>
      </trkpt>
      <trkpt lat="48.40604" lon="2.60298">
        <ele>128</ele>
        <time>2012-02-19T12:05:27Z</time>
      </trkpt>
      <trkpt lat="48.40616" lon="2.60217">
        <ele>128</ele>
        <time>2012-02-19T12:05:41Z</time>
      </trkpt>
      <trkpt lat="48.4063" lon="2.6014">
        <ele>127</ele>
        <time>2012-02-19T12:05:54Z</time>
      </trkpt>
      <trkpt lat="48.40644" lon="2.60048">
        <ele>128</ele>
        <time>2012-02-19T12:06:08Z</time>
      </trkpt>
      <trkpt lat="48.40644" lon="2.60041">
        <ele>128</ele>
        <time>2012-02-19T12:06:09Z</time>
      </trkpt>
      <trkpt lat="48.40645" lon="2.59952">
        <ele>129</ele>
        <time>2012-02-19T12:06:23Z</time>
      </trkpt>
      <trkpt lat="48.40644" lon="2.59939">
        <ele>129</ele>
        <time>2012-02-19T12:06:25Z</time>
      </trkpt>
      <trkpt lat="48.4064" lon="2.59897">
        <ele>128</ele>
        <time>2012-02-19T12:06:31Z</time>
      </trkpt>
      <trkpt lat="48.40633" lon="2.59873">
        <ele>128</ele>
        <time>2012-02-19T12:06:35Z</time>
      </trkpt>
      <trkpt lat="48.40601" lon="2.59828">
        <ele>127</ele>
        <time>2012-02-19T12:06:47Z</time>
      </trkpt>
      <trkpt lat="48.40597" lon="2.59824">
        <ele>128</ele>
        <time>2012-02-19T12:06:58Z</time>
      </trkpt>
      <trkpt lat="48.40597" lon="2.59824">
        <ele>128</ele>
        <time>2012-02-19T12:07:01Z</time>
      </trkpt>
      <trkpt lat="48.406" lon="2.59813">
        <ele>127</ele>
        <time>2012-02-19T12:07:05Z</time>
      </trkpt>
      <trkpt lat="48.40615" lon="2.59789">
        <ele>126</ele>
        <time>2012-02-19T12:07:12Z</time>
      </trkpt>
      <trkpt lat="48.40615" lon="2.59777">
        <ele>126</ele>
        <time>2012-02-19T12:07:16Z</time>
      </trkpt>
      <trkpt lat="48.40615" lon="2.59768">
        <ele>126</ele>
        <time>2012-02-19T12:07:18Z</time>
      </trkpt>
      <trkpt lat="48.40618" lon="2.59736">
        <ele>125</ele>
        <time>2012-02-19T12:07:27Z</time>
      </trkpt>
      <trkpt lat="48.40622" lon="2.5972">
        <ele>125</ele>
        <time>2012-02-19T12:07:32Z</time>
      </trkpt>
      <trkpt lat="48.40622" lon="2.59715">
        <ele>125</ele>
        <time>2012-02-19T12:07:34Z</time>
      </trkpt>
      <trkpt lat="48.40626" lon="2.59693">
        <ele>124</ele>
        <time>2012-02-19T12:07:39Z</time>
      </trkpt>
      <trkpt lat="48.40622" lon="2.59681">
        <ele>124</ele>
        <time>2012-02-19T12:07:43Z</time>
      </trkpt>
      <trkpt lat="48.40626" lon="2.59662">
        <ele>124</ele>
        <time>2012-02-19T12:07:47Z</time>
      </trkpt>
      <trkpt lat="48.40631" lon="2.59652">
        <ele>124</ele>
        <time>2012-02-19T12:07:52Z</time>
      </trkpt>
      <trkpt lat="48.40637" lon="2.59625">
        <ele>123</ele>
        <time>2012-02-19T12:07:59Z</time>
      </trkpt>
      <trkpt lat="48.40641" lon="2.59607">
        <ele>123</ele>
        <time>2012-02-19T12:08:04Z</time>
      </trkpt>
      <trkpt lat="48.40641" lon="2.59601">
        <ele>124</ele>
        <time>2012-02-19T12:08:06Z</time>
      </trkpt>
      <trkpt lat="48.40644" lon="2.59588">
        <ele>124</ele>
        <time>2012-02-19T12:08:09Z</time>
      </trkpt>
      <trkpt lat="48.4066" lon="2.59577">
        <ele>123</ele>
        <time>2012-02-19T12:08:16Z</time>
      </trkpt>
      <trkpt lat="48.40672" lon="2.59558">
        <ele>122</ele>
        <time>2012-02-19T12:08:21Z</time>
      </trkpt>
      <trkpt lat="48.40677" lon="2.59541">
        <ele>121</ele>
        <time>2012-02-19T12:08:25Z</time>
      </trkpt>
      <trkpt lat="48.40685" lon="2.59522">
        <ele>121</ele>
        <time>2012-02-19T12:08:29Z</time>
      </trkpt>
      <trkpt lat="48.40686" lon="2.59504">
        <ele>121</ele>
        <time>2012-02-19T12:08:32Z</time>
      </trkpt>
      <trkpt lat="48.40682" lon="2.59461">
        <ele>119</ele>
        <time>2012-02-19T12:08:40Z</time>
      </trkpt>
      <trkpt lat="48.40674" lon="2.59456">
        <ele>119</ele>
        <time>2012-02-19T12:08:49Z</time>
      </trkpt>
      <trkpt lat="48.40667" lon="2.59453">
        <ele>120</ele>
        <time>2012-02-19T12:09:04Z</time>
      </trkpt>
      <trkpt lat="48.40661" lon="2.59443">
        <ele>120</ele>
        <time>2012-02-19T12:09:16Z</time>
      </trkpt>
      <trkpt lat="48.40658" lon="2.59437">
        <ele>120</ele>
        <time>2012-02-19T12:09:26Z</time>
      </trkpt>
      <trkpt lat="48.40657" lon="2.59437">
        <ele>120</ele>
        <time>2012-02-19T12:09:30Z</time>
      </trkpt>
      <trkpt lat="48.4065" lon="2.59426">
        <ele>120</ele>
        <time>2012-02-19T12:09:38Z</time>
      </trkpt>
      <trkpt lat="48.40646" lon="2.59421">
        <ele>120</ele>
        <time>2012-02-19T12:09:42Z</time>
      </trkpt>
      <trkpt lat="48.40641" lon="2.59388">
        <ele>121</ele>
        <time>2012-02-19T12:09:54Z</time>
      </trkpt>
      <trkpt lat="48.40634" lon="2.59354">
        <ele>121</ele>
        <time>2012-02-19T12:10:05Z</time>
      </trkpt>
      <trkpt lat="48.40636" lon="2.59313">
        <ele>122</ele>
        <time>2012-02-19T12:10:18Z</time>
      </trkpt>
      <trkpt lat="48.40632" lon="2.59264">
        <ele>122</ele>
        <time>2012-02-19T12:10:29Z</time>
      </trkpt>
      <trkpt lat="48.40624" lon="2.59264">
        <ele>121</ele>
        <time>2012-02-19T12:11:18Z</time>
      </trkpt>
      <trkpt lat="48.40617" lon="2.59261">
        <ele>121</ele>
        <time>2012-02-19T12:11:23Z</time>
      </trkpt>
      <trkpt lat="48.40611" lon="2.59248">
        <ele>119</ele>
        <time>2012-02-19T12:11:36Z</time>
      </trkpt>
      <trkpt lat="48.40611" lon="2.59247">
        <ele>119</ele>
        <time>2012-02-19T12:11:37Z</time>
      </trkpt>
      <trkpt lat="48.40614" lon="2.59226">
        <ele>119</ele>
        <time>2012-02-19T12:11:44Z</time>
      </trkpt>
      <trkpt lat="48.40616" lon="2.59196">
        <ele>119</ele>
        <time>2012-02-19T12:11:52Z</time>
      </trkpt>
      <trkpt lat="48.40612" lon="2.59191">
        <ele>118</ele>
        <time>2012-02-19T12:11:54Z</time>
      </trkpt>
      <trkpt lat="48.40595" lon="2.59181">
        <ele>117</ele>
        <time>2012-02-19T12:12:03Z</time>
      </trkpt>
      <trkpt lat="48.4058" lon="2.5918">
        <ele>112</ele>
        <time>2012-02-19T12:12:09Z</time>
      </trkpt>
      <trkpt lat="48.40559" lon="2.59192">
        <ele>110</ele>
        <time>2012-02-19T12:12:15Z</time>
      </trkpt>
      <trkpt lat="48.40535" lon="2.59186">
        <ele>107</ele>
        <time>2012-02-19T12:12:24Z</time>
      </trkpt>
      <trkpt lat="48.40527" lon="2.5919">
        <ele>107</ele>
        <time>2012-02-19T12:12:27Z</time>
      </trkpt>
      <trkpt lat="48.40518" lon="2.59189">
        <ele>106</ele>
        <time>2012-02-19T12:12:31Z</time>
      </trkpt>
      <trkpt lat="48.40511" lon="2.59196">
        <ele>106</ele>
        <time>2012-02-19T12:12:38Z</time>
      </trkpt>
      <trkpt lat="48.40496" lon="2.59214">
        <ele>102</ele>
        <time>2012-02-19T12:12:44Z</time>
      </trkpt>
      <trkpt lat="48.40477" lon="2.59216">
        <ele>102</ele>
        <time>2012-02-19T12:12:49Z</time>
      </trkpt>
      <trkpt lat="48.40457" lon="2.59202">
        <ele>102</ele>
        <time>2012-02-19T12:12:57Z</time>
      </trkpt>
      <trkpt lat="48.40441" lon="2.59185">
        <ele>102</ele>
        <time>2012-02-19T12:13:07Z</time>
      </trkpt>
      <trkpt lat="48.40415" lon="2.59171">
        <ele>102</ele>
        <time>2012-02-19T12:13:18Z</time>
      </trkpt>
      <trkpt lat="48.40376" lon="2.59159">
        <ele>101</ele>
        <time>2012-02-19T12:13:32Z</time>
      </trkpt>
      <trkpt lat="48.40361" lon="2.59174">
        <ele>102</ele>
        <time>2012-02-19T12:13:39Z</time>
      </trkpt>
      <trkpt lat="48.40337" lon="2.59188">
        <ele>102</ele>
        <time>2012-02-19T12:13:49Z</time>
      </trkpt>
      <trkpt lat="48.40333" lon="2.59189">
        <ele>100</ele>
        <time>2012-02-19T12:13:50Z</time>
      </trkpt>
      <trkpt lat="48.40322" lon="2.59212">
        <ele>101</ele>
        <time>2012-02-19T12:13:55Z</time>
      </trkpt>
      <trkpt lat="48.4032" lon="2.59224">
        <ele>102</ele>
        <time>2012-02-19T12:13:57Z</time>
      </trkpt>
      <trkpt lat="48.40304" lon="2.59249">
        <ele>102</ele>
        <time>2012-02-19T12:14:01Z</time>
      </trkpt>
      <trkpt lat="48.40272" lon="2.59297">
        <ele>104</ele>
        <time>2012-02-19T12:14:10Z</time>
      </trkpt>
      <trkpt lat="48.40246" lon="2.59317">
        <ele>107</ele>
        <time>2012-02-19T12:14:25Z</time>
      </trkpt>
      <trkpt lat="48.40219" lon="2.59329">
        <ele>109</ele>
        <time>2012-02-19T12:14:40Z</time>
      </trkpt>
      <trkpt lat="48.40213" lon="2.59332">
        <ele>110</ele>
        <time>2012-02-19T12:14:45Z</time>
      </trkpt>
      <trkpt lat="48.40202" lon="2.5935">
        <ele>114</ele>
        <time>2012-02-19T12:14:57Z</time>
      </trkpt>
      <trkpt lat="48.40186" lon="2.59359">
        <ele>115</ele>
        <time>2012-02-19T12:15:10Z</time>
      </trkpt>
      <trkpt lat="48.40175" lon="2.59367">
        <ele>116</ele>
        <time>2012-02-19T12:15:24Z</time>
      </trkpt>
      <trkpt lat="48.40173" lon="2.59368">
        <ele>116</ele>
        <time>2012-02-19T12:15:42Z</time>
      </trkpt>
      <trkpt lat="48.40172" lon="2.59371">
        <ele>116</ele>
        <time>2012-02-19T12:16:04Z</time>
      </trkpt>
      <trkpt lat="48.40167" lon="2.59374">
        <ele>123</ele>
        <time>2012-02-19T12:16:18Z</time>
      </trkpt>
      <trkpt lat="48.40156" lon="2.5937">
        <ele>123</ele>
        <time>2012-02-19T12:16:32Z</time>
      </trkpt>
      <trkpt lat="48.40151" lon="2.59364">
        <ele>123</ele>
        <time>2012-02-19T12:16:46Z</time>
      </trkpt>
      <trkpt lat="48.40152" lon="2.5936">
        <ele>123</ele>
        <time>2012-02-19T12:16:55Z</time>
      </trkpt>
      <trkpt lat="48.40161" lon="2.5933">
        <ele>120</ele>
        <time>2012-02-19T12:17:07Z</time>
      </trkpt>
      <trkpt lat="48.40161" lon="2.59315">
        <ele>120</ele>
        <time>2012-02-19T12:17:11Z</time>
      </trkpt>
      <trkpt lat="48.40157" lon="2.59302">
        <ele>120</ele>
        <time>2012-02-19T12:17:15Z</time>
      </trkpt>
      <trkpt lat="48.40149" lon="2.59287">
        <ele>120</ele>
        <time>2012-02-19T12:17:21Z</time>
      </trkpt>
      <trkpt lat="48.40142" lon="2.59275">
        <ele>120</ele>
        <time>2012-02-19T12:17:25Z</time>
      </trkpt>
      <trkpt lat="48.40131" lon="2.59243">
        <ele>116</ele>
        <time>2012-02-19T12:17:41Z</time>
      </trkpt>
      <trkpt lat="48.40132" lon="2.59241">
        <ele>116</ele>
        <time>2012-02-19T12:17:58Z</time>
      </trkpt>
      <trkpt lat="48.40132" lon="2.59242">
        <ele>116</ele>
        <time>2012-02-19T12:20:32Z</time>
      </trkpt>
      <trkpt lat="48.40132" lon="2.59242">
        <ele>116</ele>
        <time>2012-02-19T12:20:34Z</time>
      </trkpt>
      <trkpt lat="48.40135" lon="2.59234">
        <ele>116</ele>
        <time>2012-02-19T12:20:38Z</time>
      </trkpt>
      <trkpt lat="48.40139" lon="2.59192">
        <ele>114</ele>
        <time>2012-02-19T12:20:49Z</time>
      </trkpt>
      <trkpt lat="48.40146" lon="2.59178">
        <ele>112</ele>
        <time>2012-02-19T12:20:53Z</time>
      </trkpt>
      <trkpt lat="48.40154" lon="2.59173">
        <ele>110</ele>
        <time>2012-02-19T12:20:56Z</time>
      </trkpt>
      <trkpt lat="48.40176" lon="2.59167">
        <ele>103</ele>
        <time>2012-02-19T12:21:03Z</time>
      </trkpt>
      <trkpt lat="48.40182" lon="2.59153">
        <ele>101</ele>
        <time>2012-02-19T12:21:07Z</time>
      </trkpt>
      <trkpt lat="48.40196" lon="2.59128">
        <ele>98</ele>
        <time>2012-02-19T12:21:16Z</time>
      </trkpt>
      <trkpt lat="48.40212" lon="2.59106">
        <ele>97</ele>
        <time>2012-02-19T12:21:32Z</time>
      </trkpt>
      <trkpt lat="48.40215" lon="2.59096">
        <ele>97</ele>
        <time>2012-02-19T12:21:35Z</time>
      </trkpt>
      <trkpt lat="48.40233" lon="2.5907">
        <ele>93</ele>
        <time>2012-02-19T12:21:44Z</time>
      </trkpt>
      <trkpt lat="48.40238" lon="2.59064">
        <ele>93</ele>
        <time>2012-02-19T12:21:46Z</time>
      </trkpt>
      <trkpt lat="48.40254" lon="2.59031">
        <ele>93</ele>
        <time>2012-02-19T12:21:53Z</time>
      </trkpt>
      <trkpt lat="48.40253" lon="2.58981">
        <ele>91</ele>
        <time>2012-02-19T12:22:05Z</time>
      </trkpt>
      <trkpt lat="48.40247" lon="2.58878">
        <ele>89</ele>
        <time>2012-02-19T12:22:24Z</time>
      </trkpt>
      <trkpt lat="48.40241" lon="2.58826">
        <ele>86</ele>
        <time>2012-02-19T12:22:32Z</time>
      </trkpt>
      <trkpt lat="48.40232" lon="2.58782">
        <ele>86</ele>
        <time>2012-02-19T12:22:40Z</time>
      </trkpt>
      <trkpt lat="48.40207" lon="2.58767">
        <ele>86</ele>
        <time>2012-02-19T12:22:47Z</time>
      </trkpt>
      <trkpt lat="48.40162" lon="2.58739">
        <ele>88</ele>
        <time>2012-02-19T12:23:00Z</time>
      </trkpt>
      <trkpt lat="48.40127" lon="2.58741">
        <ele>89</ele>
        <time>2012-02-19T12:23:11Z</time>
      </trkpt>
      <trkpt lat="48.40088" lon="2.5877">
        <ele>90</ele>
        <time>2012-02-19T12:23:25Z</time>
      </trkpt>
      <trkpt lat="48.40069" lon="2.58806">
        <ele>95</ele>
        <time>2012-02-19T12:23:35Z</time>
      </trkpt>
      <trkpt lat="48.4005" lon="2.58854">
        <ele>98</ele>
        <time>2012-02-19T12:23:47Z</time>
      </trkpt>
      <trkpt lat="48.40044" lon="2.58877">
        <ele>98</ele>
        <time>2012-02-19T12:23:53Z</time>
      </trkpt>
      <trkpt lat="48.40041" lon="2.58907">
        <ele>99</ele>
        <time>2012-02-19T12:24:00Z</time>
      </trkpt>
      <trkpt lat="48.40036" lon="2.58939">
        <ele>101</ele>
        <time>2012-02-19T12:24:09Z</time>
      </trkpt>
      <trkpt lat="48.40034" lon="2.58946">
        <ele>101</ele>
        <time>2012-02-19T12:24:12Z</time>
      </trkpt>
      <trkpt lat="48.40033" lon="2.58959">
        <ele>102</ele>
        <time>2012-02-19T12:24:17Z</time>
      </trkpt>
      <trkpt lat="48.40032" lon="2.58967">
        <ele>102</ele>
        <time>2012-02-19T12:24:20Z</time>
      </trkpt>
      <trkpt lat="48.40024" lon="2.58976">
        <ele>102</ele>
        <time>2012-02-19T12:24:24Z</time>
      </trkpt>
      <trkpt lat="48.40017" lon="2.58977">
        <ele>102</ele>
        <time>2012-02-19T12:24:28Z</time>
      </trkpt>
      <trkpt lat="48.40006" lon="2.58996">
        <ele>103</ele>
        <time>2012-02-19T12:24:37Z</time>
      </trkpt>
      <trkpt lat="48.40001" lon="2.59006">
        <ele>105</ele>
        <time>2012-02-19T12:24:42Z</time>
      </trkpt>
      <trkpt lat="48.39998" lon="2.59025">
        <ele>108</ele>
        <time>2012-02-19T12:25:00Z</time>
      </trkpt>
      <trkpt lat="48.39998" lon="2.5903">
        <ele>109</ele>
        <time>2012-02-19T12:25:05Z</time>
      </trkpt>
      <trkpt lat="48.39991" lon="2.59043">
        <ele>110</ele>
        <time>2012-02-19T12:25:19Z</time>
      </trkpt>
      <trkpt lat="48.39992" lon="2.59053">
        <ele>110</ele>
        <time>2012-02-19T12:25:34Z</time>
      </trkpt>
      <trkpt lat="48.39989" lon="2.59056">
        <ele>110</ele>
        <time>2012-02-19T12:25:42Z</time>
      </trkpt>
      <trkpt lat="48.39983" lon="2.59055">
        <ele>110</ele>
        <time>2012-02-19T12:25:53Z</time>
      </trkpt>
      <trkpt lat="48.3998" lon="2.59058">
        <ele>110</ele>
        <time>2012-02-19T12:26:06Z</time>
      </trkpt>
      <trkpt lat="48.3998" lon="2.59059">
        <ele>110</ele>
        <time>2012-02-19T12:26:07Z</time>
      </trkpt>
      <trkpt lat="48.3998" lon="2.59053">
        <ele>110</ele>
        <time>2012-02-19T12:26:11Z</time>
      </trkpt>
      <trkpt lat="48.39973" lon="2.59043">
        <ele>110</ele>
        <time>2012-02-19T12:26:17Z</time>
      </trkpt>
      <trkpt lat="48.39966" lon="2.59045">
        <ele>111</ele>
        <time>2012-02-19T12:26:23Z</time>
      </trkpt>
      <trkpt lat="48.3996" lon="2.59053">
        <ele>111</ele>
        <time>2012-02-19T12:26:28Z</time>
      </trkpt>
      <trkpt lat="48.39956" lon="2.59056">
        <ele>111</ele>
        <time>2012-02-19T12:26:31Z</time>
      </trkpt>
      <trkpt lat="48.39939" lon="2.59075">
        <ele>113</ele>
        <time>2012-02-19T12:26:42Z</time>
      </trkpt>
      <trkpt lat="48.39935" lon="2.59083">
        <ele>116</ele>
        <time>2012-02-19T12:26:47Z</time>
      </trkpt>
      <trkpt lat="48.39925" lon="2.59129">
        <ele>117</ele>
        <time>2012-02-19T12:27:03Z</time>
      </trkpt>
      <trkpt lat="48.39925" lon="2.59132">
        <ele>117</ele>
        <time>2012-02-19T12:27:04Z</time>
      </trkpt>
      <trkpt lat="48.3993" lon="2.59166">
        <ele>118</ele>
        <time>2012-02-19T12:27:16Z</time>
      </trkpt>
      <trkpt lat="48.39937" lon="2.59204">
        <ele>120</ele>
        <time>2012-02-19T12:27:27Z</time>
      </trkpt>
      <trkpt lat="48.39943" lon="2.59211">
        <ele>120</ele>
        <time>2012-02-19T12:27:32Z</time>
      </trkpt>
      <trkpt lat="48.39952" lon="2.59226">
        <ele>120</ele>
        <time>2012-02-19T12:27:39Z</time>
      </trkpt>
      <trkpt lat="48.39958" lon="2.59232">
        <ele>120</ele>
        <time>2012-02-19T12:27:43Z</time>
      </trkpt>
      <trkpt lat="48.39961" lon="2.59228">
        <ele>120</ele>
        <time>2012-02-19T12:27:53Z</time>
      </trkpt>
      <trkpt lat="48.39964" lon="2.59219">
        <ele>120</ele>
        <time>2012-02-19T12:27:58Z</time>
      </trkpt>
      <trkpt lat="48.39973" lon="2.59221">
        <ele>120</ele>
        <time>2012-02-19T12:28:04Z</time>
      </trkpt>
      <trkpt lat="48.39976" lon="2.59222">
        <ele>120</ele>
        <time>2012-02-19T12:28:06Z</time>
      </trkpt>
      <trkpt lat="48.3999" lon="2.59227">
        <ele>120</ele>
        <time>2012-02-19T12:28:15Z</time>
      </trkpt>
      <trkpt lat="48.4" lon="2.59236">
        <ele>121</ele>
        <time>2012-02-19T12:28:25Z</time>
      </trkpt>
      <trkpt lat="48.40004" lon="2.59243">
        <ele>121</ele>
        <time>2012-02-19T12:28:28Z</time>
      </trkpt>
      <trkpt lat="48.40013" lon="2.59252">
        <ele>122</ele>
        <time>2012-02-19T12:28:32Z</time>
      </trkpt>
      <trkpt lat="48.4003" lon="2.59276">
        <ele>123</ele>
        <time>2012-02-19T12:28:43Z</time>
      </trkpt>
      <trkpt lat="48.40033" lon="2.59269">
        <ele>123</ele>
        <time>2012-02-19T12:28:47Z</time>
      </trkpt>
      <trkpt lat="48.40041" lon="2.59248">
        <ele>121</ele>
        <time>2012-02-19T12:29:00Z</time>
      </trkpt>
      <trkpt lat="48.40043" lon="2.59248">
        <ele>121</ele>
        <time>2012-02-19T12:29:04Z</time>
      </trkpt>
      <trkpt lat="48.40049" lon="2.5925">
        <ele>121</ele>
        <time>2012-02-19T12:29:19Z</time>
      </trkpt>
      <trkpt lat="48.40049" lon="2.59249">
        <ele>121</ele>
        <time>2012-02-19T12:29:20Z</time>
      </trkpt>
      <trkpt lat="48.4005" lon="2.59241">
        <ele>121</ele>
        <time>2012-02-19T12:29:24Z</time>
      </trkpt>
      <trkpt lat="48.40053" lon="2.59231">
        <ele>121</ele>
        <time>2012-02-19T12:29:29Z</time>
      </trkpt>
      <trkpt lat="48.40052" lon="2.59222">
        <ele>121</ele>
        <time>2012-02-19T12:29:32Z</time>
      </trkpt>
      <trkpt lat="48.40057" lon="2.5918">
        <ele>120</ele>
        <time>2012-02-19T12:29:46Z</time>
      </trkpt>
      <trkpt lat="48.4006" lon="2.5917">
        <ele>120</ele>
        <time>2012-02-19T12:29:50Z</time>
      </trkpt>
      <trkpt lat="48.40067" lon="2.59164">
        <ele>117</ele>
        <time>2012-02-19T12:29:54Z</time>
      </trkpt>
      <trkpt lat="48.40071" lon="2.59161">
        <ele>117</ele>
        <time>2012-02-19T12:29:58Z</time>
      </trkpt>
      <trkpt lat="48.40073" lon="2.59167">
        <ele>119</ele>
        <time>2012-02-19T12:30:01Z</time>
      </trkpt>
      <trkpt lat="48.40084" lon="2.59176">
        <ele>118</ele>
        <time>2012-02-19T12:30:08Z</time>
      </trkpt>
      <trkpt lat="48.40088" lon="2.59189">
        <ele>117</ele>
        <time>2012-02-19T12:30:12Z</time>
      </trkpt>
      <trkpt lat="48.40094" lon="2.59191">
        <ele>117</ele>
        <time>2012-02-19T12:30:15Z</time>
      </trkpt>
      <trkpt lat="48.40103" lon="2.59198">
        <ele>117</ele>
        <time>2012-02-19T12:30:20Z</time>
      </trkpt>
      <trkpt lat="48.40111" lon="2.59215">
        <ele>117</ele>
        <time>2012-02-19T12:30:31Z</time>
      </trkpt>
      <trkpt lat="48.40112" lon="2.59218">
        <ele>117</ele>
        <time>2012-02-19T12:30:32Z</time>
      </trkpt>
      <trkpt lat="48.40117" lon="2.59226">
        <ele>117</ele>
        <time>2012-02-19T12:30:36Z</time>
      </trkpt>
      <trkpt lat="48.40128" lon="2.59264">
        <ele>120</ele>
        <time>2012-02-19T12:30:50Z</time>
      </trkpt>
      <trkpt lat="48.40125" lon="2.59323">
        <ele>122</ele>
        <time>2012-02-19T12:31:03Z</time>
      </trkpt>
      <trkpt lat="48.40126" lon="2.59385">
        <ele>125</ele>
        <time>2012-02-19T12:31:15Z</time>
      </trkpt>
      <trkpt lat="48.40093" lon="2.59413">
        <ele>127</ele>
        <time>2012-02-19T12:31:25Z</time>
      </trkpt>
      <trkpt lat="48.40056" lon="2.59439">
        <ele>127</ele>
        <time>2012-02-19T12:31:37Z</time>
      </trkpt>
      <trkpt lat="48.4004" lon="2.59471">
        <ele>126</ele>
        <time>2012-02-19T12:31:45Z</time>
      </trkpt>
      <trkpt lat="48.40019" lon="2.59474">
        <ele>125</ele>
        <time>2012-02-19T12:31:57Z</time>
      </trkpt>
      <trkpt lat="48.40009" lon="2.59477">
        <ele>124</ele>
        <time>2012-02-19T12:32:04Z</time>
      </trkpt>
      <trkpt lat="48.39998" lon="2.59481">
        <ele>121</ele>
        <time>2012-02-19T12:32:11Z</time>
      </trkpt>
      <trkpt lat="48.39998" lon="2.59485">
        <ele>121</ele>
        <time>2012-02-19T12:32:32Z</time>
      </trkpt>
      <trkpt lat="48.39997" lon="2.59487">
        <ele>121</ele>
        <time>2012-02-19T12:32:45Z</time>
      </trkpt>
      <trkpt lat="48.39994" lon="2.59486">
        <ele>121</ele>
        <time>2012-02-19T12:32:49Z</time>
      </trkpt>
      <trkpt lat="48.39993" lon="2.59491">
        <ele>121</ele>
        <time>2012-02-19T12:32:56Z</time>
      </trkpt>
      <trkpt lat="48.39986" lon="2.59487">
        <ele>121</ele>
        <time>2012-02-19T12:33:05Z</time>
      </trkpt>
      <trkpt lat="48.39981" lon="2.59485">
        <ele>121</ele>
        <time>2012-02-19T12:33:10Z</time>
      </trkpt>
      <trkpt lat="48.39979" lon="2.59483">
        <ele>121</ele>
        <time>2012-02-19T12:33:13Z</time>
      </trkpt>
      <trkpt lat="48.39982" lon="2.59487">
        <ele>121</ele>
        <time>2012-02-19T12:33:26Z</time>
      </trkpt>
      <trkpt lat="48.39981" lon="2.59484">
        <ele>121</ele>
        <time>2012-02-19T12:33:47Z</time>
      </trkpt>
      <trkpt lat="48.39978" lon="2.59484">
        <ele>121</ele>
        <time>2012-02-19T12:33:59Z</time>
      </trkpt>
      <trkpt lat="48.39978" lon="2.59485">
        <ele>121</ele>
        <time>2012-02-19T12:34:12Z</time>
      </trkpt>
      <trkpt lat="48.39956" lon="2.59496">
        <ele>120</ele>
        <time>2012-02-19T12:34:21Z</time>
      </trkpt>
      <trkpt lat="48.39939" lon="2.59501">
        <ele>119</ele>
        <time>2012-02-19T12:34:25Z</time>
      </trkpt>
      <trkpt lat="48.39909" lon="2.59477">
        <ele>119</ele>
        <time>2012-02-19T12:34:34Z</time>
      </trkpt>
      <trkpt lat="48.39896" lon="2.59464">
        <ele>120</ele>
        <time>2012-02-19T12:34:43Z</time>
      </trkpt>
      <trkpt lat="48.39897" lon="2.59465">
        <ele>120</ele>
        <time>2012-02-19T12:35:04Z</time>
      </trkpt>
      <trkpt lat="48.39897" lon="2.59465">
        <ele>120</ele>
        <time>2012-02-19T12:35:33Z</time>
      </trkpt>
      <trkpt lat="48.39883" lon="2.59455">
        <ele>120</ele>
        <time>2012-02-19T12:35:41Z</time>
      </trkpt>
      <trkpt lat="48.39848" lon="2.59447">
        <ele>120</ele>
        <time>2012-02-19T12:35:55Z</time>
      </trkpt>
      <trkpt lat="48.39833" lon="2.59443">
        <ele>120</ele>
        <time>2012-02-19T12:36:04Z</time>
      </trkpt>
      <trkpt lat="48.39828" lon="2.59443">
        <ele>121</ele>
        <time>2012-02-19T12:36:16Z</time>
      </trkpt>
      <trkpt lat="48.39825" lon="2.59454">
        <ele>120</ele>
        <time>2012-02-19T12:36:30Z</time>
      </trkpt>
      <trkpt lat="48.39822" lon="2.59451">
        <ele>120</ele>
        <time>2012-02-19T12:36:38Z</time>
      </trkpt>
      <trkpt lat="48.39814" lon="2.5944">
        <ele>121</ele>
        <time>2012-02-19T12:36:52Z</time>
      </trkpt>
      <trkpt lat="48.39812" lon="2.59437">
        <ele>121</ele>
        <time>2012-02-19T12:36:55Z</time>
      </trkpt>
      <trkpt lat="48.3981" lon="2.59426">
        <ele>121</ele>
        <time>2012-02-19T12:37:08Z</time>
      </trkpt>
      <trkpt lat="48.39808" lon="2.59423">
        <ele>121</ele>
        <time>2012-02-19T12:37:22Z</time>
      </trkpt>
      <trkpt lat="48.39808" lon="2.59423">
        <ele>121</ele>
        <time>2012-02-19T12:37:50Z</time>
      </trkpt>
      <trkpt lat="48.39807" lon="2.59421">
        <ele>121</ele>
        <time>2012-02-19T12:37:52Z</time>
      </trkpt>
      <trkpt lat="48.39799" lon="2.59414">
        <ele>120</ele>
        <time>2012-02-19T12:37:56Z</time>
      </trkpt>
      <trkpt lat="48.39806" lon="2.59399">
        <ele>120</ele>
        <time>2012-02-19T12:38:05Z</time>
      </trkpt>
      <trkpt lat="48.39815" lon="2.59364">
        <ele>120</ele>
        <time>2012-02-19T12:38:18Z</time>
      </trkpt>
      <trkpt lat="48.39817" lon="2.59361">
        <ele>120</ele>
        <time>2012-02-19T12:38:19Z</time>
      </trkpt>
      <trkpt lat="48.39821" lon="2.59354">
        <ele>121</ele>
        <time>2012-02-19T12:38:23Z</time>
      </trkpt>
      <trkpt lat="48.39825" lon="2.59353">
        <ele>121</ele>
        <time>2012-02-19T12:38:25Z</time>
      </trkpt>
      <trkpt lat="48.39837" lon="2.59343">
        <ele>123</ele>
        <time>2012-02-19T12:38:33Z</time>
      </trkpt>
      <trkpt lat="48.39841" lon="2.59343">
        <ele>122</ele>
        <time>2012-02-19T12:38:37Z</time>
      </trkpt>
      <trkpt lat="48.39844" lon="2.59345">
        <ele>122</ele>
        <time>2012-02-19T12:38:51Z</time>
      </trkpt>
      <trkpt lat="48.39843" lon="2.59345">
        <ele>122</ele>
        <time>2012-02-19T12:39:07Z</time>
      </trkpt>
      <trkpt lat="48.39843" lon="2.59344">
        <ele>122</ele>
        <time>2012-02-19T12:39:44Z</time>
      </trkpt>
      <trkpt lat="48.39845" lon="2.59328">
        <ele>122</ele>
        <time>2012-02-19T12:39:58Z</time>
      </trkpt>
      <trkpt lat="48.39845" lon="2.59324">
        <ele>122</ele>
        <time>2012-02-19T12:40:15Z</time>
      </trkpt>
      <trkpt lat="48.39846" lon="2.59314">
        <ele>121</ele>
        <time>2012-02-19T12:40:30Z</time>
      </trkpt>
      <trkpt lat="48.39846" lon="2.59313">
        <ele>121</ele>
        <time>2012-02-19T12:40:32Z</time>
      </trkpt>
      <trkpt lat="48.39862" lon="2.59293">
        <ele>121</ele>
        <time>2012-02-19T12:40:42Z</time>
      </trkpt>
      <trkpt lat="48.39871" lon="2.59255">
        <ele>120</ele>
        <time>2012-02-19T12:40:53Z</time>
      </trkpt>
      <trkpt lat="48.39877" lon="2.59213">
        <ele>119</ele>
        <time>2012-02-19T12:41:05Z</time>
      </trkpt>
      <trkpt lat="48.39887" lon="2.59208">
        <ele>119</ele>
        <time>2012-02-19T12:41:13Z</time>
      </trkpt>
      <trkpt lat="48.39886" lon="2.59191">
        <ele>119</ele>
        <time>2012-02-19T12:41:18Z</time>
      </trkpt>
      <trkpt lat="48.39884" lon="2.59187">
        <ele>119</ele>
        <time>2012-02-19T12:41:21Z</time>
      </trkpt>
      <trkpt lat="48.3988" lon="2.59169">
        <ele>119</ele>
        <time>2012-02-19T12:41:29Z</time>
      </trkpt>
      <trkpt lat="48.39883" lon="2.59148">
        <ele>119</ele>
        <time>2012-02-19T12:41:36Z</time>
      </trkpt>
      <trkpt lat="48.39877" lon="2.59125">
        <ele>118</ele>
        <time>2012-02-19T12:41:43Z</time>
      </trkpt>
      <trkpt lat="48.39876" lon="2.59113">
        <ele>118</ele>
        <time>2012-02-19T12:41:50Z</time>
      </trkpt>
      <trkpt lat="48.39879" lon="2.591">
        <ele>118</ele>
        <time>2012-02-19T12:41:55Z</time>
      </trkpt>
      <trkpt lat="48.39884" lon="2.59062">
        <ele>115</ele>
        <time>2012-02-19T12:42:08Z</time>
      </trkpt>
      <trkpt lat="48.39884" lon="2.59045">
        <ele>115</ele>
        <time>2012-02-19T12:42:13Z</time>
      </trkpt>
      <trkpt lat="48.39889" lon="2.59037">
        <ele>115</ele>
        <time>2012-02-19T12:42:17Z</time>
      </trkpt>
      <trkpt lat="48.39891" lon="2.59034">
        <ele>115</ele>
        <time>2012-02-19T12:42:19Z</time>
      </trkpt>
      <trkpt lat="48.39886" lon="2.59027">
        <ele>115</ele>
        <time>2012-02-19T12:42:23Z</time>
      </trkpt>
      <trkpt lat="48.39884" lon="2.59023">
        <ele>114</ele>
        <time>2012-02-19T12:42:25Z</time>
      </trkpt>
      <trkpt lat="48.39882" lon="2.5902">
        <ele>114</ele>
        <time>2012-02-19T12:42:27Z</time>
      </trkpt>
      <trkpt lat="48.39877" lon="2.59016">
        <ele>114</ele>
        <time>2012-02-19T12:42:30Z</time>
      </trkpt>
      <trkpt lat="48.39869" lon="2.59008">
        <ele>114</ele>
        <time>2012-02-19T12:42:33Z</time>
      </trkpt>
      <trkpt lat="48.3986" lon="2.59017">
        <ele>113</ele>
        <time>2012-02-19T12:42:38Z</time>
      </trkpt>
      <trkpt lat="48.3985" lon="2.59024">
        <ele>113</ele>
        <time>2012-02-19T12:42:42Z</time>
      </trkpt>
      <trkpt lat="48.39844" lon="2.59017">
        <ele>112</ele>
        <time>2012-02-19T12:42:45Z</time>
      </trkpt>
      <trkpt lat="48.39832" lon="2.59016">
        <ele>109</ele>
        <time>2012-02-19T12:42:52Z</time>
      </trkpt>
      <trkpt lat="48.3983" lon="2.59004">
        <ele>109</ele>
        <time>2012-02-19T12:42:56Z</time>
      </trkpt>
      <trkpt lat="48.3981" lon="2.58994">
        <ele>105</ele>
        <time>2012-02-19T12:43:03Z</time>
      </trkpt>
      <trkpt lat="48.39804" lon="2.58976">
        <ele>104</ele>
        <time>2012-02-19T12:43:07Z</time>
      </trkpt>
      <trkpt lat="48.39801" lon="2.58965">
        <ele>103</ele>
        <time>2012-02-19T12:43:09Z</time>
      </trkpt>
      <trkpt lat="48.3979" lon="2.58974">
        <ele>103</ele>
        <time>2012-02-19T12:43:13Z</time>
      </trkpt>
      <trkpt lat="48.39785" lon="2.58982">
        <ele>103</ele>
        <time>2012-02-19T12:43:15Z</time>
      </trkpt>
      <trkpt lat="48.39769" lon="2.58971">
        <ele>102</ele>
        <time>2012-02-19T12:43:20Z</time>
      </trkpt>
      <trkpt lat="48.3976" lon="2.58968">
        <ele>102</ele>
        <time>2012-02-19T12:43:22Z</time>
      </trkpt>
      <trkpt lat="48.39721" lon="2.58954">
        <ele>94</ele>
        <time>2012-02-19T12:43:32Z</time>
      </trkpt>
      <trkpt lat="48.39705" lon="2.58972">
        <ele>93</ele>
        <time>2012-02-19T12:43:36Z</time>
      </trkpt>
      <trkpt lat="48.39692" lon="2.58956">
        <ele>92</ele>
        <time>2012-02-19T12:43:43Z</time>
      </trkpt>
      <trkpt lat="48.39688" lon="2.58955">
        <ele>92</ele>
        <time>2012-02-19T12:43:44Z</time>
      </trkpt>
      <trkpt lat="48.39677" lon="2.5895">
        <ele>91</ele>
        <time>2012-02-19T12:43:46Z</time>
      </trkpt>
      <trkpt lat="48.39655" lon="2.58912">
        <ele>87</ele>
        <time>2012-02-19T12:43:52Z</time>
      </trkpt>
      <trkpt lat="48.39653" lon="2.5889">
        <ele>87</ele>
        <time>2012-02-19T12:43:56Z</time>
      </trkpt>
      <trkpt lat="48.39642" lon="2.58886">
        <ele>87</ele>
        <time>2012-02-19T12:44:03Z</time>
      </trkpt>
      <trkpt lat="48.39635" lon="2.58927">
        <ele>87</ele>
        <time>2012-02-19T12:44:12Z</time>
      </trkpt>
      <trkpt lat="48.39588" lon="2.58961">
        <ele>86</ele>
        <time>2012-02-19T12:44:25Z</time>
      </trkpt>
      <trkpt lat="48.3955" lon="2.58983">
        <ele>88</ele>
        <time>2012-02-19T12:44:40Z</time>
      </trkpt>
      <trkpt lat="48.39507" lon="2.5901">
        <ele>90</ele>
        <time>2012-02-19T12:44:56Z</time>
      </trkpt>
      <trkpt lat="48.39478" lon="2.59027">
        <ele>93</ele>
        <time>2012-02-19T12:45:05Z</time>
      </trkpt>
      <trkpt lat="48.39434" lon="2.59052">
        <ele>95</ele>
        <time>2012-02-19T12:45:19Z</time>
      </trkpt>
      <trkpt lat="48.39422" lon="2.59059">
        <ele>95</ele>
        <time>2012-02-19T12:45:28Z</time>
      </trkpt>
      <trkpt lat="48.39407" lon="2.59067">
        <ele>99</ele>
        <time>2012-02-19T12:45:44Z</time>
      </trkpt>
      <trkpt lat="48.39373" lon="2.59088">
        <ele>99</ele>
        <time>2012-02-19T12:45:58Z</time>
      </trkpt>
      <trkpt lat="48.39326" lon="2.59115">
        <ele>104</ele>
        <time>2012-02-19T12:46:14Z</time>
      </trkpt>
      <trkpt lat="48.39266" lon="2.59142">
        <ele>105</ele>
        <time>2012-02-19T12:46:34Z</time>
      </trkpt>
      <trkpt lat="48.39223" lon="2.59157">
        <ele>112</ele>
        <time>2012-02-19T12:46:53Z</time>
      </trkpt>
      <trkpt lat="48.39195" lon="2.59166">
        <ele>116</ele>
        <time>2012-02-19T12:47:09Z</time>
      </trkpt>
      <trkpt lat="48.39169" lon="2.59176">
        <ele>120</ele>
        <time>2012-02-19T12:47:26Z</time>
      </trkpt>
      <trkpt lat="48.39151" lon="2.5918">
        <ele>124</ele>
        <time>2012-02-19T12:47:40Z</time>
      </trkpt>
      <trkpt lat="48.39122" lon="2.59192">
        <ele>125</ele>
        <time>2012-02-19T12:47:59Z</time>
      </trkpt>
      <trkpt lat="48.39089" lon="2.59205">
        <ele>125</ele>
        <time>2012-02-19T12:48:17Z</time>
      </trkpt>
      <trkpt lat="48.39079" lon="2.59209">
        <ele>125</ele>
        <time>2012-02-19T12:48:34Z</time>
      </trkpt>
      <trkpt lat="48.3907" lon="2.59211">
        <ele>125</ele>
        <time>2012-02-19T12:50:31Z</time>
      </trkpt>
      <trkpt lat="48.39024" lon="2.59224">
        <ele>124</ele>
        <time>2012-02-19T12:50:45Z</time>
      </trkpt>
      <trkpt lat="48.3901" lon="2.5923">
        <ele>123</ele>
        <time>2012-02-19T12:50:49Z</time>
      </trkpt>
      <trkpt lat="48.38999" lon="2.59258">
        <ele>122</ele>
        <time>2012-02-19T12:50:57Z</time>
      </trkpt>
      <trkpt lat="48.38997" lon="2.59261">
        <ele>123</ele>
        <time>2012-02-19T12:50:58Z</time>
      </trkpt>
      <trkpt lat="48.38986" lon="2.59278">
        <ele>123</ele>
        <time>2012-02-19T12:51:06Z</time>
      </trkpt>
      <trkpt lat="48.38972" lon="2.59275">
        <ele>123</ele>
      </trkpt>
      <trkpt lat="48.38972" lon="2.59275">
        <ele>123</ele>
      </trkpt>
      <trkpt lat="48.38962" lon="2.59321">
        <ele>124</ele>
      </trkpt>
      <trkpt lat="48.38948" lon="2.59388">
        <ele>124</ele>
      </trkpt>
      <trkpt lat="48.38937" lon="2.59459">
        <ele>125</ele>
      </trkpt>
      <trkpt lat="48.38925" lon="2.59491">
        <ele>124</ele>
      </trkpt>
      <trkpt lat="48.38924" lon="2.59488">
        <ele>124</ele>
      </trkpt>
      <trkpt lat="48.38919" lon="2.59478">
        <ele>124</ele>
      </trkpt>
      <trkpt lat="48.38916" lon="2.59473">
        <ele>123</ele>
      </trkpt>
      <trkpt lat="48.38906" lon="2.59464">
        <ele>123</ele>
      </trkpt>
      <trkpt lat="48.38905" lon="2.59461">
        <ele>123</ele>
      </trkpt>
      <trkpt lat="48.38902" lon="2.59451">
        <ele>123</ele>
      </trkpt>
      <trkpt lat="48.389" lon="2.59427">
        <ele>122</ele>
      </trkpt>
      <trkpt lat="48.389" lon="2.59416">
        <ele>122</ele>
      </trkpt>
      <trkpt lat="48.38899" lon="2.59409">
        <ele>123</ele>
      </trkpt>
      <trkpt lat="48.38902" lon="2.59401">
        <ele>123</ele>
      </trkpt>
      <trkpt lat="48.38904" lon="2.59396">
        <ele>123</ele>
      </trkpt>
      <trkpt lat="48.38909" lon="2.5938">
        <ele>123</ele>
      </trkpt>
      <trkpt lat="48.3891" lon="2.59366">
        <ele>123</ele>
      </trkpt>
      <trkpt lat="48.38913" lon="2.59354">
        <ele>123</ele>
      </trkpt>
      <trkpt lat="48.38912" lon="2.5935">
        <ele>123</ele>
      </trkpt>
      <trkpt lat="48.38913" lon="2.59318">
        <ele>123</ele>
      </trkpt>
      <trkpt lat="48.38919" lon="2.59307">
        <ele>123</ele>
        <time>2012-02-19T12:52:28Z</time>
      </trkpt>
      <trkpt lat="48.3893" lon="2.59274">
        <ele>123</ele>
        <time>2012-02-19T12:52:42Z</time>
      </trkpt>
      <trkpt lat="48.38938" lon="2.59234">
        <ele>123</ele>
        <time>2012-02-19T12:52:54Z</time>
      </trkpt>
      <trkpt lat="48.38939" lon="2.5923">
        <ele>123</ele>
        <time>2012-02-19T12:52:55Z</time>
      </trkpt>
      <trkpt lat="48.3894" lon="2.59175">
        <ele>123</ele>
        <time>2012-02-19T12:53:08Z</time>
      </trkpt>
      <trkpt lat="48.38935" lon="2.59132">
        <ele>122</ele>
        <time>2012-02-19T12:53:20Z</time>
      </trkpt>
      <trkpt lat="48.38936" lon="2.59075">
        <ele>121</ele>
        <time>2012-02-19T12:53:35Z</time>
      </trkpt>
      <trkpt lat="48.38943" lon="2.59058">
        <ele>121</ele>
        <time>2012-02-19T12:53:40Z</time>
      </trkpt>
      <trkpt lat="48.38943" lon="2.59045">
        <ele>121</ele>
        <time>2012-02-19T12:53:44Z</time>
      </trkpt>
      <trkpt lat="48.38946" lon="2.5903">
        <ele>121</ele>
        <time>2012-02-19T12:53:48Z</time>
      </trkpt>
      <trkpt lat="48.38935" lon="2.58989">
        <ele>122</ele>
        <time>2012-02-19T12:54:00Z</time>
      </trkpt>
      <trkpt lat="48.38939" lon="2.58975">
        <ele>121</ele>
        <time>2012-02-19T12:54:04Z</time>
      </trkpt>
      <trkpt lat="48.3894" lon="2.58942">
        <ele>121</ele>
        <time>2012-02-19T12:54:12Z</time>
      </trkpt>
      <trkpt lat="48.38934" lon="2.58932">
        <ele>121</ele>
        <time>2012-02-19T12:54:15Z</time>
      </trkpt>
      <trkpt lat="48.38933" lon="2.58914">
        <ele>122</ele>
        <time>2012-02-19T12:54:20Z</time>
      </trkpt>
      <trkpt lat="48.38935" lon="2.58859">
        <ele>120</ele>
        <time>2012-02-19T12:54:33Z</time>
      </trkpt>
      <trkpt lat="48.38931" lon="2.58845">
        <ele>121</ele>
        <time>2012-02-19T12:54:37Z</time>
      </trkpt>
      <trkpt lat="48.3893" lon="2.58834">
        <ele>121</ele>
        <time>2012-02-19T12:54:40Z</time>
      </trkpt>
      <trkpt lat="48.38932" lon="2.58778">
        <ele>120</ele>
        <time>2012-02-19T12:54:54Z</time>
      </trkpt>
      <trkpt lat="48.38943" lon="2.5874">
        <ele>121</ele>
        <time>2012-02-19T12:55:03Z</time>
      </trkpt>
      <trkpt lat="48.38948" lon="2.58668">
        <ele>121</ele>
        <time>2012-02-19T12:55:19Z</time>
      </trkpt>
      <trkpt lat="48.38948" lon="2.58664">
        <ele>122</ele>
        <time>2012-02-19T12:55:20Z</time>
      </trkpt>
      <trkpt lat="48.38957" lon="2.58637">
        <ele>122</ele>
        <time>2012-02-19T12:55:27Z</time>
      </trkpt>
      <trkpt lat="48.38957" lon="2.58624">
        <ele>122</ele>
        <time>2012-02-19T12:55:30Z</time>
      </trkpt>
      <trkpt lat="48.38975" lon="2.58586">
        <ele>121</ele>
        <time>2012-02-19T12:55:41Z</time>
      </trkpt>
      <trkpt lat="48.38986" lon="2.58548">
        <ele>123</ele>
        <time>2012-02-19T12:55:52Z</time>
      </trkpt>
      <trkpt lat="48.38988" lon="2.58541">
        <ele>123</ele>
        <time>2012-02-19T12:55:54Z</time>
      </trkpt>
      <trkpt lat="48.38988" lon="2.58534">
        <ele>123</ele>
        <time>2012-02-19T12:55:56Z</time>
      </trkpt>
      <trkpt lat="48.38992" lon="2.58516">
        <ele>123</ele>
        <time>2012-02-19T12:56:01Z</time>
      </trkpt>
      <trkpt lat="48.39008" lon="2.58487">
        <ele>119</ele>
        <time>2012-02-19T12:56:12Z</time>
      </trkpt>
      <trkpt lat="48.39012" lon="2.5848">
        <ele>118</ele>
        <time>2012-02-19T12:56:14Z</time>
      </trkpt>
      <trkpt lat="48.3902" lon="2.58431">
        <ele>118</ele>
        <time>2012-02-19T12:56:26Z</time>
      </trkpt>
      <trkpt lat="48.39027" lon="2.5839">
        <ele>118</ele>
        <time>2012-02-19T12:56:37Z</time>
      </trkpt>
      <trkpt lat="48.3903" lon="2.58382">
        <ele>117</ele>
        <time>2012-02-19T12:56:39Z</time>
      </trkpt>
      <trkpt lat="48.39025" lon="2.58361">
        <ele>118</ele>
        <time>2012-02-19T12:56:46Z</time>
      </trkpt>
      <trkpt lat="48.39026" lon="2.58354">
        <ele>118</ele>
        <time>2012-02-19T12:56:48Z</time>
      </trkpt>
      <trkpt lat="48.39024" lon="2.5834">
        <ele>119</ele>
        <time>2012-02-19T12:56:52Z</time>
      </trkpt>
      <trkpt lat="48.39027" lon="2.58332">
        <ele>119</ele>
        <time>2012-02-19T12:56:55Z</time>
      </trkpt>
      <trkpt lat="48.39025" lon="2.58318">
        <ele>119</ele>
        <time>2012-02-19T12:57:00Z</time>
      </trkpt>
      <trkpt lat="48.39022" lon="2.58277">
        <ele>119</ele>
        <time>2012-02-19T12:57:11Z</time>
      </trkpt>
      <trkpt lat="48.39022" lon="2.58275">
        <ele>119</ele>
        <time>2012-02-19T12:57:22Z</time>
      </trkpt>
      <trkpt lat="48.39019" lon="2.58265">
        <ele>119</ele>
        <time>2012-02-19T12:57:27Z</time>
      </trkpt>
      <trkpt lat="48.39009" lon="2.58258">
        <ele>121</ele>
        <time>2012-02-19T12:57:31Z</time>
      </trkpt>
      <trkpt lat="48.39002" lon="2.58244">
        <ele>122</ele>
        <time>2012-02-19T12:57:35Z</time>
      </trkpt>
      <trkpt lat="48.38999" lon="2.58235">
        <ele>124</ele>
        <time>2012-02-19T12:57:37Z</time>
      </trkpt>
      <trkpt lat="48.39011" lon="2.58176">
        <ele>121</ele>
        <time>2012-02-19T12:57:50Z</time>
      </trkpt>
      <trkpt lat="48.39022" lon="2.58148">
        <ele>120</ele>
        <time>2012-02-19T12:57:58Z</time>
      </trkpt>
      <trkpt lat="48.39028" lon="2.58142">
        <ele>119</ele>
        <time>2012-02-19T12:58:01Z</time>
      </trkpt>
      <trkpt lat="48.39036" lon="2.58133">
        <ele>119</ele>
        <time>2012-02-19T12:58:06Z</time>
      </trkpt>
      <trkpt lat="48.39037" lon="2.58127">
        <ele>119</ele>
        <time>2012-02-19T12:58:08Z</time>
      </trkpt>
      <trkpt lat="48.39043" lon="2.58117">
        <ele>118</ele>
        <time>2012-02-19T12:58:12Z</time>
      </trkpt>
      <trkpt lat="48.39043" lon="2.58105">
        <ele>118</ele>
        <time>2012-02-19T12:58:16Z</time>
      </trkpt>
      <trkpt lat="48.39044" lon="2.58098">
        <ele>118</ele>
        <time>2012-02-19T12:58:18Z</time>
      </trkpt>
      <trkpt lat="48.39043" lon="2.58084">
        <ele>119</ele>
        <time>2012-02-19T12:58:22Z</time>
      </trkpt>
      <trkpt lat="48.39045" lon="2.58071">
        <ele>118</ele>
        <time>2012-02-19T12:58:25Z</time>
      </trkpt>
      <trkpt lat="48.39052" lon="2.58062">
        <ele>118</ele>
        <time>2012-02-19T12:58:34Z</time>
      </trkpt>
      <trkpt lat="48.39053" lon="2.58057">
        <ele>118</ele>
        <time>2012-02-19T12:58:38Z</time>
      </trkpt>
      <trkpt lat="48.39044" lon="2.58041">
        <ele>118</ele>
        <time>2012-02-19T12:58:47Z</time>
      </trkpt>
      <trkpt lat="48.39045" lon="2.58027">
        <ele>118</ele>
        <time>2012-02-19T12:58:51Z</time>
      </trkpt>
      <trkpt lat="48.39038" lon="2.57974">
        <ele>119</ele>
        <time>2012-02-19T12:59:03Z</time>
      </trkpt>
      <trkpt lat="48.39047" lon="2.5794">
        <ele>118</ele>
        <time>2012-02-19T12:59:11Z</time>
      </trkpt>
      <trkpt lat="48.39048" lon="2.57936">
        <ele>118</ele>
        <time>2012-02-19T12:59:12Z</time>
      </trkpt>
      <trkpt lat="48.39045" lon="2.57921">
        <ele>118</ele>
        <time>2012-02-19T12:59:16Z</time>
      </trkpt>
      <trkpt lat="48.39045" lon="2.57908">
        <ele>119</ele>
        <time>2012-02-19T12:59:19Z</time>
      </trkpt>
      <trkpt lat="48.39038" lon="2.57895">
        <ele>119</ele>
        <time>2012-02-19T12:59:23Z</time>
      </trkpt>
      <trkpt lat="48.39009" lon="2.57848">
        <ele>121</ele>
        <time>2012-02-19T12:59:36Z</time>
      </trkpt>
      <trkpt lat="48.39004" lon="2.57807">
        <ele>121</ele>
        <time>2012-02-19T12:59:47Z</time>
      </trkpt>
      <trkpt lat="48.39003" lon="2.57796">
        <ele>121</ele>
        <time>2012-02-19T12:59:50Z</time>
      </trkpt>
      <trkpt lat="48.39004" lon="2.57787">
        <ele>121</ele>
        <time>2012-02-19T12:59:54Z</time>
      </trkpt>
      <trkpt lat="48.39007" lon="2.57771">
        <ele>121</ele>
        <time>2012-02-19T13:00:00Z</time>
      </trkpt>
      <trkpt lat="48.39016" lon="2.57728">
        <ele>122</ele>
        <time>2012-02-19T13:00:13Z</time>
      </trkpt>
      <trkpt lat="48.39019" lon="2.57716">
        <ele>121</ele>
        <time>2012-02-19T13:00:17Z</time>
      </trkpt>
      <trkpt lat="48.39021" lon="2.57709">
        <ele>121</ele>
        <time>2012-02-19T13:00:19Z</time>
      </trkpt>
      <trkpt lat="48.39028" lon="2.57696">
        <ele>121</ele>
        <time>2012-02-19T13:00:23Z</time>
      </trkpt>
      <trkpt lat="48.39031" lon="2.5766">
        <ele>121</ele>
        <time>2012-02-19T13:00:31Z</time>
      </trkpt>
      <trkpt lat="48.39038" lon="2.57649">
        <ele>121</ele>
        <time>2012-02-19T13:00:35Z</time>
      </trkpt>
      <trkpt lat="48.39041" lon="2.5763">
        <ele>121</ele>
        <time>2012-02-19T13:00:40Z</time>
      </trkpt>
      <trkpt lat="48.39038" lon="2.57603">
        <ele>121</ele>
        <time>2012-02-19T13:00:47Z</time>
      </trkpt>
      <trkpt lat="48.39041" lon="2.57573">
        <ele>120</ele>
        <time>2012-02-19T13:00:54Z</time>
      </trkpt>
      <trkpt lat="48.39039" lon="2.57556">
        <ele>119</ele>
        <time>2012-02-19T13:00:58Z</time>
      </trkpt>
      <trkpt lat="48.39043" lon="2.57537">
        <ele>119</ele>
        <time>2012-02-19T13:01:07Z</time>
      </trkpt>
      <trkpt lat="48.39046" lon="2.5752">
        <ele>119</ele>
        <time>2012-02-19T13:01:12Z</time>
      </trkpt>
      <trkpt lat="48.39034" lon="2.57491">
        <ele>118</ele>
        <time>2012-02-19T13:01:21Z</time>
      </trkpt>
      <trkpt lat="48.39026" lon="2.5748">
        <ele>118</ele>
        <time>2012-02-19T13:01:25Z</time>
      </trkpt>
      <trkpt lat="48.39028" lon="2.57457">
        <ele>118</ele>
        <time>2012-02-19T13:01:31Z</time>
      </trkpt>
      <trkpt lat="48.39024" lon="2.57444">
        <ele>118</ele>
        <time>2012-02-19T13:01:35Z</time>
      </trkpt>
      <trkpt lat="48.39024" lon="2.57434">
        <ele>118</ele>
        <time>2012-02-19T13:01:38Z</time>
      </trkpt>
      <trkpt lat="48.39027" lon="2.57399">
        <ele>118</ele>
        <time>2012-02-19T13:01:48Z</time>
      </trkpt>
      <trkpt lat="48.39027" lon="2.57388">
        <ele>118</ele>
        <time>2012-02-19T13:01:59Z</time>
      </trkpt>
      <trkpt lat="48.39029" lon="2.57383">
        <ele>118</ele>
        <time>2012-02-19T13:02:19Z</time>
      </trkpt>
      <trkpt lat="48.3903" lon="2.57383">
        <ele>118</ele>
        <time>2012-02-19T13:02:29Z</time>
      </trkpt>
      <trkpt lat="48.39037" lon="2.5737">
        <ele>118</ele>
        <time>2012-02-19T13:02:35Z</time>
      </trkpt>
      <trkpt lat="48.39047" lon="2.57352">
        <ele>118</ele>
        <time>2012-02-19T13:02:41Z</time>
      </trkpt>
      <trkpt lat="48.3905" lon="2.57335">
        <ele>118</ele>
        <time>2012-02-19T13:02:46Z</time>
      </trkpt>
      <trkpt lat="48.39056" lon="2.57318">
        <ele>117</ele>
        <time>2012-02-19T13:02:50Z</time>
      </trkpt>
      <trkpt lat="48.39067" lon="2.57306">
        <ele>117</ele>
        <time>2012-02-19T13:02:55Z</time>
      </trkpt>
      <trkpt lat="48.39071" lon="2.57298">
        <ele>117</ele>
        <time>2012-02-19T13:02:59Z</time>
      </trkpt>
      <trkpt lat="48.39076" lon="2.57288">
        <ele>117</ele>
        <time>2012-02-19T13:03:02Z</time>
      </trkpt>
      <trkpt lat="48.39075" lon="2.57276">
        <ele>117</ele>
        <time>2012-02-19T13:03:06Z</time>
      </trkpt>
      <trkpt lat="48.39084" lon="2.57219">
        <ele>118</ele>
        <time>2012-02-19T13:03:18Z</time>
      </trkpt>
      <trkpt lat="48.39098" lon="2.57194">
        <ele>117</ele>
        <time>2012-02-19T13:03:26Z</time>
      </trkpt>
      <trkpt lat="48.39103" lon="2.57184">
        <ele>117</ele>
        <time>2012-02-19T13:03:29Z</time>
      </trkpt>
      <trkpt lat="48.39117" lon="2.57165">
        <ele>118</ele>
        <time>2012-02-19T13:03:35Z</time>
      </trkpt>
      <trkpt lat="48.39122" lon="2.57158">
        <ele>118</ele>
        <time>2012-02-19T13:03:39Z</time>
      </trkpt>
      <trkpt lat="48.39134" lon="2.57107">
        <ele>118</ele>
        <time>2012-02-19T13:03:53Z</time>
      </trkpt>
      <trkpt lat="48.39135" lon="2.57102">
        <ele>118</ele>
        <time>2012-02-19T13:03:54Z</time>
      </trkpt>
      <trkpt lat="48.39141" lon="2.57054">
        <ele>117</ele>
        <time>2012-02-19T13:04:05Z</time>
      </trkpt>
      <trkpt lat="48.39144" lon="2.57038">
        <ele>117</ele>
        <time>2012-02-19T13:04:09Z</time>
      </trkpt>
      <trkpt lat="48.39154" lon="2.57004">
        <ele>118</ele>
        <time>2012-02-19T13:04:17Z</time>
      </trkpt>
      <trkpt lat="48.39161" lon="2.56993">
        <ele>118</ele>
        <time>2012-02-19T13:04:21Z</time>
      </trkpt>
      <trkpt lat="48.39169" lon="2.56977">
        <ele>115</ele>
        <time>2012-02-19T13:04:25Z</time>
      </trkpt>
      <trkpt lat="48.39159" lon="2.56932">
        <ele>116</ele>
        <time>2012-02-19T13:04:35Z</time>
      </trkpt>
      <trkpt lat="48.39159" lon="2.56923">
        <ele>116</ele>
        <time>2012-02-19T13:04:37Z</time>
      </trkpt>
      <trkpt lat="48.39159" lon="2.56916">
        <ele>116</ele>
        <time>2012-02-19T13:04:39Z</time>
      </trkpt>
      <trkpt lat="48.39171" lon="2.56888">
        <ele>114</ele>
        <time>2012-02-19T13:04:48Z</time>
      </trkpt>
      <trkpt lat="48.39175" lon="2.56867">
        <ele>114</ele>
        <time>2012-02-19T13:04:54Z</time>
      </trkpt>
      <trkpt lat="48.39178" lon="2.56854">
        <ele>114</ele>
        <time>2012-02-19T13:04:58Z</time>
      </trkpt>
      <trkpt lat="48.39179" lon="2.56802">
        <ele>115</ele>
        <time>2012-02-19T13:05:10Z</time>
      </trkpt>
      <trkpt lat="48.39179" lon="2.56798">
        <ele>115</ele>
        <time>2012-02-19T13:05:11Z</time>
      </trkpt>
      <trkpt lat="48.3918" lon="2.56765">
        <ele>115</ele>
        <time>2012-02-19T13:05:19Z</time>
      </trkpt>
      <trkpt lat="48.39184" lon="2.56749">
        <ele>115</ele>
        <time>2012-02-19T13:05:23Z</time>
      </trkpt>
      <trkpt lat="48.39185" lon="2.56744">
        <ele>115</ele>
        <time>2012-02-19T13:05:25Z</time>
      </trkpt>
      <trkpt lat="48.39199" lon="2.56704">
        <ele>113</ele>
        <time>2012-02-19T13:05:37Z</time>
      </trkpt>
      <trkpt lat="48.39201" lon="2.56675">
        <ele>112</ele>
        <time>2012-02-19T13:05:50Z</time>
      </trkpt>
      <trkpt lat="48.39206" lon="2.56661">
        <ele>111</ele>
        <time>2012-02-19T13:06:00Z</time>
      </trkpt>
      <trkpt lat="48.39211" lon="2.56643">
        <ele>111</ele>
        <time>2012-02-19T13:06:04Z</time>
      </trkpt>
      <trkpt lat="48.39209" lon="2.5663">
        <ele>111</ele>
        <time>2012-02-19T13:06:14Z</time>
      </trkpt>
      <trkpt lat="48.39209" lon="2.5663">
        <ele>111</ele>
        <time>2012-02-19T13:06:57Z</time>
      </trkpt>
      <trkpt lat="48.3921" lon="2.56625">
        <ele>111</ele>
        <time>2012-02-19T13:07:00Z</time>
      </trkpt>
      <trkpt lat="48.3921" lon="2.56616">
        <ele>111</ele>
        <time>2012-02-19T13:07:03Z</time>
      </trkpt>
      <trkpt lat="48.3921" lon="2.56609">
        <ele>111</ele>
        <time>2012-02-19T13:07:05Z</time>
      </trkpt>
      <trkpt lat="48.3922" lon="2.56595">
        <ele>111</ele>
        <time>2012-02-19T13:07:10Z</time>
      </trkpt>
      <trkpt lat="48.39227" lon="2.56579">
        <ele>111</ele>
        <time>2012-02-19T13:07:14Z</time>
      </trkpt>
      <trkpt lat="48.39227" lon="2.56563">
        <ele>111</ele>
        <time>2012-02-19T13:07:18Z</time>
      </trkpt>
      <trkpt lat="48.39229" lon="2.56555">
        <ele>111</ele>
        <time>2012-02-19T13:07:20Z</time>
      </trkpt>
      <trkpt lat="48.39239" lon="2.56537">
        <ele>112</ele>
        <time>2012-02-19T13:07:25Z</time>
      </trkpt>
      <trkpt lat="48.39244" lon="2.56517">
        <ele>113</ele>
        <time>2012-02-19T13:07:30Z</time>
      </trkpt>
      <trkpt lat="48.39242" lon="2.56496">
        <ele>113</ele>
        <time>2012-02-19T13:07:35Z</time>
      </trkpt>
      <trkpt lat="48.39243" lon="2.56481">
        <ele>112</ele>
        <time>2012-02-19T13:07:39Z</time>
      </trkpt>
      <trkpt lat="48.3924" lon="2.56468">
        <ele>111</ele>
        <time>2012-02-19T13:07:42Z</time>
      </trkpt>
      <trkpt lat="48.39244" lon="2.56417">
        <ele>112</ele>
        <time>2012-02-19T13:07:54Z</time>
      </trkpt>
      <trkpt lat="48.39245" lon="2.56414">
        <ele>112</ele>
        <time>2012-02-19T13:07:55Z</time>
      </trkpt>
      <trkpt lat="48.39248" lon="2.56398">
        <ele>109</ele>
        <time>2012-02-19T13:07:59Z</time>
      </trkpt>
      <trkpt lat="48.39257" lon="2.56369">
        <ele>105</ele>
        <time>2012-02-19T13:08:12Z</time>
      </trkpt>
      <trkpt lat="48.39256" lon="2.5636">
        <ele>105</ele>
        <time>2012-02-19T13:08:22Z</time>
      </trkpt>
      <trkpt lat="48.39255" lon="2.56328">
        <ele>109</ele>
        <time>2012-02-19T13:08:32Z</time>
      </trkpt>
      <trkpt lat="48.39262" lon="2.56309">
        <ele>104</ele>
        <time>2012-02-19T13:08:41Z</time>
      </trkpt>
      <trkpt lat="48.39266" lon="2.56299">
        <ele>103</ele>
        <time>2012-02-19T13:08:45Z</time>
      </trkpt>
      <trkpt lat="48.39267" lon="2.56284">
        <ele>103</ele>
        <time>2012-02-19T13:08:53Z</time>
      </trkpt>
      <trkpt lat="48.39264" lon="2.56279">
        <ele>103</ele>
        <time>2012-02-19T13:09:07Z</time>
      </trkpt>
      <trkpt lat="48.39259" lon="2.56271">
        <ele>104</ele>
        <time>2012-02-19T13:09:27Z</time>
      </trkpt>
      <trkpt lat="48.39259" lon="2.56263">
        <ele>104</ele>
        <time>2012-02-19T13:09:39Z</time>
      </trkpt>
      <trkpt lat="48.39258" lon="2.56257">
        <ele>105</ele>
        <time>2012-02-19T13:09:46Z</time>
      </trkpt>
      <trkpt lat="48.3926" lon="2.56239">
        <ele>103</ele>
        <time>2012-02-19T13:09:53Z</time>
      </trkpt>
      <trkpt lat="48.39262" lon="2.5623">
        <ele>102</ele>
        <time>2012-02-19T13:09:56Z</time>
      </trkpt>
      <trkpt lat="48.39257" lon="2.56224">
        <ele>101</ele>
        <time>2012-02-19T13:10:09Z</time>
      </trkpt>
      <trkpt lat="48.39258" lon="2.56216">
        <ele>101</ele>
        <time>2012-02-19T13:10:28Z</time>
      </trkpt>
      <trkpt lat="48.39268" lon="2.56199">
        <ele>100</ele>
        <time>2012-02-19T13:10:33Z</time>
      </trkpt>
      <trkpt lat="48.39269" lon="2.56191">
        <ele>99</ele>
        <time>2012-02-19T13:10:35Z</time>
      </trkpt>
      <trkpt lat="48.39279" lon="2.56175">
        <ele>99</ele>
        <time>2012-02-19T13:10:41Z</time>
      </trkpt>
      <trkpt lat="48.39285" lon="2.5617">
        <ele>98</ele>
        <time>2012-02-19T13:10:43Z</time>
      </trkpt>
      <trkpt lat="48.39292" lon="2.56142">
        <ele>99</ele>
        <time>2012-02-19T13:10:51Z</time>
      </trkpt>
      <trkpt lat="48.39291" lon="2.56115">
        <ele>99</ele>
        <time>2012-02-19T13:11:00Z</time>
      </trkpt>
      <trkpt lat="48.39293" lon="2.56099">
        <ele>99</ele>
        <time>2012-02-19T13:11:10Z</time>
      </trkpt>
      <trkpt lat="48.39293" lon="2.56085">
        <ele>100</ele>
        <time>2012-02-19T13:11:18Z</time>
      </trkpt>
      <trkpt lat="48.39297" lon="2.56068">
        <ele>101</ele>
        <time>2012-02-19T13:11:31Z</time>
      </trkpt>
      <trkpt lat="48.39301" lon="2.56056">
        <ele>101</ele>
        <time>2012-02-19T13:11:46Z</time>
      </trkpt>
      <trkpt lat="48.39301" lon="2.56049">
        <ele>101</ele>
        <time>2012-02-19T13:11:53Z</time>
      </trkpt>
      <trkpt lat="48.39306" lon="2.56008">
        <ele>102</ele>
        <time>2012-02-19T13:12:07Z</time>
      </trkpt>
      <trkpt lat="48.39302" lon="2.55997">
        <ele>101</ele>
        <time>2012-02-19T13:12:11Z</time>
      </trkpt>
      <trkpt lat="48.39293" lon="2.55994">
        <ele>100</ele>
        <time>2012-02-19T13:12:15Z</time>
      </trkpt>
      <trkpt lat="48.39279" lon="2.5598">
        <ele>100</ele>
        <time>2012-02-19T13:12:22Z</time>
      </trkpt>
      <trkpt lat="48.39286" lon="2.5594">
        <ele>99</ele>
        <time>2012-02-19T13:12:34Z</time>
      </trkpt>
      <trkpt lat="48.39288" lon="2.55904">
        <ele>97</ele>
        <time>2012-02-19T13:12:43Z</time>
      </trkpt>
      <trkpt lat="48.39286" lon="2.55884">
        <ele>97</ele>
        <time>2012-02-19T13:12:51Z</time>
      </trkpt>
      <trkpt lat="48.39287" lon="2.55881">
        <ele>97</ele>
        <time>2012-02-19T13:12:52Z</time>
      </trkpt>
      <trkpt lat="48.3929" lon="2.55863">
        <ele>97</ele>
        <time>2012-02-19T13:12:55Z</time>
      </trkpt>
      <trkpt lat="48.39298" lon="2.55843">
        <ele>97</ele>
        <time>2012-02-19T13:13:00Z</time>
      </trkpt>
      <trkpt lat="48.39303" lon="2.55839">
        <ele>97</ele>
        <time>2012-02-19T13:13:02Z</time>
      </trkpt>
      <trkpt lat="48.39321" lon="2.55813">
        <ele>97</ele>
        <time>2012-02-19T13:13:13Z</time>
      </trkpt>
      <trkpt lat="48.39325" lon="2.55808">
        <ele>97</ele>
        <time>2012-02-19T13:13:15Z</time>
      </trkpt>
      <trkpt lat="48.39325" lon="2.55801">
        <ele>97</ele>
        <time>2012-02-19T13:13:18Z</time>
      </trkpt>
      <trkpt lat="48.39325" lon="2.55788">
        <ele>96</ele>
        <time>2012-02-19T13:13:33Z</time>
      </trkpt>
      <trkpt lat="48.39323" lon="2.55773">
        <ele>97</ele>
        <time>2012-02-19T13:14:11Z</time>
      </trkpt>
      <trkpt lat="48.39324" lon="2.55742">
        <ele>96</ele>
        <time>2012-02-19T13:14:17Z</time>
      </trkpt>
      <trkpt lat="48.3933" lon="2.55701">
        <ele>91</ele>
        <time>2012-02-19T13:14:26Z</time>
      </trkpt>
      <trkpt lat="48.39314" lon="2.55689">
        <ele>90</ele>
        <time>2012-02-19T13:14:33Z</time>
      </trkpt>
      <trkpt lat="48.39302" lon="2.55661">
        <ele>85</ele>
        <time>2012-02-19T13:14:41Z</time>
      </trkpt>
      <trkpt lat="48.39299" lon="2.55656">
        <ele>85</ele>
        <time>2012-02-19T13:14:52Z</time>
      </trkpt>
      <trkpt lat="48.39299" lon="2.55655">
        <ele>85</ele>
        <time>2012-02-19T13:14:55Z</time>
      </trkpt>
      <trkpt lat="48.39294" lon="2.55645">
        <ele>84</ele>
        <time>2012-02-19T13:15:02Z</time>
      </trkpt>
      <trkpt lat="48.39285" lon="2.55638">
        <ele>83</ele>
        <time>2012-02-19T13:15:06Z</time>
      </trkpt>
      <trkpt lat="48.3928" lon="2.55626">
        <ele>83</ele>
        <time>2012-02-19T13:15:10Z</time>
      </trkpt>
      <trkpt lat="48.39274" lon="2.55619">
        <ele>82</ele>
        <time>2012-02-19T13:15:13Z</time>
      </trkpt>
      <trkpt lat="48.39256" lon="2.55601">
        <ele>80</ele>
        <time>2012-02-19T13:15:20Z</time>
      </trkpt>
      <trkpt lat="48.39229" lon="2.5559">
        <ele>77</ele>
        <time>2012-02-19T13:15:30Z</time>
      </trkpt>
      <trkpt lat="48.39188" lon="2.55634">
        <ele>77</ele>
        <time>2012-02-19T13:15:42Z</time>
      </trkpt>
      <trkpt lat="48.3912" lon="2.55718">
        <ele>76</ele>
        <time>2012-02-19T13:16:01Z</time>
      </trkpt>
      <trkpt lat="48.39106" lon="2.55734">
        <ele>76</ele>
        <time>2012-02-19T13:16:05Z</time>
      </trkpt>
      <trkpt lat="48.39078" lon="2.55726">
        <ele>76</ele>
        <time>2012-02-19T13:16:13Z</time>
      </trkpt>
      <trkpt lat="48.39068" lon="2.55706">
        <ele>76</ele>
        <time>2012-02-19T13:16:17Z</time>
      </trkpt>
      <trkpt lat="48.39034" lon="2.55642">
        <ele>76</ele>
        <time>2012-02-19T13:16:29Z</time>
      </trkpt>
      <trkpt lat="48.39023" lon="2.55621">
        <ele>76</ele>
        <time>2012-02-19T13:16:33Z</time>
      </trkpt>
      <trkpt lat="48.39005" lon="2.55554">
        <ele>76</ele>
        <time>2012-02-19T13:16:43Z</time>
      </trkpt>
      <trkpt lat="48.38984" lon="2.55512">
        <ele>77</ele>
        <time>2012-02-19T13:16:50Z</time>
      </trkpt>
      <trkpt lat="48.38991" lon="2.55466">
        <ele>76</ele>
        <time>2012-02-19T13:16:56Z</time>
      </trkpt>
      <trkpt lat="48.39004" lon="2.55438">
        <ele>75</ele>
        <time>2012-02-19T13:17:01Z</time>
      </trkpt>
      <trkpt lat="48.39003" lon="2.55398">
        <ele>76</ele>
        <time>2012-02-19T13:17:08Z</time>
      </trkpt>
      <trkpt lat="48.39006" lon="2.55337">
        <ele>77</ele>
        <time>2012-02-19T13:17:23Z</time>
      </trkpt>
      <trkpt lat="48.39008" lon="2.55335">
        <ele>77</ele>
        <time>2012-02-19T13:17:33Z</time>
      </trkpt>
      <trkpt lat="48.3901" lon="2.55337">
        <ele>77</ele>
        <time>2012-02-19T13:18:04Z</time>
      </trkpt>
      <trkpt lat="48.3901" lon="2.55335">
        <ele>77</ele>
        <time>2012-02-19T13:18:18Z</time>
      </trkpt>
      <trkpt lat="48.39008" lon="2.55333">
        <ele>77</ele>
        <time>2012-02-19T13:18:45Z</time>
      </trkpt>
    </trkseg>
  </trk>
</gpx>